[[{"header":{"parameterUnit":"m.s-1","parameterCategory":1,"la1":31.0,"la2":29.5877,"lo1":-88.7671,"lo2":-86.6584,"dx":0.0162,"dy":0.0185,"nx":115,"ny":88,"refTime":"2023-01-12T18:00:00:Z","depth":0,"parameterNumber":2,"parameterNumberName":"U-component_of_WINDS"},"data":[0.0,0.0,0.0,0.0,0.0,0.0,0.0,0.0,0.0,0.0,0.0,0.0,0.0,0.0,0.0,0.0,0.0,0.0,0.0,0.0,0.0,0.0,0.0,0.0,0.0,0.0,0.0,0.0,0.0,0.0,0.0,0.0,0.0,0.0,0.0,0.0,0.0,0.0,0.0,0.0,0.0,0.0,0.0,0.0,0.0,0.0,0.0,0.0,0.0,0.0,0.0,0.0,0.0,0.0,0.0,0.0,0.0,0.0,0.0,0.0,0.0,0.0,0.0,0.0,0.0,0.0,0.0,0.0,0.0,0.0,0.0,0.0,0.0,0.0,0.0,0.0,0.0,0.0,0.0,0.0,0.0,0.0,0.0,0.0,0.0,0.0,0.0,0.0,0.0,0.0,0.0,0.0,0.0,0.0,0.0,0.0,0.0,0.0,0.0,0.0,0.0,0.0,0.0,0.0,0.0,0.0,0.0,0.0,0.0,0.0,0.0,0.0,0.0,0.0,0.0,0.0,0.0,0.0,0.0,0.0,0.0,0.0,0.0,0.0,0.0,0.0,0.0,0.0,0.0,0.0,0.0,0.0,0.0,0.0,0.0,0.0,0.0,0.0,0.0,0.0,0.0,0.0,0.0,0.0,0.0,0.0,0.0,0.0,0.0,0.0,0.0,0.0,0.0,0.0,0.0,0.0,0.0,0.0,0.0,0.0,0.0,0.0,0.0,0.0,0.0,0.0,0.0,0.0,0.0,0.0,0.0,0.0,0.0,0.0,0.0,0.0,0.0,0.0,0.0,0.0,0.0,0.0,0.0,0.0,0.0,0.0,0.0,0.0,0.0,0.0,0.0,0.0,0.0,0.0,0.0,0.0,0.0,0.0,0.0,0.0,0.0,0.0,0.0,0.0,0.0,0.0,0.0,0.0,0.0,0.0,0.0,0.0,0.0,0.0,0.0,0.0,0.0,0.0,0.0,0.0,0.0,0.0,0.0,0.0,0.0,0.0,0.0,0.0,0.0,0.0,0.0,0.0,0.0,0.0,0.0,0.0,0.0,0.0,0.0,0.0,0.0,0.0,0.0,0.0,0.0,0.0,0.0,0.0,0.0,0.0,0.0,0.0,0.0,0.0,0.0,0.0,0.0,0.0,0.0,0.0,0.0,0.0,0.0,0.0,0.0,0.0,0.0,0.0,0.0,0.0,0.0,0.0,0.0,0.0,0.0,0.0,0.0,0.0,0.0,0.0,0.0,0.0,0.0,0.0,0.0,0.0,0.0,0.0,0.0,0.0,0.0,0.0,0.0,0.0,0.0,0.0,0.0,0.0,0.0,0.0,0.0,0.0,0.0,0.0,0.0,0.0,0.0,0.0,0.0,0.0,0.0,0.0,0.0,0.0,0.0,0.0,0.0,0.0,0.0,0.0,0.0,0.0,0.0,0.0,0.0,0.0,0.0,0.0,0.0,0.0,0.0,0.0,0.0,0.0,0.0,0.0,0.0,0.0,0.0,0.0,0.0,0.0,0.0,0.0,0.0,0.0,0.0,0.0,0.0,0.0,0.0,0.0,0.0,0.0,0.0,0.0,0.0,0.0,0.0,0.0,0.0,0.0,0.0,0.0,0.0,0.0,0.0,0.0,0.0,0.0,0.0,0.0,0.0,0.0,0.0,0.0,0.0,0.0,0.0,0.0,0.0,0.0,0.0,0.0,0.0,0.0,0.0,0.0,0.0,0.0,0.0,0.0,0.0,0.0,0.0,0.0,0.0,0.0,0.0,0.0,0.0,0.0,0.0,0.0,0.0,0.0,0.0,0.0,0.0,0.0,0.0,0.0,0.0,0.0,0.0,0.0,0.0,0.0,0.0,0.0,0.0,0.0,0.0,0.0,0.0,0.0,0.0,0.0,0.0,0.0,0.0,0.0,0.0,0.0,0.0,0.0,0.0,0.0,0.0,0.0,0.0,0.0,0.0,0.0,0.0,0.0,0.0,0.0,0.0,0.0,0.0,0.0,0.0,0.0,0.0,0.0,0.0,0.0,0.0,0.0,0.0,0.0,0.0,0.0,0.0,0.0,0.0,0.0,0.0,0.0,0.0,0.0,0.0,0.0,0.0,0.0,0.0,0.0,0.0,0.0,0.0,0.0,0.0,0.0,0.0,0.0,0.0,0.0,0.0,0.0,0.0,0.0,0.0,0.0,0.0,0.0,0.0,0.0,0.0,0.0,0.0,0.0,0.0,0.0,0.0,0.0,0.0,0.0,0.0,0.0,0.0,0.0,0.0,0.0,0.0,0.0,0.0,0.0,0.0,0.0,0.0,0.0,0.0,0.0,0.0,0.0,0.0,0.0,0.0,0.0,0.0,0.0,0.0,0.0,0.0,0.0,0.0,0.0,0.0,0.0,0.0,0.0,0.0,0.0,0.0,0.0,0.0,0.0,0.0,0.0,0.0,0.0,0.0,0.0,0.0,0.0,0.0,0.0,0.0,0.0,0.0,0.0,0.0,0.0,0.0,0.0,0.0,0.0,0.0,0.0,0.0,0.0,0.0,0.0,0.0,0.0,0.0,0.0,0.0,0.0,0.0,0.0,0.0,0.0,0.0,0.0,0.0,0.0,0.0,0.0,0.0,0.0,0.0,0.0,0.0,0.0,0.0,0.0,0.0,0.0,0.0,0.0,0.0,0.0,0.0,0.0,0.0,0.0,0.0,0.0,0.0,0.0,0.0,0.0,0.0,0.0,0.0,0.0,0.0,0.0,0.0,0.0,0.0,0.0,0.0,0.0,0.0,0.0,0.0,0.0,0.0,0.0,0.0,0.0,0.0,0.0,0.0,0.0,0.0,0.0,0.0,0.0,0.0,0.0,0.0,0.0,0.0,0.0,0.0,0.0,0.0,0.0,0.0,0.0,0.0,0.0,0.0,0.0,0.0,0.0,0.0,0.0,0.0,0.0,0.0,0.0,0.0,0.0,0.0,0.0,0.0,0.0,0.0,0.0,0.0,0.0,0.0,0.0,0.0,0.0,0.0,0.0,0.0,0.0,0.0,0.0,0.0,0.0,0.0,0.0,0.0,0.0,0.0,0.0,0.0,0.0,0.0,0.0,0.0,0.0,0.0,0.0,0.0,0.0,0.0,0.0,0.0,0.0,0.0,0.0,0.0,0.0,0.0,0.0,0.0,0.0,0.0,0.0,0.0,0.0,0.0,0.0,0.0,0.0,0.0,0.0,0.0,0.0,0.0,0.0,0.0,0.0,0.0,0.0,0.0,0.0,0.0,0.0,0.0,0.0,0.0,0.0,0.0,0.0,0.0,0.0,0.0,0.0,0.0,0.0,0.0,0.0,0.0,0.0,0.0,0.0,0.0,0.0,0.0,0.0,0.0,0.0,0.0,0.0,0.0,0.0,0.0,0.0,0.0,0.0,0.0,0.0,0.0,0.0,0.0,0.0,0.0,0.0,0.0,0.0,0.0,0.0,0.0,0.0,0.0,0.0,0.0,0.0,0.0,0.0,0.0,0.0,0.0,0.0,0.0,0.0,0.0,0.0,0.0,0.0,0.0,0.0,0.0,0.0,0.0,0.0,0.0,0.0,0.0,0.0,0.0,0.0,0.0,0.0,0.0,0.0,0.0,0.0,0.0,0.0,0.0,0.0,0.0,0.0,0.0,0.0,0.0,0.0,0.0,0.0,0.0,0.0,0.0,0.0,0.0,0.0,0.0,0.0,0.0,0.0,0.0,0.0,0.0,0.0,0.0,0.0,0.0,0.0,0.0,0.0,0.0,0.0,0.0,0.0,0.0,0.0,0.0,0.0,0.0,0.0,0.0,0.0,0.0,0.0,0.0,0.0,0.0,0.0,0.0,0.0,0.0,0.0,0.0,0.0,0.0,0.0,0.0,0.0,0.0,0.0,0.0,0.0,0.0,0.0,0.0,0.0,0.0,0.0,0.0,0.0,0.0,0.0,0.0,0.0,0.0,0.0,0.0,0.0,0.0,0.0,0.0,0.0,0.0,0.0,0.0,0.0,0.0,0.0,0.0,0.0,0.0,0.0,0.0,0.0,0.0,0.0,0.0,0.0,0.0,0.0,0.0,0.0,0.0,0.0,0.0,0.0,0.0,0.0,0.0,0.0,0.0,0.0,0.0,0.0,0.0,0.0,0.0,0.0,0.0,0.0,0.0,0.0,0.0,0.0,0.0,0.0,0.0,0.0,0.0,0.0,0.0,0.0,0.0,0.0,0.0,0.0,0.0,0.0,0.0,0.0,0.0,0.0,0.0,0.0,0.0,0.0,5.1011,0.0,0.0,0.0,0.0,0.0,0.0,0.0,0.0,0.0,0.0,0.0,0.0,0.0,0.0,0.0,0.0,0.0,0.0,0.0,0.0,0.0,0.0,0.0,0.0,0.0,0.0,0.0,0.0,0.0,0.0,0.0,0.0,0.0,0.0,0.0,0.0,0.0,0.0,0.0,0.0,0.0,0.0,0.0,0.0,0.0,0.0,0.0,0.0,0.0,0.0,0.0,0.0,0.0,0.0,0.0,0.0,0.0,0.0,0.0,0.0,0.0,0.0,0.0,0.0,0.0,0.0,0.0,0.0,0.0,0.0,0.0,0.0,0.0,0.0,0.0,0.0,0.0,0.0,0.0,0.0,0.0,0.0,0.0,0.0,0.0,0.0,0.0,0.0,0.0,0.0,0.0,0.0,0.0,0.0,0.0,0.0,0.0,0.0,0.0,0.0,0.0,0.0,0.0,0.0,0.0,0.0,0.0,0.0,0.0,0.0,5.3253,5.2873,5.2873,5.2321,5.1183,0.0,0.0,0.0,0.0,0.0,0.0,0.0,0.0,0.0,0.0,0.0,0.0,0.0,0.0,0.0,0.0,0.0,0.0,0.0,0.0,0.0,0.0,0.0,0.0,0.0,0.0,0.0,0.0,0.0,0.0,0.0,0.0,0.0,0.0,0.0,0.0,0.0,0.0,0.0,0.0,0.0,0.0,0.0,0.0,0.0,0.0,0.0,0.0,0.0,0.0,0.0,0.0,0.0,0.0,0.0,0.0,0.0,0.0,0.0,0.0,0.0,0.0,0.0,0.0,0.0,0.0,0.0,0.0,0.0,0.0,0.0,0.0,0.0,0.0,0.0,0.0,0.0,0.0,0.0,0.0,0.0,0.0,0.0,0.0,0.0,0.0,0.0,0.0,0.0,0.0,0.0,0.0,0.0,0.0,0.0,0.0,0.0,0.0,0.0,0.0,0.0,0.0,0.0,0.0,0.0,0.0,0.0,0.0,0.0,0.0,0.0,0.0,5.3667,5.2942,5.1425,0.0,0.0,0.0,0.0,0.0,0.0,0.0,0.0,0.0,0.0,0.0,0.0,0.0,0.0,0.0,0.0,0.0,0.0,0.0,0.0,0.0,0.0,0.0,0.0,0.0,0.0,0.0,0.0,0.0,0.0,0.0,0.0,0.0,0.0,0.0,0.0,0.0,0.0,0.0,0.0,0.0,0.0,0.0,0.0,0.0,0.0,0.0,0.0,0.0,0.0,0.0,0.0,0.0,0.0,0.0,0.0,0.0,0.0,0.0,0.0,0.0,0.0,0.0,0.0,0.0,0.0,0.0,0.0,0.0,0.0,0.0,0.0,0.0,0.0,0.0,0.0,0.0,0.0,0.0,0.0,0.0,0.0,0.0,0.0,0.0,0.0,0.0,0.0,0.0,0.0,0.0,0.0,0.0,0.0,0.0,0.0,0.0,0.0,0.0,0.0,0.0,0.0,0.0,0.0,0.0,0.0,0.0,0.0,0.0,0.0,5.446,5.4391,5.4391,0.0,5.2218,0.0,0.0,0.0,0.0,0.0,0.0,0.0,0.0,0.0,0.0,0.0,0.0,0.0,0.0,0.0,0.0,0.0,0.0,0.0,0.0,0.0,0.0,0.0,0.0,0.0,0.0,0.0,0.0,0.0,0.0,0.0,0.0,0.0,0.0,0.0,0.0,0.0,0.0,0.0,0.0,0.0,0.0,0.0,0.0,0.0,0.0,0.0,0.0,0.0,0.0,0.0,0.0,0.0,0.0,0.0,0.0,0.0,0.0,0.0,0.0,0.0,0.0,0.0,0.0,0.0,0.0,0.0,0.0,0.0,0.0,0.0,0.0,0.0,0.0,0.0,0.0,0.0,0.0,0.0,0.0,0.0,0.0,0.0,0.0,0.0,0.0,0.0,0.0,0.0,0.0,0.0,0.0,0.0,0.0,0.0,0.0,0.0,0.0,0.0,0.0,0.0,0.0,0.0,0.0,0.0,0.0,0.0,0.0,0.0,0.0,5.4494,5.4494,5.408,5.326,0.0,0.0,0.0,0.0,0.0,0.0,0.0,0.0,0.0,0.0,0.0,0.0,0.0,0.0,0.0,0.0,0.0,0.0,0.0,0.0,0.0,0.0,0.0,0.0,0.0,0.0,0.0,0.0,0.0,0.0,0.0,0.0,0.0,0.0,0.0,0.0,0.0,0.0,0.0,0.0,0.0,0.0,0.0,0.0,0.0,0.0,0.0,0.0,0.0,0.0,0.0,0.0,0.0,0.0,0.0,0.0,0.0,0.0,0.0,0.0,0.0,0.0,0.0,0.0,0.0,0.0,0.0,0.0,0.0,0.0,0.0,0.0,0.0,0.0,0.0,0.0,0.0,0.0,0.0,0.0,0.0,0.0,0.0,0.0,0.0,0.0,0.0,0.0,0.0,0.0,0.0,0.0,0.0,0.0,0.0,0.0,0.0,0.0,0.0,0.0,0.0,0.0,0.0,0.0,0.0,0.0,0.0,0.0,0.0,0.0,5.4741,5.4805,5.4805,5.4287,5.3397,5.2069,0.0,0.0,0.0,0.0,0.0,0.0,0.0,0.0,0.0,0.0,0.0,0.0,0.0,0.0,0.0,0.0,0.0,0.0,0.0,0.0,0.0,0.0,0.0,0.0,0.0,0.0,0.0,0.0,0.0,0.0,0.0,0.0,0.0,0.0,0.0,0.0,0.0,0.0,0.0,0.0,0.0,0.0,0.0,0.0,0.0,0.0,0.0,0.0,0.0,0.0,0.0,0.0,0.0,0.0,0.0,0.0,0.0,0.0,0.0,0.0,0.0,0.0,0.0,0.0,0.0,0.0,0.0,0.0,0.0,0.0,0.0,0.0,0.0,0.0,0.0,0.0,0.0,0.0,0.0,0.0,0.0,0.0,0.0,0.0,0.0,0.0,0.0,0.0,0.0,0.0,0.0,0.0,0.0,0.0,0.0,0.0,0.0,0.0,0.0,0.0,0.0,0.0,0.0,0.0,0.0,0.0,0.0,0.0,0.0,5.5499,5.5563,5.5563,5.5529,5.4494,0.0,0.0,0.0,0.0,0.0,0.0,0.0,0.0,0.0,0.0,0.0,0.0,0.0,0.0,0.0,0.0,0.0,0.0,0.0,0.0,0.0,0.0,0.0,0.0,0.0,0.0,0.0,0.0,0.0,0.0,0.0,0.0,0.0,0.0,0.0,0.0,0.0,0.0,0.0,0.0,0.0,0.0,0.0,0.0,0.0,0.0,0.0,0.0,0.0,0.0,0.0,0.0,0.0,0.0,0.0,0.0,0.0,0.0,0.0,0.0,0.0,0.0,0.0,0.0,0.0,0.0,0.0,0.0,0.0,0.0,0.0,0.0,0.0,0.0,0.0,0.0,0.0,0.0,0.0,0.0,0.0,0.0,0.0,0.0,0.0,0.0,0.0,0.0,0.0,0.0,0.0,0.0,0.0,0.0,0.0,0.0,0.0,0.0,0.0,0.0,0.0,0.0,0.0,0.0,0.0,0.0,0.0,0.0,0.0,5.5407,5.605,5.6357,5.6357,5.5874,5.5012,0.0,0.0,0.0,0.0,0.0,0.0,0.0,0.0,0.0,0.0,0.0,0.0,0.0,0.0,0.0,0.0,0.0,0.0,0.0,0.0,0.0,0.0,0.0,0.0,0.0,0.0,0.0,0.0,0.0,0.0,0.0,0.0,0.0,0.0,0.0,0.0,0.0,0.0,0.0,0.0,0.0,0.0,0.0,0.0,0.0,0.0,0.0,0.0,0.0,0.0,0.0,0.0,0.0,0.0,0.0,0.0,0.0,0.0,0.0,0.0,0.0,0.0,0.0,0.0,0.0,0.0,0.0,0.0,0.0,0.0,0.0,0.0,0.0,0.0,0.0,0.0,0.0,0.0,0.0,0.0,0.0,0.0,0.0,0.0,0.0,0.0,0.0,0.0,0.0,0.0,0.0,0.0,0.0,0.0,0.0,0.0,0.0,0.0,0.0,0.0,0.0,0.0,0.0,0.0,0.0,0.0,0.0,0.0,0.0,5.6572,0.0,5.7495,5.7495,5.6771,5.577,0.0,0.0,0.0,0.0,0.0,0.0,0.0,0.0,0.0,0.0,0.0,0.0,0.0,0.0,0.0,0.0,0.0,0.0,0.0,0.0,0.0,0.0,0.0,0.0,0.0,0.0,0.0,0.0,0.0,0.0,0.0,0.0,0.0,0.0,0.0,0.0,0.0,0.0,0.0,0.0,0.0,0.0,0.0,0.0,0.0,0.0,0.0,0.0,0.0,0.0,0.0,0.0,0.0,0.0,0.0,0.0,0.0,0.0,0.0,0.0,0.0,0.0,0.0,0.0,0.0,0.0,0.0,0.0,0.0,0.0,0.0,0.0,0.0,0.0,0.0,0.0,0.0,0.0,0.0,0.0,0.0,0.0,0.0,0.0,0.0,0.0,0.0,0.0,0.0,0.0,0.0,0.0,0.0,0.0,0.0,0.0,0.0,0.0,0.0,0.0,0.0,0.0,0.0,0.0,0.0,0.0,0.0,0.0,5.7158,5.9012,5.9047,5.8944,5.9012,5.8288,5.6874,0.0,0.0,0.0,0.0,0.0,0.0,0.0,0.0,0.0,0.0,0.0,0.0,0.0,0.0,0.0,0.0,0.0,0.0,0.0,0.0,0.0,0.0,0.0,0.0,0.0,0.0,0.0,0.0,0.0,0.0,0.0,0.0,0.0,0.0,0.0,0.0,0.0,0.0,0.0,0.0,0.0,0.0,0.0,0.0,0.0,0.0,0.0,0.0,0.0,0.0,0.0,0.0,0.0,0.0,0.0,0.0,0.0,0.0,0.0,0.0,0.0,0.0,0.0,0.0,0.0,0.0,0.0,0.0,0.0,0.0,0.0,0.0,0.0,0.0,0.0,0.0,0.0,0.0,0.0,0.0,0.0,0.0,0.0,0.0,0.0,0.0,0.0,0.0,0.0,0.0,0.0,0.0,0.0,0.0,0.0,0.0,0.0,0.0,0.0,0.0,0.0,0.0,0.0,0.0,0.0,0.0,0.0,0.0,0.0,6.0172,6.0172,6.0244,6.0352,5.9115,5.7946,0.0,0.0,0.0,0.0,0.0,0.0,0.0,0.0,0.0,0.0,0.0,0.0,0.0,0.0,0.0,0.0,0.0,0.0,0.0,0.0,0.0,0.0,0.0,0.0,0.0,0.0,0.0,0.0,0.0,0.0,0.0,0.0,0.0,0.0,0.0,0.0,0.0,0.0,0.0,0.0,0.0,0.0,0.0,0.0,0.0,0.0,0.0,0.0,0.0,0.0,0.0,0.0,0.0,0.0,0.0,0.0,0.0,0.0,0.0,0.0,0.0,0.0,0.0,0.0,0.0,0.0,0.0,0.0,0.0,0.0,0.0,0.0,0.0,0.0,0.0,0.0,0.0,0.0,0.0,0.0,0.0,0.0,0.0,0.0,0.0,0.0,0.0,0.0,0.0,0.0,0.0,0.0,0.0,0.0,0.0,0.0,0.0,0.0,0.0,0.0,0.0,0.0,0.0,0.0,0.0,0.0,0.0,0.0,0.0,6.2974,6.2343,6.2112,6.2535,6.1135,5.9801,5.8634,0.0,0.0,0.0,0.0,0.0,0.0,0.0,0.0,0.0,0.0,0.0,0.0,0.0,0.0,0.0,0.0,0.0,0.0,0.0,0.0,0.0,0.0,0.0,0.0,0.0,0.0,0.0,0.0,0.0,0.0,0.0,0.0,0.0,0.0,0.0,0.0,0.0,0.0,0.0,0.0,0.0,0.0,0.0,0.0,0.0,0.0,0.0,0.0,0.0,0.0,0.0,0.0,0.0,0.0,0.0,0.0,0.0,0.0,0.0,0.0,0.0,0.0,0.0,0.0,0.0,0.0,0.0,0.0,0.0,0.0,0.0,0.0,0.0,0.0,0.0,0.0,0.0,0.0,0.0,0.0,0.0,0.0,0.0,0.0,0.0,0.0,0.0,0.0,0.0,0.0,0.0,0.0,0.0,0.0,0.0,0.0,0.0,0.0,0.0,0.0,0.0,0.0,0.0,0.0,0.0,0.0,0.0,0.0,6.6914,6.5425,6.4834,6.5278,6.4076,6.2336,0.0,0.0,0.0,0.0,0.0,0.0,0.0,0.0,0.0,0.0,0.0,0.0,0.0,0.0,0.0,0.0,0.0,0.0,0.0,0.0,0.0,0.0,0.0,0.0,0.0,0.0,0.0,0.0,0.0,0.0,0.0,0.0,0.0,0.0,0.0,0.0,0.0,0.0,0.0,0.0,0.0,0.0,0.0,0.0,0.0,0.0,0.0,0.0,0.0,0.0,0.0,0.0,0.0,0.0,0.0,0.0,0.0,0.0,0.0,0.0,0.0,0.0,0.0,0.0,0.0,0.0,0.0,0.0,0.0,0.0,0.0,0.0,0.0,0.0,0.0,0.0,0.0,0.0,0.0,0.0,0.0,0.0,0.0,0.0,0.0,0.0,0.0,0.0,0.0,0.0,0.0,0.0,0.0,0.0,0.0,0.0,0.0,0.0,0.0,0.0,0.0,0.0,0.0,0.0,0.0,0.0,0.0,0.0,0.0,6.8436,6.9606,6.9372,6.7452,6.6004,6.4323,0.0,0.0,0.0,0.0,0.0,0.0,0.0,0.0,0.0,0.0,0.0,0.0,0.0,0.0,0.0,0.0,0.0,0.0,0.0,0.0,0.0,0.0,0.0,0.0,0.0,0.0,0.0,0.0,0.0,0.0,0.0,0.0,0.0,0.0,0.0,0.0,0.0,0.0,0.0,0.0,0.0,0.0,0.0,0.0,0.0,0.0,0.0,0.0,0.0,0.0,0.0,0.0,0.0,0.0,0.0,0.0,0.0,0.0,0.0,0.0,0.0,0.0,0.0,0.0,0.0,0.0,0.0,0.0,0.0,0.0,0.0,0.0,0.0,0.0,0.0,0.0,0.0,0.0,0.0,0.0,0.0,0.0,0.0,0.0,0.0,0.0,0.0,0.0,0.0,0.0,0.0,0.0,0.0,0.0,0.0,0.0,0.0,0.0,0.0,0.0,0.0,0.0,0.0,0.0,0.0,0.0,0.0,0.0,6.8808,7.0906,7.28,7.3061,7.1389,6.8795,6.6562,0.0,0.0,0.0,0.0,0.0,0.0,0.0,0.0,0.0,0.0,0.0,0.0,0.0,0.0,0.0,0.0,0.0,0.0,0.0,0.0,0.0,0.0,0.0,0.0,0.0,0.0,0.0,0.0,0.0,0.0,0.0,0.0,0.0,0.0,0.0,0.0,0.0,0.0,0.0,0.0,0.0,0.0,0.0,0.0,0.0,0.0,0.0,0.0,0.0,0.0,0.0,0.0,0.0,0.0,0.0,0.0,0.0,0.0,0.0,0.0,0.0,0.0,0.0,0.0,0.0,0.0,0.0,0.0,0.0,0.0,0.0,0.0,0.0,0.0,0.0,0.0,0.0,0.0,0.0,0.0,0.0,0.0,0.0,0.0,0.0,0.0,0.0,0.0,0.0,0.0,0.0,0.0,0.0,0.0,0.0,0.0,0.0,0.0,0.0,0.0,0.0,0.0,0.0,0.0,0.0,0.0,0.0,0.0,7.0703,7.3544,7.5134,7.5946,7.5811,7.1965,6.8863,0.0,0.0,0.0,0.0,0.0,0.0,0.0,0.0,0.0,0.0,0.0,0.0,0.0,0.0,0.0,0.0,0.0,0.0,0.0,0.0,0.0,0.0,0.0,0.0,0.0,0.0,0.0,0.0,0.0,0.0,0.0,0.0,0.0,0.0,0.0,0.0,0.0,0.0,0.0,0.0,0.0,0.0,0.0,0.0,0.0,0.0,0.0,0.0,0.0,0.0,0.0,0.0,0.0,0.0,0.0,0.0,0.0,0.0,0.0,0.0,0.0,0.0,0.0,0.0,0.0,0.0,0.0,0.0,0.0,0.0,0.0,0.0,0.0,0.0,0.0,0.0,0.0,0.0,0.0,0.0,0.0,0.0,0.0,0.0,0.0,0.0,0.0,0.0,0.0,0.0,0.0,0.0,0.0,0.0,0.0,0.0,0.0,0.0,0.0,0.0,0.0,0.0,0.0,0.0,0.0,0.0,0.0,0.0,7.1988,7.4322,7.642,7.7502,7.7502,7.4382,7.1478,0.0,0.0,0.0,0.0,0.0,0.0,0.0,0.0,0.0,0.0,0.0,0.0,0.0,0.0,0.0,0.0,0.0,0.0,0.0,0.0,0.0,0.0,0.0,0.0,0.0,0.0,0.0,0.0,0.0,0.0,0.0,0.0,0.0,0.0,0.0,0.0,0.0,0.0,0.0,0.0,0.0,0.0,0.0,0.0,0.0,0.0,0.0,0.0,6.5734,0.0,0.0,0.0,0.0,0.0,0.0,0.0,0.0,0.0,0.0,0.0,0.0,0.0,0.0,0.0,0.0,0.0,0.0,0.0,0.0,0.0,0.0,0.0,0.0,0.0,0.0,0.0,0.0,0.0,0.0,0.0,0.0,0.0,0.0,0.0,0.0,0.0,0.0,0.0,0.0,0.0,0.0,0.0,0.0,0.0,0.0,0.0,0.0,0.0,0.0,0.0,0.0,0.0,0.0,0.0,0.0,0.0,0.0,0.0,7.3443,7.5642,7.7536,7.8686,7.8923,7.6792,7.4068,0.0,0.0,0.0,0.0,0.0,0.0,0.0,0.0,0.0,0.0,0.0,0.0,0.0,0.0,0.0,0.0,0.0,0.0,0.0,0.0,0.0,0.0,0.0,0.0,0.0,0.0,0.0,0.0,0.0,0.0,0.0,0.0,0.0,0.0,0.0,0.0,0.0,0.0,0.0,0.0,0.0,0.0,0.0,0.0,0.0,0.0,0.0,0.0,0.0,0.0,0.0,0.0,0.0,0.0,0.0,0.0,0.0,0.0,0.0,0.0,0.0,0.0,0.0,0.0,0.0,0.0,0.0,0.0,0.0,0.0,0.0,0.0,0.0,0.0,0.0,0.0,0.0,0.0,0.0,0.0,0.0,0.0,0.0,0.0,0.0,0.0,0.0,0.0,0.0,0.0,0.0,0.0,0.0,0.0,0.0,0.0,0.0,0.0,0.0,0.0,0.0,0.0,0.0,0.0,0.0,0.0,0.0,7.2225,7.483,7.7164,7.8585,7.9634,8.031,7.8822,7.6272,0.0,0.0,0.0,0.0,0.0,0.0,0.0,0.0,0.0,0.0,0.0,0.0,0.0,0.0,0.0,0.0,0.0,0.0,0.0,0.0,0.0,0.0,0.0,0.0,0.0,0.0,0.0,0.0,0.0,0.0,0.0,0.0,0.0,0.0,0.0,0.0,0.0,0.0,0.0,6.3652,6.4984,0.0,0.0,0.0,0.0,0.0,0.0,0.0,0.0,6.6587,0.0,0.0,0.0,0.0,0.0,0.0,0.0,0.0,0.0,0.0,0.0,0.0,0.0,0.0,0.0,0.0,0.0,0.0,0.0,0.0,0.0,0.0,0.0,0.0,0.0,0.0,0.0,0.0,0.0,0.0,0.0,0.0,0.0,0.0,0.0,0.0,0.0,0.0,0.0,0.0,0.0,0.0,0.0,0.0,0.0,0.0,0.0,0.0,0.0,0.0,0.0,0.0,0.0,0.0,0.0,0.0,7.0906,7.324,7.5845,7.8653,7.9566,8.0378,8.1021,7.9058,7.7222,7.5617,0.0,0.0,0.0,0.0,0.0,0.0,0.0,0.0,0.0,0.0,0.0,0.0,0.0,0.0,0.0,0.0,0.0,0.0,0.0,0.0,0.0,0.0,0.0,0.0,0.0,0.0,0.0,0.0,0.0,0.0,0.0,0.0,0.0,0.0,0.0,0.0,0.0,0.0,0.0,6.6713,6.7694,0.0,0.0,0.0,0.0,0.0,0.0,0.0,0.0,6.8782,0.0,0.0,0.0,0.0,0.0,0.0,0.0,0.0,0.0,0.0,0.0,0.0,0.0,0.0,0.0,0.0,0.0,0.0,0.0,0.0,0.0,0.0,0.0,0.0,0.0,0.0,0.0,0.0,0.0,0.0,0.0,0.0,0.0,0.0,0.0,0.0,0.0,0.0,0.0,0.0,0.0,0.0,0.0,0.0,0.0,0.0,0.0,0.0,0.0,0.0,0.0,0.0,0.0,0.0,0.0,7.2326,7.4661,7.686,7.9058,7.9803,8.0547,8.1224,7.9532,7.8036,0.0,0.0,0.0,0.0,0.0,0.0,0.0,0.0,0.0,0.0,0.0,0.0,0.0,0.0,0.0,0.0,0.0,0.0,0.0,0.0,0.0,0.0,0.0,0.0,0.0,0.0,0.0,0.0,0.0,0.0,0.0,0.0,0.0,0.0,0.0,0.0,0.0,0.0,0.0,0.0,6.7755,6.9016,7.0515,0.0,0.0,0.0,0.0,0.0,0.0,7.0738,7.0156,0.0,0.0,0.0,0.0,0.0,0.0,0.0,0.0,0.0,0.0,0.0,0.0,0.0,0.0,0.0,0.0,0.0,0.0,0.0,0.0,0.0,0.0,0.0,0.0,0.0,0.0,0.0,0.0,0.0,0.0,0.0,0.0,0.0,0.0,0.0,0.0,0.0,0.0,0.0,0.0,0.0,0.0,0.0,0.0,0.0,0.0,0.0,0.0,0.0,0.0,0.0,0.0,0.0,0.0,0.0,7.3646,7.5946,7.7841,7.9295,7.9904,8.0547,8.1224,7.9735,7.8409,0.0,0.0,0.0,0.0,0.0,0.0,0.0,0.0,0.0,0.0,0.0,0.0,0.0,0.0,0.0,0.0,0.0,0.0,0.0,0.0,0.0,0.0,0.0,0.0,0.0,0.0,0.0,0.0,0.0,0.0,0.0,0.0,0.0,0.0,0.0,0.0,0.0,0.0,0.0,0.0,0.0,7.0153,7.1783,7.1987,0.0,0.0,0.0,0.0,7.3006,7.2267,0.0,0.0,0.0,0.0,0.0,0.0,0.0,0.0,0.0,0.0,0.0,0.0,0.0,0.0,0.0,0.0,0.0,0.0,0.0,0.0,0.0,0.0,0.0,0.0,0.0,0.0,0.0,0.0,0.0,0.0,0.0,0.0,0.0,0.0,0.0,0.0,0.0,0.0,0.0,0.0,0.0,0.0,0.0,0.0,0.0,0.0,0.0,0.0,0.0,0.0,0.0,0.0,0.0,0.0,0.0,0.0,7.4424,7.6724,7.8551,7.9972,8.0141,8.0547,8.1224,7.9228,7.79,0.0,0.0,0.0,0.0,0.0,0.0,0.0,0.0,0.0,0.0,0.0,0.0,0.0,0.0,0.0,0.0,0.0,0.0,0.0,0.0,0.0,0.0,0.0,0.0,0.0,0.0,0.0,0.0,0.0,0.0,0.0,0.0,0.0,0.0,0.0,0.0,0.0,0.0,0.0,0.0,0.0,7.0927,7.3027,7.3332,7.3569,0.0,0.0,0.0,7.4322,7.4407,0.0,0.0,0.0,0.0,0.0,0.0,0.0,0.0,0.0,0.0,0.0,0.0,0.0,0.0,0.0,0.0,0.0,0.0,0.0,0.0,0.0,0.0,0.0,0.0,0.0,0.0,0.0,0.0,0.0,0.0,0.0,0.0,0.0,0.0,0.0,0.0,0.0,0.0,0.0,0.0,0.0,0.0,0.0,0.0,0.0,0.0,0.0,0.0,0.0,0.0,0.0,0.0,0.0,0.0,0.0,7.244,7.5168,7.7468,7.916,8.0141,8.0209,8.0344,8.0648,7.8923,7.7595,0.0,0.0,0.0,0.0,0.0,0.0,0.0,0.0,0.0,0.0,0.0,0.0,0.0,0.0,0.0,0.0,0.0,0.0,0.0,0.0,0.0,0.0,0.0,0.0,0.0,0.0,0.0,0.0,0.0,0.0,0.0,0.0,0.0,0.0,0.0,0.0,0.0,0.0,0.0,0.0,0.0,0.0,7.3883,7.5202,0.0,0.0,0.0,7.6521,7.6521,0.0,0.0,0.0,0.0,0.0,0.0,0.0,0.0,0.0,0.0,0.0,0.0,0.0,0.0,0.0,0.0,0.0,0.0,0.0,0.0,0.0,0.0,0.0,0.0,0.0,0.0,0.0,0.0,0.0,0.0,0.0,0.0,0.0,0.0,0.0,0.0,0.0,0.0,0.0,0.0,0.0,0.0,0.0,0.0,0.0,0.0,0.0,0.0,0.0,0.0,0.0,0.0,0.0,0.0,0.0,0.0,0.0,7.5676,7.8111,7.9735,8.0445,8.0479,8.0547,8.0716,7.9329,0.0,0.0,0.0,0.0,0.0,0.0,0.0,0.0,0.0,0.0,0.0,0.0,0.0,0.0,0.0,0.0,0.0,0.0,0.0,0.0,0.0,0.0,0.0,0.0,0.0,0.0,0.0,0.0,0.0,0.0,0.0,0.0,0.0,0.0,0.0,0.0,0.0,0.0,0.0,0.0,0.0,0.0,7.3274,7.4965,7.6792,7.8044,0.0,0.0,7.828,7.8247,7.7968,7.7278,0.0,0.0,0.0,0.0,0.0,0.0,0.0,0.0,0.0,0.0,0.0,0.0,0.0,0.0,0.0,0.0,0.0,0.0,0.0,0.0,0.0,0.0,0.0,0.0,0.0,0.0,0.0,0.0,0.0,0.0,0.0,0.0,0.0,0.0,0.0,0.0,0.0,0.0,0.0,0.0,0.0,0.0,0.0,0.0,0.0,0.0,0.0,0.0,0.0,0.0,0.0,0.0,0.0,0.0,0.0,7.5743,7.8619,8.0479,8.119,8.1224,8.1562,8.2205,8.0818,7.9429,0.0,0.0,0.0,0.0,0.0,0.0,0.0,0.0,0.0,0.0,0.0,0.0,0.0,0.0,0.0,0.0,0.0,0.0,0.0,0.0,0.0,0.0,0.0,0.0,0.0,0.0,0.0,0.0,0.0,0.0,0.0,0.0,0.0,0.0,0.0,0.0,0.0,0.0,0.0,0.0,0.0,7.4221,7.6454,7.7468,7.8247,0.0,0.0,7.9025,7.9058,7.8991,7.8646,7.7631,0.0,0.0,0.0,0.0,0.0,0.0,0.0,0.0,0.0,0.0,0.0,0.0,0.0,0.0,0.0,0.0,0.0,0.0,0.0,0.0,0.0,0.0,0.0,0.0,0.0,0.0,0.0,0.0,0.0,0.0,0.0,0.0,0.0,0.0,0.0,0.0,0.0,0.0,0.0,0.0,0.0,0.0,0.0,0.0,0.0,0.0,0.0,0.0,0.0,0.0,0.0,0.0,0.0,7.4718,7.5709,7.9092,8.1021,8.1291,8.1731,8.2103,8.2408,8.1393,8.0242,0.0,0.0,0.0,0.0,0.0,0.0,0.0,0.0,0.0,0.0,0.0,0.0,0.0,0.0,0.0,0.0,0.0,0.0,0.0,0.0,0.0,0.0,0.0,0.0,0.0,0.0,0.0,0.0,6.1375,6.2144,6.1975,0.0,0.0,0.0,0.0,0.0,0.0,0.0,0.0,0.0,0.0,7.483,7.6657,7.8686,0.0,0.0,8.0175,8.0276,7.9837,7.9803,7.953,7.8871,7.7298,0.0,0.0,0.0,0.0,0.0,0.0,0.0,0.0,0.0,0.0,0.0,0.0,0.0,0.0,0.0,0.0,0.0,0.0,0.0,0.0,0.0,0.0,0.0,0.0,0.0,0.0,0.0,0.0,0.0,0.0,0.0,0.0,0.0,0.0,0.0,0.0,0.0,0.0,0.0,0.0,0.0,0.0,0.0,0.0,0.0,0.0,0.0,0.0,0.0,0.0,0.0,0.0,7.4922,7.5709,7.9397,8.1393,8.1629,8.2374,8.2847,8.305,8.234,8.1461,0.0,0.0,0.0,0.0,0.0,0.0,0.0,0.0,0.0,0.0,0.0,0.0,0.0,0.0,0.0,0.0,0.0,0.0,0.0,0.0,0.0,0.0,0.0,0.0,0.0,0.0,0.0,0.0,6.3137,6.3531,6.2821,0.0,0.0,0.0,0.0,0.0,0.0,0.0,0.0,0.0,0.0,7.5777,7.7063,7.9363,8.0784,8.0276,8.0648,8.0784,8.0276,8.0209,8.0106,7.9763,0.0,0.0,0.0,0.0,0.0,0.0,0.0,0.0,0.0,0.0,0.0,0.0,0.0,0.0,0.0,0.0,0.0,0.0,0.0,0.0,0.0,0.0,0.0,0.0,0.0,0.0,0.0,0.0,0.0,0.0,0.0,0.0,0.0,0.0,0.0,0.0,0.0,0.0,0.0,0.0,0.0,0.0,0.0,0.0,0.0,0.0,0.0,0.0,0.0,0.0,0.0,0.0,0.0,0.0,7.5743,7.9397,8.1629,8.234,8.3084,8.3795,8.4505,8.3862,8.3084,8.2306,0.0,0.0,0.0,0.0,0.0,0.0,0.0,0.0,0.0,0.0,0.0,0.0,0.0,0.0,0.0,0.0,0.0,0.0,0.0,0.0,0.0,0.0,0.0,0.0,0.0,0.0,6.3396,6.414,6.4275,0.0,0.0,0.0,0.0,0.0,0.0,0.0,0.0,0.0,0.0,7.4931,7.7096,7.7841,7.9261,8.0276,8.0242,8.0276,8.0276,8.0276,8.0242,8.0276,0.0,0.0,0.0,0.0,0.0,0.0,0.0,0.0,0.0,0.0,0.0,0.0,0.0,0.0,0.0,0.0,0.0,0.0,0.0,0.0,0.0,0.0,0.0,0.0,0.0,0.0,0.0,0.0,0.0,0.0,0.0,0.0,0.0,0.0,0.0,0.0,0.0,0.0,0.0,0.0,7.1297,7.1782,0.0,0.0,0.0,0.0,0.0,0.0,0.0,0.0,0.0,0.0,0.0,0.0,7.5229,7.6555,7.9634,8.1629,8.2408,8.3592,8.437,8.4606,8.4877,8.4306,8.2648,0.0,0.0,0.0,0.0,0.0,0.0,0.0,0.0,0.0,0.0,0.0,0.0,0.0,0.0,0.0,0.0,0.0,0.0,0.0,0.0,0.0,0.0,0.0,0.0,0.0,6.489,0.0,0.0,0.0,0.0,0.0,0.0,0.0,0.0,0.0,0.0,0.0,7.0635,7.2834,7.5303,7.7164,7.7874,8.0107,8.1494,0.0,0.0,0.0,0.0,0.0,0.0,0.0,0.0,0.0,0.0,0.0,0.0,0.0,0.0,7.4979,7.396,7.3233,7.2977,7.3461,0.0,0.0,0.0,0.0,0.0,0.0,0.0,0.0,0.0,0.0,0.0,0.0,0.0,0.0,0.0,0.0,6.611,0.0,0.0,0.0,0.0,0.0,0.0,0.0,0.0,7.2302,7.3792,7.3988,7.4503,7.4344,0.0,7.3084,7.181,0.0,0.0,0.0,0.0,0.0,0.0,0.0,0.0,7.551,7.6961,7.9803,8.1765,8.278,8.4268,8.5012,8.5046,8.552,8.5085,8.3462,8.1155,7.8973,0.0,0.0,0.0,0.0,0.0,0.0,0.0,0.0,0.0,0.0,0.0,0.0,0.0,0.0,0.0,0.0,0.0,0.0,0.0,0.0,0.0,0.0,0.0,6.7048,0.0,0.0,0.0,0.0,0.0,0.0,0.0,0.0,0.0,6.8335,7.0094,7.2056,7.3984,7.6014,7.7638,7.8619,0.0,0.0,0.0,0.0,0.0,0.0,0.0,8.2881,8.3152,8.2884,8.2785,8.2785,8.1864,8.0872,8.0633,0.0,0.0,7.6114,7.491,7.4287,7.4528,7.3772,7.3223,7.3738,7.3548,7.3426,0.0,0.0,0.0,0.0,0.0,0.0,0.0,0.0,7.0671,7.1329,0.0,0.0,0.0,0.0,0.0,0.0,0.0,0.0,0.0,0.0,7.6368,7.708,7.5491,7.573,7.5473,7.4695,7.3375,7.3129,7.398,7.3514,0.0,0.0,0.0,0.0,0.0,0.0,7.6435,7.7063,7.9837,8.1968,8.3389,8.4945,8.5757,8.5757,8.5757,8.5452,8.4708,8.3462,8.1732,7.9556,7.7076,0.0,0.0,0.0,0.0,0.0,0.0,0.0,0.0,0.0,0.0,0.0,0.0,0.0,0.0,0.0,0.0,0.0,0.0,0.0,0.0,6.8793,0.0,0.0,0.0,0.0,0.0,0.0,0.0,0.0,0.0,0.0,6.9485,7.1785,7.4086,7.554,0.0,0.0,0.0,0.0,8.1629,8.2408,8.2543,8.2611,8.2611,8.3186,8.3862,8.4573,0.0,0.0,8.5026,8.4148,8.35,8.4182,8.3466,8.1528,7.7597,7.6197,7.5413,7.4764,7.4594,7.4355,7.4389,7.5003,7.5378,7.0035,0.0,0.0,0.0,0.0,6.7875,6.9298,7.1484,7.1174,7.2208,7.4007,7.287,0.0,0.0,0.0,0.0,0.0,0.0,7.3694,7.4963,7.6953,7.7945,7.8036,7.8684,7.8517,7.7807,7.7367,7.7299,7.76,7.7493,7.6462,7.4718,0.0,0.0,0.0,0.0,7.6911,7.8483,8.0344,8.1765,8.2712,8.4167,8.5215,8.5757,8.579,8.5689,8.5486,8.4645,8.3191,8.1154,7.9313,0.0,0.0,0.0,0.0,0.0,0.0,0.0,0.0,0.0,0.0,0.0,0.0,0.0,0.0,0.0,0.0,0.0,0.0,0.0,6.8725,7.0838,7.1582,0.0,0.0,0.0,0.0,0.0,0.0,0.0,0.0,0.0,7.3071,7.4221,7.5439,0.0,0.0,7.9126,8.0073,8.1731,8.3118,8.3862,0.0,0.0,0.0,8.579,8.5993,8.623,8.623,8.6264,8.6372,8.6107,8.5904,8.6107,8.5531,8.4272,8.2682,8.0783,7.9528,7.9223,7.8443,7.7731,7.7697,7.7493,7.7358,7.5185,7.257,7.0337,6.9827,7.0453,7.0717,7.1987,7.4026,7.3855,7.4748,7.6226,7.5406,7.4737,7.4223,7.3088,0.0,0.0,0.0,7.5708,7.711,7.8245,7.8876,7.9126,7.9566,7.9397,7.8686,7.8382,7.8382,7.8653,7.8653,7.8006,7.6836,0.0,0.0,7.7426,7.7019,7.7532,7.9092,8.0547,8.1799,8.2813,8.4302,8.5452,8.6196,8.623,8.6366,8.6636,8.6196,8.5322,8.3801,8.1834,7.979,0.0,0.0,0.0,0.0,0.0,0.0,0.0,0.0,0.0,0.0,0.0,7.0119,0.0,0.0,0.0,0.0,7.0784,7.0487,7.1616,7.28,0.0,0.0,0.0,0.0,0.0,0.0,0.0,7.05,7.3409,7.5405,7.51,7.6217,7.7232,7.7739,7.8788,8.0006,8.1325,0.0,8.4302,8.5384,8.6332,8.6907,8.6907,8.738,8.7888,8.8192,8.7719,8.7482,8.7719,8.7313,8.7042,8.7177,8.6738,8.6095,8.5621,8.4403,8.2813,8.1224,8.0648,8.0276,7.9701,7.987,8.031,7.9634,7.8582,7.3534,7.2291,7.3734,7.4364,7.5628,7.7096,7.7705,7.8211,7.8452,7.7475,7.6953,7.6604,7.5187,0.0,0.0,7.7016,7.7946,7.9126,7.9837,7.9837,7.9194,7.9329,7.9025,7.8348,7.7671,7.7671,7.8382,7.8382,7.8686,7.9363,7.9363,7.8957,7.8213,7.8111,7.8483,7.9295,8.0682,8.2103,8.3558,8.5012,8.6095,8.6704,8.6839,8.7211,8.7786,8.7854,8.755,8.6704,8.431,8.2174,8.0576,0.0,0.0,0.0,0.0,0.0,0.0,0.0,0.0,0.0,0.0,0.0,0.0,0.0,0.0,0.0,7.5026,0.0,7.5405,7.4424,0.0,0.0,0.0,7.1515,7.1582,7.2868,7.351,7.2834,0.0,0.0,0.0,0.0,7.9228,7.9261,7.9904,8.1156,8.3287,8.4268,8.5351,8.6839,8.7144,8.7245,8.7583,8.8497,8.9444,8.9985,8.9173,8.8598,8.9072,8.8294,8.7685,8.8226,8.7719,8.7279,8.7211,8.711,8.5858,8.1731,8.1866,8.2272,8.1122,8.2103,8.3321,7.8416,7.8111,7.6809,7.653,7.6849,7.7019,7.7634,7.8517,7.8145,7.8375,7.891,7.865,7.8541,7.8503,7.8647,7.8654,7.8366,7.857,7.888,7.916,7.987,8.0107,8.0006,8.1088,8.1528,8.1359,8.119,8.119,8.1359,8.1359,8.146,8.1629,8.1629,8.0953,7.9701,7.9126,7.9498,8.075,8.1663,8.2847,8.4302,8.5283,8.5587,8.5182,8.6298,8.6738,8.6332,8.6873,8.6535,8.5249,8.4471,8.3123,8.0712,7.8961,0.0,0.0,0.0,0.0,0.0,0.0,0.0,0.0,0.0,7.4662,7.5662,0.0,7.7905,0.0,7.7705,7.6724,7.351,7.4931,0.0,0.0,7.351,7.3206,7.3781,7.5168,7.6014,7.5845,7.7468,7.8517,7.8314,7.9261,8.0141,8.0682,8.1426,8.2509,8.4133,8.552,8.6907,8.826,8.9004,8.9613,9.0087,9.0527,9.0797,9.1,9.0729,9.0594,9.0729,9.0527,9.0324,9.0493,9.0391,9.0053,8.9478,8.941,8.8429,8.596,8.5182,8.4708,8.3795,8.4031,8.4539,8.075,8.0445,8.0445,8.0242,7.987,7.8551,7.8213,7.8551,7.8179,7.8213,7.8619,7.8957,7.8923,7.8653,7.9397,7.9498,7.916,7.9464,7.9769,8.0107,8.0851,8.119,8.1224,8.2035,8.2408,8.2408,8.2408,8.2408,8.2408,8.2408,8.2408,8.2408,8.2408,8.2002,8.119,8.0784,8.0987,8.1765,8.2543,8.3625,8.508,8.5554,8.5723,8.5655,8.6467,8.6704,8.6298,8.6704,8.6501,8.5689,8.5012,8.3832,8.197,8.0437,7.8695,0.0,0.0,0.0,0.0,0.0,0.0,0.0,0.0,0.0,0.0,0.0,7.9634,0.0,7.916,0.0,7.5168,7.6386,7.7029,7.6217,7.5743,7.5642,7.6082,7.7164,7.7739,7.7435,7.8686,7.96,7.96,8.0242,8.1088,8.2103,8.2915,8.3795,8.5012,8.6433,8.7922,8.9342,9.0222,9.0966,9.1677,9.1508,9.1406,9.1711,9.1508,9.1305,9.1305,9.1305,9.1305,9.1305,9.1305,9.1169,9.0797,9.0696,9.0222,8.9241,8.8531,8.7617,8.6027,8.6163,8.6771,8.393,8.3355,8.3355,8.2983,8.2205,7.9634,7.8551,7.8551,7.8551,7.8551,7.8619,7.9261,7.916,7.8619,7.9228,7.9532,7.9566,8.0175,8.0818,8.146,8.2205,8.2543,8.2577,8.2644,8.2678,8.2678,8.2678,8.2678,8.2678,8.2678,8.2678,8.2678,8.2712,8.2712,8.2712,8.2813,8.278,8.2712,8.3422,8.4471,8.5892,8.6027,8.6332,8.6873,8.7008,8.7008,8.6907,8.6839,8.6771,8.6704,8.5384,8.4268,8.349,8.1902,8.0202,0.0,7.815,0.0,0.0,0.0,0.0,0.0,0.0,0.0,0.0,8.058,8.0682,7.9228,7.9769,7.96,7.8111,7.8077,7.8111,7.7976,7.801,7.8044,7.8247,7.8855,7.9092,7.8619,7.9701,8.0479,8.0547,8.1122,8.2103,8.3219,8.4167,8.5046,8.5993,8.7279,8.87,9.0222,9.1135,9.1913,9.2387,9.2049,9.188,9.2387,9.2116,9.1575,9.1677,9.1677,9.1643,9.1643,9.1711,9.1609,9.1474,9.144,9.1406,9.1135,9.1,9.0256,8.8328,8.8429,8.9309,8.2746,8.2611,8.2611,8.2543,8.234,8.1799,8.1562,8.1562,8.1562,8.1596,8.1596,8.1731,8.1697,8.1596,8.1731,8.1799,8.1799,8.1934,8.2069,8.2238,8.2949,8.3287,8.3321,8.393,8.42,8.42,8.42,8.42,8.4234,8.4234,8.42,8.42,8.42,8.42,0.0,0.0,0.0,0.0,8.4979,8.579,8.667,8.7279,8.7347,8.6941,8.7482,0.0,8.6941,8.6332,8.5993,8.596,8.5114,0.0,0.0,0.0,0.0,0.0,0.0,0.0,0.0,0.0,0.0,0.0,8.0308,8.0445,8.014,8.0784,8.0682,7.9295,7.9769,7.96,7.8145,7.8551,7.8653,7.8077,7.801,7.845,7.96,7.9938,8.0344,8.146,8.1832,8.1968,8.2002,8.2611,8.3152,8.3592,8.4708,8.6061,8.738,8.8328,8.9647,9.1575,9.259,9.3131,9.3334,9.3165,9.3064,9.3334,9.3267,9.3098,9.3064,9.3098,9.3131,9.3064,9.3131,9.2895,9.2319,9.2218,9.2049,9.144,9.1338,9.1135,9.0594,9.0662,9.0865,8.349,0.0,8.349,8.3524,0.0,8.349,8.349,8.3456,8.2746,8.2408,8.2441,8.278,8.2746,8.2441,8.278,8.2949,8.2949,8.2949,8.3152,8.3558,8.4268,8.464,8.464,8.5418,8.5757,8.5757,8.5757,8.5757,8.5757,8.5757,8.5757,8.5757,8.5757,8.5757,8.5757,8.6163,8.6163,8.5757,8.6163,8.6704,8.7414,8.7786,8.7989,8.7989,0.0,0.0,0.0,0.0,0.0,0.0,0.0,0.0,0.0,0.0,0.0,8.2106,8.1461,8.129,8.1596,8.1563,8.1767,8.2513,8.2816,8.2306,8.0851,8.1393,8.1224,7.9837,8.0648,8.0851,7.9769,8.0276,8.0615,8.0209,8.0175,8.0513,8.1122,8.1291,8.1596,8.2205,8.2408,8.2543,8.2915,8.3253,8.3828,8.4505,8.5283,8.6602,8.8632,8.941,9.0459,9.259,9.33,9.3571,9.3571,9.3571,9.3571,9.3571,9.3571,9.3571,9.3571,9.3571,9.3571,9.3571,9.3571,9.3436,9.3131,9.2996,9.2895,9.2522,9.2421,9.2421,9.2387,9.1846,9.1305,8.4742,8.464,8.4776,8.4843,8.4809,8.4674,8.4708,8.4742,0.0,0.0,0.0,8.3592,8.3558,8.3084,8.3795,8.4099,8.4099,8.4099,8.4437,8.5046,8.5689,8.5993,8.6027,8.6602,8.6907,8.6907,8.6907,8.6907,8.6907,8.6907,8.6907,8.6907,8.6907,8.6974,8.7076,8.711,8.7177,8.7279,8.7144,8.7448,8.8158,8.8192,8.8463,8.9072,8.8497,8.8192,8.8192,8.7482,8.711,8.711,8.6974,8.6636,8.6027,8.5384,8.4708,8.393,8.353,8.3568,8.4044,8.4078,8.414,8.4573,8.4606,8.3727,8.1629,8.2171,8.2035,8.0682,8.1697,8.2171,8.1562,8.2035,8.2408,8.2408,8.2408,8.2408,8.2577,8.2611,8.2644,8.278,8.3016,8.3219,8.3862,8.4099,8.4505,8.5655,8.6129,8.7177,8.9715,9.0696,9.1541,9.3165,9.3537,9.3571,9.3571,9.3571,9.3571,9.3571,9.3571,9.3571,9.3571,9.3571,9.3571,9.3571,9.3571,9.3571,9.3571,9.3537,9.3571,9.3571,9.3571,9.3571,9.347,9.259,9.1812,8.5249,8.4674,8.5351,8.5621,8.5554,8.4911,8.5012,8.552,8.4708,8.4302,8.437,8.5114,8.5418,8.5351,8.6095,8.6433,8.6433,8.6433,8.6501,0.0,8.6704,8.6738,8.6771,8.6873,8.6907,8.6907,8.6907,8.6907,8.6907,8.6941,8.6907,8.6907,8.6907,8.7245,8.7786,8.7854,8.8158,8.8734,8.8158,8.8192,8.8903,8.8903,8.897,8.9072,8.897,8.8937,8.8937,8.8226,8.7854,8.782,8.7245,8.6873,8.6771,8.6636,8.6264,8.5627,8.6406,8.6636,8.6049,8.598,8.5581,8.4679,8.4606,8.393,8.2441,8.2915,8.2983,8.2205,8.2306,8.2374,8.2272,8.2374,8.2509,8.2475,8.2441,8.2678,8.3287,8.3389,8.3659,8.4302,8.4911,8.5317,8.552,8.5993,8.6399,8.6805,8.7516,8.8564,9.0662,9.2286,9.3131,9.3503,9.3571,9.3571,9.3571,9.3571,9.3571,9.3571,9.3571,9.3571,9.3571,9.3571,9.3571,9.3571,9.3571,9.3571,9.3571,9.3571,9.3571,9.3571,9.3571,9.3571,9.3571,9.33,9.3165,8.6196,8.5926,8.623,8.6399,8.6366,8.6027,8.6061,8.6366,8.6027,8.5858,8.5892,8.623,8.6399,8.6433,8.6771,8.6907,8.6907,8.6907,8.6907,8.6941,8.7313,8.7516,8.755,8.7888,8.8091,8.8091,8.8091,8.8091,8.8091,8.8091,8.8091,8.8091,8.8091,8.826,8.8564,8.8598,8.8767,8.9072,8.8767,8.8734,8.9072,8.9106,8.9106,8.9106,8.9106,8.9106,8.9072,8.8767,8.8598,8.8598,8.826,8.8091,8.8091,8.7719,8.7347,8.7008,8.7075,8.7538,8.8285,8.9047,8.8983,8.7641,8.6831,8.5824,8.437,8.3761,8.3355,8.3016,8.3016,8.2983,8.3016,8.3355,8.3625,8.3625,8.3592,8.393,8.4573,8.4742,8.5182,8.6264,8.6738,8.711,8.7516,8.755,8.7888,8.8564,8.9613,9.0797,9.1778,9.2827,9.3571,9.3571,9.3571,9.3571,9.3571,9.3571,9.3571,9.3571,9.3571,9.3571,9.3571,9.3571,9.3571,9.3571,9.3571,9.3571,9.3571,9.3571,9.3571,9.3571,9.3571,9.3571,9.3571,9.3571,9.3571,8.7076,8.6907,8.7076,8.7076,8.6941,8.7279,8.7313,8.7177,8.7313,8.7414,8.738,8.7245,8.7144,8.7177,8.7313,8.7414,8.7414,8.7414,8.738,8.7448,8.7989,8.8226,8.8294,8.8835,8.9106,8.9106,8.9106,8.9106,8.9106,8.9106,8.9106,8.9072,8.9106,8.9106,8.9106,8.9106,8.9106,8.9106,8.9106,8.9106,8.9106,8.9106,8.9106,8.9106,8.9106,8.9106,8.9106,8.9106,8.9106,8.9106,8.9106,8.9106,8.9072,8.8734,8.8497,8.8429,8.8082,8.8426,8.994,9.1224,9.14,9.0085,8.8897,8.782,8.6839,8.5554,8.4606,8.4336,8.4336,8.4302,8.4403,8.4776,8.5148,8.5148,8.5114,8.5351,8.5926,8.6163,8.667,8.782,8.8294,8.8734,8.9106,8.9004,8.9241,9.029,9.1609,9.2387,9.2522,9.3098,9.3537,9.3571,9.3571,9.3571,9.3571,9.3571,9.3571,9.3571,9.3571,9.3571,9.3571,9.3571,9.3571,9.3571,9.3571,9.3571,9.3571,9.3571,9.3571,9.3571,9.3571,9.3571,9.3571,9.3571,9.3571,8.7516,8.7042,8.7617,8.7516,8.7144,8.8294,8.8463,8.8023,8.8598,8.8903,8.8734,8.8192,8.7888,8.7989,8.8564,8.8801,8.8835,8.8869,8.8835,8.8835,8.8937,8.9004,8.8937,8.9038,8.9106,8.9106,8.9106,8.9106,8.9106,8.9106,8.9106,8.9106,8.9106,8.9106,8.9106,8.9106,8.9106,8.9106,8.9106,8.9106,8.9106,8.9106,8.9106,8.9106,8.9106,8.9106,8.9106,8.9106,8.9106,8.9106,8.9106,8.9106,8.914,8.9647,8.9985,8.9951,9.0349,9.0566,9.0611,9.1293,9.1416,9.0015,8.9517,8.9319,8.9579,8.897,8.7955,8.6974,8.6602,8.6535,8.6569,8.6636,8.6602,8.6501,8.6602,8.6738,8.6907,8.7414,8.7854,8.7955,8.9309,9.0053,9.029,9.0628,9.0966,9.1135,9.1981,9.2556,9.2624,9.3098,9.3571,9.3571,9.3571,9.3571,9.3571,9.3571,9.3571,9.3571,9.3571,9.3571,9.3571,9.3571,9.3571,9.3571,9.3571,9.3571,9.3571,9.3571,9.3571,9.3571,9.3571,9.3571,9.3571,9.3571,9.3571,8.8463,8.8226,8.8497,8.8463,8.8328,8.8835,8.8937,8.8666,8.8937,8.9106,8.9072,8.8767,8.8632,8.8666,8.8937,8.9106,8.9106,8.9106,8.9106,8.9106,8.9106,8.9106,8.9106,8.9106,8.9106,8.9106,8.9106,8.9106,8.9106,8.9106,8.9106,8.9106,8.9106,8.9106,8.9106,8.9106,8.9106,8.9106,8.9106,8.9106,8.9106,8.9106,8.9106,8.9106,8.9106,8.9106,8.9106,8.9106,8.9106,8.9106,8.9512,8.9748,8.9748,9.0459,9.0865,9.0945,9.2512,9.3623,9.3994,9.4973,9.4844,9.3236,9.2166,9.1262,9.0302,8.9918,8.9647,8.9478,8.8734,8.8057,8.7651,8.755,8.738,8.7076,8.7279,8.7719,8.8158,8.8835,8.9579,9.0459,9.1135,9.1711,9.2116,9.2455,9.2421,9.2184,9.2624,9.303,9.3131,9.3402,9.3537,9.3571,9.3571,9.3571,9.3571,9.3571,9.3571,9.3571,9.3571,9.3571,9.3571,9.3571,9.3571,9.3605,9.3673,9.3673,9.3571,9.3571,9.3571,9.3673,9.3605,9.3571,9.3571,9.3571,9.3571,8.9106,8.9106,8.9106,8.9106,8.9106,8.9106,8.9106,8.9106,8.9106,8.9106,8.9106,8.9106,8.9106,8.9106,8.9275,8.941,8.9376,8.9376,8.9275,8.9106,8.9106,8.9173,8.9376,8.9376,8.9376,8.9376,8.941,8.9275,8.9106,8.9106,8.9106,8.9106,8.9106,8.9106,8.9106,8.9106,8.9106,8.9106,8.9106,8.9106,8.9106,8.9106,8.9106,8.9106,8.9106,8.9106,8.9106,8.9106,8.9207,8.9376,8.9918,9.029,9.0527,9.1203,9.1609,9.1805,9.4043,9.5658,9.6145,9.7402,9.7514,9.5719,9.4527,9.3187,9.1546,9.1135,9.1372,9.1711,9.0932,9.0019,8.9038,8.8903,8.8666,8.8226,8.8632,8.914,8.9647,9.0357,9.1203,9.2218,9.2455,9.2928,9.3436,9.3503,9.3267,9.2928,9.3199,9.3571,9.3571,9.3571,9.3571,9.3571,9.3571,9.3571,9.3571,9.3571,9.3571,9.3571,9.3571,9.3571,9.3639,9.3706,9.3909,9.4112,9.4079,9.4214,9.4451,9.4349,9.4349,9.4417,9.4383,9.4282,9.4383,9.4011,9.3639,8.9106,8.9106,8.9106,8.9173,8.9106,8.914,8.9106,8.9106,8.9106,8.9106,8.9106,8.9106,8.9106,8.9173,8.9816,9.0121,9.0087,9.0053,8.9681,8.914,8.9106,8.9478,9.0121,9.0154,9.0154,9.0154,9.0154,8.9816,8.9173,8.9106,8.9106,8.9106,8.9106,8.9106,8.914,8.9173,8.9106,8.9173,8.9173,8.9106,8.9106,8.9106,8.9106,8.9106,8.9106,8.9106,8.9106,8.9106,8.9376,9.0087,9.0188,9.0527,9.1203,9.1947,9.2387,9.2585,9.4739,9.5878,9.5684,9.7222,9.7765,9.6464,9.575,9.4841,9.3529,9.3215,9.3131,9.3402,9.3131,9.2489,9.1305,9.0932,9.0899,9.0797,9.1,9.1102,9.1169,9.1744,9.2252,9.2556,9.3064,9.3402,9.3571,9.3571,9.3571,9.347,9.3537,9.3571,9.3571,9.3571,9.3571,9.3571,9.3571,9.3605,9.3605,9.3571,9.3571,9.3639,9.3673,9.3673,9.3842,9.4079,9.4417,9.4789,9.506,9.533,9.5567,9.5804,9.5973,9.6007,9.5872,9.577,9.5466,9.4417,9.4079,8.9376,8.985,9.029,9.0222,8.9816,8.9816,8.9545,8.9106,8.9106,8.9106,8.9106,8.9106,8.9342,8.9816,9.0087,8.9951,8.9512,8.9478,8.9342,8.914,8.9579,8.9951,9.0222,9.0662,9.0899,9.0899,9.0899,9.0527,8.9884,8.9782,8.9545,8.914,8.9106,8.9309,8.9715,8.9782,8.9816,8.9816,8.9782,8.9579,8.9173,8.9106,8.9106,8.9106,8.9106,8.9106,8.9106,8.9106,8.9241,8.9478,9.0357,9.1,9.1372,9.2489,9.3165,9.3365,9.4819,9.6061,9.6755,9.8118,9.8884,9.839,9.7322,9.6205,9.5047,9.4053,9.3571,9.3571,9.3571,9.3233,9.2861,9.2319,9.1812,9.144,9.1744,9.2015,9.215,9.2692,9.3165,9.3199,9.3436,9.3571,9.3571,9.3571,9.3571,9.3571,9.3571,9.3571,9.3571,9.3571,9.3571,9.3571,9.3605,9.374,9.4282,9.3842,9.3605,9.374,9.3876,9.4214,9.4485,9.4958,9.5364,9.5432,9.5838,9.6074,9.621,9.6819,9.7089,9.7495,9.736,9.7089,9.6582,9.5872,9.5398,8.9748,9.0256,9.0729,9.0662,9.0188,8.9951,8.9545,8.9106,8.9106,8.9106,8.914,8.9342,8.9748,9.0222,9.0459,9.0154,8.9545,8.9681,8.9681,8.9512,9.0222,9.0696,9.0966,9.144,9.1643,9.1609,9.1406,9.1,9.0594,9.056,9.029,8.985,8.9782,9.0019,9.0493,9.056,9.056,9.056,9.056,9.029,8.985,8.9782,8.9782,8.9816,8.9782,8.9681,8.9478,8.9681,8.9782,8.9951,9.1,9.1778,9.2116,9.303,9.3571,9.3772,9.5234,9.6519,9.7499,9.9098,9.9977,9.9497,9.8217,9.6895,9.56,9.4329,9.3655,9.3571,9.3571,9.3571,9.3503,9.3098,9.259,9.2184,9.2489,9.2793,9.2827,9.3267,9.3503,9.3537,9.3537,9.3571,9.3571,9.3571,9.3571,9.3571,9.3571,9.3571,9.3571,9.3571,9.3571,9.3571,9.3571,9.3909,9.4383,9.4282,9.4417,9.4586,9.4654,9.4924,9.5229,9.5736,9.6108,9.6176,9.6345,9.6582,9.7056,9.7698,9.8307,9.8882,9.8848,9.8612,9.8104,9.7563,9.7056,9.0222,9.029,9.0256,9.0425,9.0256,8.9681,8.9207,8.9106,8.9106,8.914,8.9275,8.985,9.0154,9.0391,9.0932,9.0865,9.0425,9.0865,9.0763,9.0222,9.0932,9.1643,9.2218,9.2353,9.2421,9.2387,9.1711,9.1372,9.1305,9.1305,9.1237,9.1237,9.1102,9.1102,9.1305,9.1305,9.1305,9.1305,9.1305,9.1237,9.1271,9.1135,9.1102,9.1135,9.1169,9.0932,9.0324,9.0797,9.1034,9.1237,9.1913,9.2759,9.3368,9.3706,9.3673,9.4005,9.5957,9.727,9.7696,9.9712,10.031,9.9801,9.8373,9.7234,9.5887,9.4556,9.3772,9.3571,9.3571,9.3571,9.3571,9.3503,9.3436,9.3537,9.3436,9.3436,9.3503,9.3537,9.3571,9.3571,9.3571,9.3571,9.3571,9.3571,9.3571,9.3571,9.3571,9.3571,9.3571,9.3571,9.3571,9.3605,9.3774,9.418,9.4485,9.4789,9.5229,9.5601,9.5669,9.5804,9.5973,9.6379,9.6785,9.6954,9.7461,9.7732,9.8815,9.9491,10.0202,10.0641,10.0405,10.01,9.9593,9.9051,9.851,9.0966,9.1102,9.2116,9.188,9.1,9.0696,9.0087,8.914,8.9106,8.9376,8.9816,9.0087,9.0493,9.0899,9.1203,9.1169,9.1034,9.1677,9.1406,9.0628,9.1508,9.2184,9.2489,9.2962,9.3233,9.3199,9.2996,9.259,9.215,9.2083,9.1846,9.1406,9.1338,9.1575,9.2049,9.2049,9.2049,9.2049,9.2083,9.1846,9.1372,9.1305,9.1305,9.1338,9.1778,9.1947,9.1711,9.1,9.0797,9.1305,9.2015,9.2996,9.4146,9.4857,9.462,9.3892,9.4795,9.6264,9.7405,9.8313,9.9587,10.0188,9.9587,9.8313,9.6997,9.5635,9.4556,9.3772,9.3571,9.3571,9.3571,9.3571,9.3571,9.3571,9.3571,9.3571,9.3571,9.3571,9.3571,9.3571,9.3571,9.3571,9.3571,9.3571,9.3571,9.3571,9.3571,9.3571,9.3571,9.3571,9.3571,9.3571,9.3977,9.4518,9.5026,9.5669,9.6311,9.6548,9.6582,9.6548,9.6717,9.6954,9.736,9.7834,9.8341,9.9119,10.0202,10.1014,10.1555,10.1927,10.1656,10.1352,10.1047,10.054,9.9931,9.1474,9.1812,9.2759,9.2624,9.1711,9.144,9.0797,8.9985,8.9884,9.0493,9.1203,9.1127,9.1546,9.2294,9.2293,9.1981,9.1846,9.2489,9.2184,9.1338,9.2252,9.2827,9.2895,9.33,9.3571,9.3571,9.3571,9.3334,9.2895,9.2861,9.2624,9.2218,9.215,9.2387,9.2827,9.2861,9.2861,9.2861,9.2861,9.2624,9.2252,9.215,9.215,9.2218,9.2624,9.2827,9.2759,9.1677,9.1372,9.2116,9.2861,9.3876,9.5026,9.5499,9.5263,9.4502,9.4952,9.6062,9.734,9.8121,9.9098,10.0772,10.031,9.8913,9.7598,9.631,9.4902,9.3889,9.3571,9.3571,9.3571,9.3571,9.3571,9.3571,9.3571,9.3571,9.3571,9.3571,9.3571,9.3571,9.3571,9.3571,9.3571,9.3571,9.3571,9.3571,9.3571,9.3571,9.3571,9.3571,9.3571,9.374,9.418,9.4857,9.5669,9.648,9.736,9.7495,9.7461,9.736,9.7394,9.7563,9.7867,9.8476,9.9018,9.9796,10.0811,10.1487,10.2062,10.2333,10.2536,10.2198,10.1758,10.1792,10.1352,9.1744,9.2387,9.2489,9.2522,9.2286,9.1677,9.1305,9.1237,9.1203,9.1928,9.2872,9.2757,9.3133,9.4083,9.3851,9.3196,9.2692,9.3131,9.3131,9.2725,9.3131,9.347,9.347,9.3537,9.3571,9.3571,9.3571,9.3537,9.3436,9.347,9.3571,9.3402,9.3334,9.3537,9.347,9.3571,9.347,9.347,9.3503,9.347,9.3436,9.347,9.347,9.3436,9.3571,9.3639,9.3503,9.3165,9.3064,9.3639,9.4282,9.4992,9.5702,9.5872,9.5702,9.4789,9.5949,9.6611,9.7517,9.8456,9.9695,10.0892,10.031,9.9006,9.7892,9.6622,9.5343,9.4053,9.3689,9.3571,9.3571,9.3571,9.3571,9.3571,9.3571,9.3571,9.3571,9.3571,9.3571,9.3571,9.3571,9.3571,9.3571,9.3571,9.3571,9.3571,9.3571,9.3571,9.3689,9.3689,9.3723,9.4129,9.4823,9.5773,9.6723,9.7732,9.8544,9.8612,9.8476,9.8206,9.7901,9.7935,9.8442,9.9051,9.9559,10.0405,10.1284,10.1927,10.2299,10.2434,10.2536,10.2536,10.2434,10.2299,10.2231,9.1744,9.2455,9.303,9.2928,9.2455,9.2184,9.1812,9.1338,9.1372,9.2518,9.3749,9.3991,9.433,9.5106,9.502,9.4453,9.3535,9.347,9.3537,9.3334,9.347,9.3571,9.3571,9.3571,9.3571,9.3571,9.3571,9.3571,9.3571,9.3571,9.3571,9.3571,9.3571,9.3571,9.3571,9.3571,9.3571,9.3571,9.3571,9.3605,9.3605,9.3605,9.3571,9.3639,9.4112,9.4383,9.4518,9.5296,9.5195,9.4485,9.5127,9.5838,9.6548,9.7022,9.6582,9.5382,9.596,9.6555,9.6621,9.79,9.9242,9.9962,10.0676,10.0396,9.9098,9.7696,9.6415,9.5124,9.4249,9.3571,9.3571,9.3571,9.3571,9.3571,9.3639,9.3639,9.3571,9.3571,9.3571,9.3571,9.3571,9.3571,9.3571,9.3639,9.3639,9.3639,9.3706,9.374,9.396,9.4304,9.4488,9.5327,9.5959,9.698,9.7983,9.8939,9.9627,9.9728,9.9491,9.9051,9.8544,9.807,9.8815,9.9593,9.9796,10.0438,10.1521,10.2401,10.2502,10.2536,10.2536,10.2536,10.2536,10.2434,10.2434,9.2218,9.2928,9.3402,9.3503,9.3402,9.3402,9.33,9.3131,9.2861,9.4052,9.5644,9.5152,9.5398,9.631,9.5708,9.4747,9.3689,9.3571,9.3571,9.3571,9.3571,9.3571,9.3571,9.3571,9.3571,9.3571,9.3605,9.3571,9.3571,9.3571,9.3571,9.3571,9.3571,9.3571,9.3571,9.3571,9.3774,9.3943,9.3808,9.3706,9.4011,9.374,9.3571,9.374,9.4315,9.4789,9.5229,9.5973,9.6108,9.5838,9.6311,9.692,9.7326,9.7732,9.7258,9.577,9.6447,9.6724,9.6906,9.8165,9.9305,10.0092,10.1198,10.098,9.9695,9.8313,9.6895,9.5635,9.4363,9.3655,9.3571,9.3571,9.374,9.4011,9.4045,9.3943,9.3673,9.3571,9.3571,9.3571,9.3571,9.3571,9.3605,9.3842,9.4011,9.4146,9.4485,9.4552,9.4705,9.5081,9.5537,9.6221,9.6656,9.7389,9.8459,9.9537,10.0134,10.0337,10.0371,9.9931,9.9119,9.8476,9.9051,9.9762,10.0032,10.0608,10.1724,10.2536,10.2536,10.2536,10.2536,10.2536,10.2536,10.2536,10.2536,9.2928,9.3706,9.3706,9.4146,9.4721,9.4823,9.5026,9.5499,9.4924,9.5925,9.736,9.6412,9.6063,9.7199,9.5922,9.4825,9.3571,9.374,9.3774,9.3808,9.3808,9.3808,9.3842,9.3842,9.3842,9.3842,9.3774,9.3842,9.3876,9.3774,9.3639,9.3605,9.3571,9.3571,9.3571,9.3571,9.3977,9.4383,9.4079,9.4112,9.4417,9.4079,9.3774,9.3706,9.4518,9.5364,9.5905,9.6244,9.6379,9.6954,9.7597,9.7732,9.7867,9.8003,9.7563,9.6988,9.6974,9.7184,9.7572,9.8582,9.986,10.0515,10.1742,10.1878,10.0235,9.8942,9.7611,9.6029,9.4556,9.3971,9.3605,9.3639,9.4011,9.4485,9.4687,9.4485,9.4011,9.3808,9.3808,9.3774,9.3808,9.3706,9.3977,9.4282,9.4721,9.4823,9.5093,9.5195,9.5502,9.6105,9.6508,9.7077,9.7338,9.7575,9.8744,9.9944,10.0497,10.0811,10.0946,10.0608,9.966,9.9221,9.9491,9.9863,10.01,10.0912,10.2096,10.2536,10.2536,10.2536,10.2536,10.2536,10.2536,10.2536,10.2536,9.3199,9.4485,9.4451,9.489,9.5499,9.5567,9.5669,9.5804,9.5635,9.6187,9.6918,9.6641,9.6298,9.6063,9.5739,9.4825,9.3892,9.4214,9.4451,9.4485,9.4451,9.4451,9.4485,9.4485,9.4485,9.4586,9.506,9.4992,9.462,9.4417,9.418,9.3706,9.3808,9.3605,9.3673,9.3808,9.3943,9.4552,9.4552,9.4586,9.4755,9.462,9.4248,9.3977,9.4924,9.621,9.7258,9.7529,9.7631,9.7631,9.7428,9.7529,9.7901,9.8003,9.7664,9.7258,9.7428,9.7401,9.686,9.8213,9.9427,10.0167,10.1442,10.204,10.2072,10.0652,9.9015,9.7411,9.5815,9.4625,9.3908,9.4146,9.4552,9.489,9.5263,9.5533,9.5364,9.5263,9.5195,9.5127,9.4789,9.4687,9.5161,9.4857,9.5127,9.5466,9.5702,9.5804,9.63,9.691,9.7707,9.8221,9.9038,9.9419,10.0463,10.1291,10.1242,10.1453,10.1521,10.125,10.0303,9.9593,9.9762,9.9931,10.0168,10.1149,10.2231,10.2536,10.2536,10.2536,10.257,10.2671,10.2705,10.2637,10.2671,9.4451,9.5195,9.5229,9.5635,9.6244,9.6311,9.6514,9.6717,9.6447,9.6808,9.7556,9.7432,9.6982,9.6601,9.6491,9.5925,9.5009,9.4992,9.5229,9.5229,9.5195,9.5195,9.533,9.5499,9.5601,9.5364,9.5567,9.5499,9.5296,9.5195,9.5026,9.4654,9.4586,9.4721,9.462,9.4586,9.506,9.5533,9.5398,9.5364,9.5635,9.5364,9.5364,9.5195,9.5939,9.6886,9.7834,9.7969,9.8003,9.7901,9.7631,9.7563,9.7901,9.8003,9.78,9.7597,9.7698,9.7732,9.7454,9.8352,9.9797,10.037,10.1664,10.2604,10.2607,10.1538,10.0016,9.8465,9.665,9.4829,9.4265,9.4789,9.5229,9.5736,9.6041,9.6413,9.6616,9.6244,9.5804,9.5736,9.5432,9.5432,9.5499,9.5567,9.5838,9.6277,9.6853,9.6988,9.7056,9.7711,9.9004,9.9719,10.0759,10.167,10.2539,10.2707,10.2157,10.2198,10.213,10.1724,10.098,10.0337,9.9829,10.0066,10.0371,10.1081,10.1995,10.2231,10.2536,10.2603,10.2705,10.2874,10.3043,10.3179,10.3179,9.5838,9.5973,9.5973,9.6379,9.6988,9.7056,9.736,9.78,9.736,9.7542,9.8355,9.7962,9.7356,9.7365,9.7296,9.67,9.6198,9.5736,9.5702,9.5939,9.5973,9.5973,9.6108,9.6514,9.6717,9.6176,9.6277,9.621,9.6041,9.5939,9.5804,9.577,9.5736,9.5533,9.5702,9.5804,9.5973,9.648,9.621,9.6142,9.6548,9.621,9.6244,9.6514,9.6683,9.7157,9.7834,9.8003,9.8003,9.8003,9.8003,9.8003,9.8003,9.8003,9.8003,9.7969,9.8003,9.7901,9.7923,9.8906,9.9945,10.1009,10.2123,10.3294,10.3322,10.237,10.0899,9.9041,9.7148,9.4874,9.4789,9.5466,9.6074,9.6514,9.6785,9.736,9.7597,9.6853,9.6413,9.6244,9.6176,9.6142,9.6345,9.648,9.6785,9.7089,9.7631,9.8003,9.8003,9.8677,9.9915,10.1289,10.2445,10.2768,10.3571,10.3015,10.2563,10.2536,10.2536,10.2062,10.1487,10.098,10.0472,10.0371,10.0709,10.1318,10.1859,10.2333,10.257,10.2671,10.2976,10.3314,10.3551,10.372,10.3754,9.6142,9.6717,9.6683,9.7123,9.7766,9.78,9.7867,9.7969,9.7834,9.755,9.7216,9.7167,9.6793,9.6419,9.6096,9.6349,9.6514,9.6311,9.6244,9.6616,9.6717,9.6717,9.6853,9.7326,9.7597,9.7698,9.7495,9.7191,9.6785,9.6683,9.648,9.5973,9.5939,9.5939,9.5973,9.5838,9.6311,9.692,9.6819,9.6853,9.6886,9.6853,9.6751,9.6988,9.7022,9.736,9.7834,9.8003,9.8003,9.8003,9.8003,9.8003,9.8003,9.8003,9.8003,9.8003,9.8003,9.8003,9.8126,9.8215,9.9723,10.1292,10.2233,10.3364,10.4247,10.4079,10.2095,9.9603,9.7434,9.5466,9.4823,9.5939,9.6311,9.6514,9.7089,9.78,9.7901,9.7698,9.7428,9.7292,9.7056,9.7028,9.7439,9.7695,9.7797,9.7967,9.8308,9.8215,9.8003,9.9173,10.0807,10.2409,10.4167,10.4229,10.4382,10.3336,10.2536,10.2536,10.2468,10.2231,10.1758,10.1419,10.1149,10.1115,10.0946,10.1149,10.1724,10.2401,10.284,10.3111,10.3449,10.3855,10.4193,10.4498,10.4498,9.7157,9.7461,9.7461,9.7664,9.7969,9.8003,9.8003,9.8003,9.8003,9.7834,9.7563,9.7461,9.7292,9.6988,9.692,9.7157,9.7225,9.7157,9.7157,9.7461,9.7461,9.7461,9.755,9.7867,9.7969,9.8003,9.7969,9.7834,9.7495,9.7461,9.7225,9.7056,9.692,9.6954,9.6954,9.7022,9.7089,9.7428,9.7428,9.7428,9.7428,9.7461,9.7461,9.7461,9.7461,9.7664,9.7867,9.8003,9.8003,9.8003,9.8003,9.8003,9.8003,9.8003,9.8003,9.8003,9.8003,9.8003,9.8003,9.8126,9.9362,10.1752,10.2172,10.341,10.4545,10.4237,10.2159,9.9234,9.8159,9.665,9.6007,9.6819,9.7157,9.7157,9.7597,9.7901,9.8003,9.8003,9.8003,9.8003,9.7698,9.7949,9.8935,9.9004,9.8887,9.8871,9.9042,9.8633,9.8092,9.9241,10.0926,10.3301,10.4941,10.5199,10.4959,10.3563,10.2631,10.2536,10.2502,10.2265,10.2028,10.1724,10.1792,10.1893,10.1724,10.1352,10.1995,10.2773,10.3179,10.3652,10.4261,10.4802,10.5073,10.5276,10.5242,9.8003,9.8003,9.8003,9.8003,9.8003,9.8003,9.8003,9.8003,9.8003,9.8003,9.8003,9.7969,9.7969,9.7969,9.7969,9.7969,9.8003,9.7935,9.7935,9.7901,9.7935,9.8092,9.8425,9.8425,9.8512,9.8633,9.8633,9.8215,9.7901,9.7901,9.7969,9.7834,9.7935,9.8003,9.7901,9.7766,9.8003,9.8003,9.8003,9.8003,9.8003,9.8003,9.8003,9.8003,9.8003,9.7969,9.8003,9.8003,9.8003,9.8003,9.8003,9.8003,9.8003,9.8003,9.8003,9.8003,9.8003,9.8003,9.8003,9.8003,9.9077,10.1252,10.1963,10.3553,10.4485,10.3568,10.1151,9.8392,9.7618,9.7529,9.6886,9.7495,9.7766,9.7698,9.7732,9.8003,9.8003,9.8003,9.8003,9.8003,9.8003,9.8303,9.8924,9.9642,9.9341,9.8906,9.9077,9.8839,9.8405,9.8769,10.0444,10.3503,10.5458,10.6054,10.5389,10.381,10.2947,10.2536,10.2536,10.2401,10.2231,10.2028,10.2198,10.2299,10.213,10.1927,10.257,10.3077,10.3517,10.4126,10.5107,10.5682,10.5885,10.5986,10.602,9.8003,9.8003,9.8003,9.8003,9.8003,9.8003,9.8003,9.8003,9.8003,9.8003,9.8003,9.8003,9.8003,9.8003,9.8003,9.8003,9.8003,9.8003,9.8003,9.8003,9.8003,9.8633,9.956,9.9872,9.9792,9.9676,9.9792,9.9077,9.8425,9.8092,9.8003,9.8003,9.8003,9.8003,9.8003,9.8003,9.8003,9.8003,9.8003,9.8003,9.8003,9.8003,9.8003,9.8003,9.8003,9.8003,9.8003,9.8003,9.8003,9.8003,9.8003,9.8003,9.8003,9.8003,9.8003,9.8003,9.8003,9.8003,9.8003,9.8003,9.8839,10.0628,10.1575,10.2923,10.3553,10.3258,10.1397,10.0031,9.8719,9.7732,9.7292,9.7597,9.7563,9.7597,9.7732,9.7935,9.8003,9.8003,9.8003,9.8003,9.8003,9.8003,9.8303,9.9161,9.9676,9.9362,9.8958,9.8873,9.8871,9.9275,10.0186,10.3137,10.4976,10.5601,10.5389,10.3898,10.3039,10.2502,10.2536,10.2536,10.2401,10.2299,10.2367,10.2401,10.2299,10.2367,10.2806,10.328,10.3821,10.4599,10.5513,10.6156,10.6663,10.6697,10.6595,9.8003,9.8003,9.8003,9.8003,9.8003,9.8003,9.8003,9.8003,9.8003,9.8003,9.8003,9.8003,9.8003,9.8003,9.8003,9.8003,9.8003,9.8003,9.8003,9.8003,9.8126,9.8719,9.9792,10.0214,10.0292,10.1034,10.0516,9.9907,9.9042,9.8425,9.8003,9.8003,9.8003,9.8003,9.8003,9.8003,9.8003,9.8003,9.8003,9.8003,9.8003,9.8003,9.8003,9.8003,9.8003,9.8003,9.8126,9.8003,9.8003,9.8003,9.8003,9.8003,9.8003,9.8003,9.8003,9.8003,9.8003,9.8003,9.8003,9.8003,9.9161,10.0739,10.1893,10.2517,10.2923,10.2584,10.1143,9.9042,9.8425,9.78,9.7597,9.7834,9.7766,9.7732,9.7766,9.7867,9.8003,9.8003,9.8003,9.8003,9.8003,9.8003,9.8092,9.8958,9.956,9.9478,9.9279,9.9111,9.9556,10.0241,10.1352,10.2838,10.4112,10.4889,10.452,10.3687,10.2947,10.2536,10.2536,10.2536,10.2536,10.2502,10.2536,10.2705,10.284,10.2942,10.3111,10.372,10.4464,10.5174,10.5919,10.6392,10.6832,10.6832,10.6764,9.8003,9.8003,9.8003,9.8003,9.8003,9.8003,9.8003,9.8003,9.8003,9.8003,9.8003,9.8003,9.8003,9.8003,9.8003,9.8003,9.8003,9.8003,9.8003,9.8003,9.8215,9.9042,10.0292,10.0815,10.1467,10.2721,10.1963,10.096,9.9907,9.9161,9.8546,9.8003,9.8003,9.8003,9.8003,9.8003,9.8003,9.8003,9.8003,9.8003,9.8003,9.8003,9.8215,9.8425,9.8546,9.8546,9.8512,9.8512,9.8633,9.8003,9.8003,9.8003,9.8003,9.8003,9.8003,9.8003,9.8003,9.8003,9.8003,9.8215,9.9362,10.0925,10.2619,10.2959,10.2822,10.2481,10.1325,9.9077,9.8215,9.8126,9.8003,9.8003,9.7969,9.7935,9.7969,9.8003,9.8003,9.8003,9.8003,9.8003,9.8003,9.8003,9.8337,9.8958,9.9362,9.9595,9.9513,9.9347,9.9812,10.0532,10.1662,10.2734,10.2918,10.3884,10.4281,10.3653,10.2913,10.2502,10.2502,10.2536,10.2536,10.2536,10.2536,10.2806,10.3145,10.3483,10.3618,10.4396,10.5107,10.5614,10.6088,10.6561,10.69,10.69,10.69,9.8003,9.8003,9.8003,9.8003,9.8003,9.8003,9.8003,9.8003,9.8003,9.8003,9.8003,9.8003,9.8003,9.8003,9.8003,9.8003,9.8003,9.8003,9.8003,9.8003,9.8215,9.9478,10.0704,10.1752,10.2619,10.3784,10.3357,10.2103,10.0739,9.9986,9.9042,9.8215,9.8126,9.8003,9.8003,9.8003,9.8003,9.8003,9.8003,9.8003,9.8003,9.8126,9.8512,9.9595,9.9907,9.9907,9.9872,9.956,9.9042,9.8003,9.8003,9.8003,9.8003,9.8003,9.8003,9.8003,9.8003,9.8003,9.8003,9.8126,9.8839,10.0516,10.2414,10.4108,10.3748,10.2685,10.1432,9.9907,9.8633,9.8003,9.8003,9.8003,9.8003,9.8003,9.8003,9.8003,9.8003,9.8003,9.8003,9.8003,9.8138,9.8307,9.8375,9.8989,9.8821,9.8907,9.9161,9.9111,9.9159,9.9874,10.1269,10.2094,10.1892,10.2631,10.4057,10.3618,10.2751,10.2401,10.2367,10.2434,10.2536,10.2536,10.2536,10.297,10.3471,10.3816,10.4392,10.5564,10.6307,10.6018,10.6257,10.6697,10.69,10.69,10.69,9.8003,9.8003,9.8003,9.8003,9.8003,9.8003,9.8003,9.8003,9.8003,9.8003,9.8003,9.8003,9.8003,9.8003,9.8003,9.8003,9.8003,9.8003,9.8003,9.8003,9.8337,9.9279,10.0628,10.1963,10.2923,10.4108,10.4203,10.4072,10.2822,10.1143,9.9986,9.9279,9.8425,9.8126,9.8003,9.8003,9.8003,9.8003,9.8003,9.8003,9.8003,9.8126,9.8633,9.9986,9.9042,9.9362,9.9792,9.9161,9.8512,9.8215,9.8003,9.8003,9.8003,9.8003,9.8003,9.8003,9.8003,9.8003,9.8003,9.8215,9.8958,10.1467,10.3784,10.5234,10.4485,10.3023,10.1646,10.0214,9.8839,9.8003,9.8003,9.8003,9.8003,9.8003,9.8003,9.8003,9.8003,9.8003,9.8273,9.8375,9.8679,9.8984,9.8984,9.9142,9.8634,9.8228,9.8493,9.8769,9.8927,9.9187,10.052,10.1503,10.1291,10.1445,10.2733,10.2631,10.2299,10.2299,10.2299,10.2401,10.2536,10.2536,10.2603,10.3166,10.4222,10.5252,10.6293,10.7277,10.7502,10.6954,10.6795,10.6798,10.69,10.69,10.69,9.8003,9.8003,9.8003,9.8003,9.8003,9.8003,9.8003,9.8003,9.8003,9.8003,9.8003,9.8003,9.8003,9.8003,9.8003,9.8003,9.8003,9.8003,9.8003,9.8003,9.8126,9.8839,10.0066,10.1539,10.2923,10.4108,10.4835,10.4835,10.388,10.1752,10.0628,9.9792,9.8719,9.8092,9.8003,9.8003,9.8003,9.8003,9.8003,9.8003,9.8003,9.8003,9.8633,9.9792,9.9279,9.9244,9.9792,9.9362,9.8633,9.8215,9.8003,9.8003,9.8003,9.8003,9.8003,9.8003,9.8003,9.8003,9.8003,9.8633,9.9676,10.1998,10.3976,10.5017,10.4706,10.3321,10.1787,10.0925,9.9279,9.8003,9.8003,9.8003,9.8003,9.8003,9.8003,9.8003,9.8003,9.8037,9.8476,9.8815,9.9085,9.9254,9.9424,9.9322,9.8679,9.8341,9.8566,9.8812,9.8927,9.9153,9.965,10.0351,10.0768,10.1014,10.1386,10.1893,10.2333,10.2367,10.2367,10.2434,10.2536,10.2603,10.284,10.3505,10.4759,10.6801,10.767,10.7941,10.792,10.7851,10.7465,10.69,10.69,10.69,10.69,9.8003,9.8003,9.8003,9.8003,9.8003,9.8003,9.8003,9.8003,9.8003,9.8003,9.8003,9.8003,9.8003,9.8003,9.8003,9.8003,9.8003,9.8003,9.8003,9.8003,9.8003,9.8839,9.9986,10.1252,10.2517,10.4297,10.5017,10.5017,10.4521,10.2619,10.136,10.01,9.8958,9.8003,9.8003,9.8003,9.8003,9.8003,9.8003,9.8003,9.8003,9.8003,9.8753,9.9676,9.9595,9.9478,9.9907,9.9595,9.8753,9.8126,9.8003,9.8003,9.8003,9.8003,9.8003,9.8003,9.8003,9.8037,9.816,9.9279,10.0586,10.1998,10.3976,10.4926,10.536,10.4072,10.2276,10.1539,9.9792,9.8303,9.8126,9.8003,9.8003,9.8003,9.8003,9.8003,9.8003,9.8037,9.8442,9.9187,9.9288,9.9322,9.9593,9.9559,9.8848,9.8578,9.8815,9.8882,9.8882,9.8916,9.9153,9.9897,10.0438,10.0641,10.1081,10.1893,10.2367,10.2401,10.2468,10.257,10.2908,10.3246,10.3483,10.385,10.5389,10.7462,10.7862,10.8173,10.7978,10.7886,10.7332,10.69,10.69,10.7134,10.7366,9.8839,9.8003,9.8003,9.8003,9.8003,9.8003,9.8003,9.8003,9.8003,9.8003,9.8003,9.8003,9.8003,9.8003,9.8003,9.8003,9.8003,9.8003,9.8003,9.8003,9.8126,9.8215,9.9161,10.0404,10.1646,10.2923,10.4203,10.5575,10.575,10.3456,10.2207,10.1143,9.9279,9.8126,9.8003,9.8003,9.8003,9.8003,9.8003,9.8003,9.8003,9.8126,9.8633,9.9872,9.9244,9.9161,9.9792,9.9244,9.8512,9.8126,9.8003,9.8003,9.8003,9.8003,9.8003,9.8003,9.8037,9.8273,9.8544,9.9435,10.0241,10.1893,10.3357,10.4743,10.5874,10.4706,10.3456,10.2172,10.0404,9.9042,9.8303,9.8126,9.8003,9.8003,9.8003,9.8003,9.8003,9.8037,9.8375,9.9424,9.9897,9.9897,10.0066,10.0066,9.9457,9.8578,9.8645,9.8815,9.8815,9.8578,9.8679,9.966,10.0303,10.0405,10.0777,10.1656,10.1961,10.1893,10.2299,10.2739,10.3179,10.3754,10.4363,10.4866,10.643,10.7896,10.8312,10.8535,10.8184,10.7756,10.7233,10.69,10.69,10.7596,10.8528,9.9279,9.8003,9.8003,9.8003,9.8003,9.8003,9.8003,9.8003,9.8003,9.8003,9.8003,9.8003,9.8003,9.8003,9.8003,9.8003,9.8003,9.8003,9.8003,9.8126,9.8633,9.8546,9.8753,9.9792,10.1432,10.2481,10.3651,10.4926,10.6084,10.3553,10.1963,10.0925,9.9676,9.9042,9.8753,9.8425,9.8003,9.8003,9.8003,9.8003,9.8003,9.8126,9.8425,9.8839,9.8753,9.8425,9.8839,9.8633,9.8003,9.8003,9.8003,9.8003,9.8003,9.8003,9.8003,9.8037,9.8341,9.8612,9.8916,9.9424,10.0377,10.1704,10.2934,10.4427,10.5663,10.4926,10.4072,10.2822,10.1252,9.9986,9.8958,9.8633,9.8003,9.8003,9.8126,9.8126,9.8003,9.8037,9.8668,9.9593,10.0371,10.0405,10.0506,10.0371,10.0134,9.9254,9.8442,9.8645,9.8815,9.8544,9.851,9.9424,10.0202,10.0337,10.0743,10.1453,10.1622,10.1419,10.213,10.3009,10.3618,10.4261,10.5005,10.5815,10.7253,10.8342,10.8901,10.8964,10.8238,10.7659,10.7134,10.69,10.6866,10.7954,10.9089,9.9244,9.8126,9.8003,9.8003,9.8003,9.8003,9.8003,9.8003,9.8003,9.8003,9.8003,9.8003,9.8003,9.8003,9.8003,9.8003,9.8092,9.8092,9.8337,9.8633,9.956,9.9161,9.9362,10.0516,10.1539,10.2414,10.3456,10.4614,10.5874,10.3553,10.1681,10.0704,10.01,9.9792,9.9362,9.8924,9.8337,9.8126,9.8003,9.8003,9.8003,9.8003,9.8303,9.8546,9.8303,9.8337,9.8546,9.8215,9.8003,9.8003,9.8003,9.8003,9.8003,9.8003,9.8003,9.8172,9.8645,9.8984,9.9322,9.9829,10.0493,10.1473,10.1886,10.3769,10.5017,10.5144,10.4614,10.3456,10.1998,10.096,9.9907,9.8958,9.8003,9.8126,9.8215,9.8215,9.8126,9.8397,9.8973,9.9752,10.0371,10.0709,10.1047,10.1014,10.0608,9.9829,9.9085,9.9018,9.9051,9.8612,9.8713,9.9356,9.9965,10.0269,10.0777,10.1352,10.2028,10.2062,10.2705,10.3517,10.4126,10.4802,10.5614,10.6588,10.7836,10.8552,10.8494,10.8401,10.8273,10.7596,10.7034,10.69,10.69,10.8179,10.9213,9.9244,9.8003,9.8003,9.8003,9.8003,9.8003,9.8003,9.8003,9.8003,9.8003,9.8003,9.8003,9.8003,9.8003,9.8003,9.8003,9.8303,9.8958,9.9362,9.9986,10.0815,10.0404,10.0327,10.0516,10.136,10.2103,10.2923,10.4108,10.536,10.3553,10.2207,10.1681,10.096,10.0516,10.0214,9.9676,9.8958,9.8337,9.8126,9.8003,9.8003,9.8003,9.8425,9.8958,9.8546,9.8633,9.9042,9.8546,9.8215,9.8003,9.8003,9.8003,9.8003,9.8003,9.8003,9.8104,9.8679,9.9288,9.9796,10.01,10.0588,10.1283,10.1665,10.2633,10.4192,10.5144,10.5017,10.4072,10.2619,10.1467,10.0214,9.9161,9.8337,9.8126,9.8337,9.8425,9.8425,9.8595,9.9207,9.9989,10.0608,10.1216,10.1555,10.1352,10.0878,10.0235,9.9829,9.982,9.9457,9.9051,9.9153,9.9829,10.0202,10.0641,10.0709,10.1183,10.2096,10.284,10.3483,10.4193,10.4971,10.5682,10.6325,10.6996,10.7591,10.7659,10.7465,10.7465,10.7727,10.7499,10.69,10.69,10.7134,10.8307,10.9548,9.9279,9.8126,9.8003,9.8003,9.8003,9.8003,9.8003,9.8003,9.8003,9.8003,9.8003,9.8003,9.8003,9.8003,9.8003,9.8003,9.8126,9.9362,9.9986,10.0404,10.2068,10.1752,10.1325,10.0925,10.1575,10.1998,10.2517,10.3357,10.4614,10.4297,10.3023,10.2923,10.1998,10.1893,10.1681,10.1252,10.0214,9.9161,9.8425,9.8126,9.8003,9.8003,9.8839,9.9676,9.9042,9.9478,9.9986,9.9161,9.8753,9.8126,9.8003,9.8003,9.8003,9.8003,9.8003,9.8138,9.8679,9.9187,9.9627,10.0032,10.052,10.0978,10.1207,10.2058,10.3244,10.4297,10.4926,10.4926,10.3258,10.1787,10.0516,9.9362,9.8633,9.8003,9.8303,9.8719,9.8839,9.8873,9.9465,10.0192,10.0912,10.1622,10.1792,10.1555,10.1445,10.1097,10.1111,10.1257,10.0646,9.9897,10.0066,10.0574,10.0878,10.1149,10.1183,10.1386,10.2367,10.3382,10.4227,10.4971,10.5783,10.6257,10.6629,10.6798,10.7,10.7134,10.7366,10.7,10.7,10.7034,10.7,10.69,10.7233,10.8273,10.9548,9.9161,9.8003,9.8003,9.8003,9.8003,9.8003,9.8003,9.8003,9.8003,9.8003,9.8003,9.8003,9.8003,9.8003,9.8003,9.8003,9.8425,9.9362,10.0404,10.0404,10.2822,10.3223,10.2721,10.2414,10.2517,10.2414,10.2517,10.3059,10.4012,10.4108,10.3976,10.4391,10.3976,10.3687,10.3456,10.2414,10.1143,9.9792,9.8633,9.8003,9.8003,9.8215,9.8633,10.01,10.0179,10.0179,10.0404,10.0214,9.956,9.8753,9.8215,9.8337,9.8003,9.8003,9.8003,9.8104,9.8544,9.8916,9.939,9.9863,9.9829,10.0112,10.0361,10.1343,10.2493,10.3856,10.4743,10.536,10.4072,10.2619,10.136,10.0183,9.9249,9.9057,9.9246,9.9314,9.9207,9.9343,9.9865,10.054,10.125,10.1859,10.1953,10.1844,10.2665,10.2268,10.2746,10.304,10.2627,10.1763,10.1281,10.1655,10.2052,10.2256,10.1893,10.2198,10.2908,10.3855,10.4802,10.5513,10.6156,10.6528,10.6866,10.7,10.7267,10.7366,10.7465,10.7465,10.7596,10.7499,10.7366,10.7,10.7366,10.8179,10.9089,9.8337,9.8003,9.8003,9.8003,9.8003,9.8003,9.8003,9.8003,9.8003,9.8003,9.8003,9.8003,9.8003,9.8003,9.8003,9.8003,9.8303,9.9478,10.0593,10.1752,10.3553,10.4297,10.3748,10.3687,10.3651,10.3456,10.3123,10.3023,10.4072,10.4427,10.4926,10.5575,10.5144,10.4521,10.4427,10.3123,10.1752,10.0404,9.9042,9.8215,9.8003,9.8337,9.8958,10.0404,10.1034,10.1467,10.1893,10.2068,10.1034,9.9907,9.9676,9.9042,9.8126,9.8003,9.8003,9.807,9.8273,9.8578,9.9119,9.966,9.9829,9.9931,10.0282,10.0805,10.1716,10.3315,10.4557,10.5144,10.4962,10.3625,10.2384,10.1185,10.0171,10.0138,10.005,9.9921,9.9752,9.9999,10.0337,10.0878,10.1555,10.1886,10.2013,10.2552,10.3555,10.4362,10.5339,10.5755,10.5685,10.4954,10.3245,10.3436,10.3573,10.357,10.3132,10.3111,10.3855,10.4532,10.5445,10.6054,10.6528,10.6697,10.7034,10.7366,10.7596,10.8049,10.8401,10.8655,10.8655,10.8307,10.7465,10.7034,10.69,10.7499,10.8273,9.8003,9.8003,9.8003,9.8003,9.8003,9.8003,9.8003,9.8003,9.8003,9.8003,9.8003,9.8003,9.8003,9.8003,9.8003,9.8003,9.8215,9.9478,10.0815,10.2172,10.3456,10.4614,10.4835,10.4614,10.4297,10.3976,10.3651,10.3651,10.4203,10.5144,10.575,10.6206,10.5449,10.5144,10.4926,10.3748,10.2414,10.1069,9.9595,9.8633,9.8092,9.8337,9.9478,10.0925,10.1858,10.2414,10.3123,10.3357,10.1998,10.0439,9.9478,9.8839,9.8126,9.8003,9.8206,9.8307,9.8375,9.8307,9.8984,9.9525,9.9863,9.9863,9.9762,10.0103,10.1879,10.3269,10.401,10.4716,10.5322,10.4297,10.3677,10.2662,10.1705,10.1317,10.1059,10.0758,10.0937,10.1149,10.1149,10.1081,10.1589,10.1825,10.192,10.1911,10.2926,10.4619,10.5811,10.6883,10.7133,10.7803,10.6199,10.5145,10.5297,10.5055,10.464,10.4563,10.487,10.5547,10.6286,10.6392,10.6697,10.6798,10.7,10.7824,10.8528,10.9337,10.967,10.9913,10.9337,10.8873,10.7824,10.69,10.69,10.69,10.7596,9.8003,9.8003,9.8003,9.8003,9.8003,9.8003,9.8003,9.8003,9.8003,9.8003,9.8003,9.8003,9.8003,9.8003,9.8003,9.8003,9.8337,9.9042,10.0404,10.1858,10.3223,10.4203,10.4926,10.5144,10.4521,10.4203,10.3976,10.3784,10.3784,10.4798,10.5663,10.6169,10.6376,10.6376,10.5961,10.4926,10.3357,10.1893,10.0516,9.9279,9.8512,9.8003,9.9595,10.1034,10.2172,10.2923,10.388,10.4072,10.2923,10.136,9.9676,9.8958,9.8561,9.8384,9.8544,9.8713,9.8815,9.8848,9.9119,9.9559,9.9525,9.9424,9.9288,10.02,10.1981,10.2784,10.3511,10.4486,10.52,10.5573,10.5068,10.433,10.3385,10.2966,10.2558,10.2472,10.2814,10.2835,10.231,10.2004,10.192,10.2191,10.1825,10.1818,10.3118,10.4689,10.5698,10.6701,10.7663,10.8791,10.8746,10.7596,10.7146,10.6749,10.628,10.6333,10.6586,10.671,10.738,10.7162,10.7,10.69,10.7465,10.8747,10.946,11.0357,11.0909,11.114,11.0441,10.967,10.8621,10.7727,10.69,10.69,10.69,9.8003,9.8003,9.8003,9.8003,9.8003,9.8003,9.8003,9.8003,9.8003,9.8003,9.8003,9.8003,9.8003,9.8003,9.8003,9.8003,9.8126,9.8633,9.9244,10.0516,10.2172,10.3456,10.4614,10.5449,10.4391,10.388,10.3553,10.3553,10.3456,10.4297,10.5324,10.6291,10.6376,10.6376,10.6169,10.5017,10.3784,10.2311,10.0925,9.956,9.8425,9.8215,9.8958,10.0327,10.1681,10.2822,10.4072,10.5449,10.4835,10.3357,10.1143,9.9986,9.945,9.9197,9.922,9.9254,9.9322,9.9457,9.966,10.0202,10.0303,10.0066,10.0235,10.0836,10.2007,10.2361,10.3431,10.4991,10.5876,10.701,10.6715,10.5811,10.5031,10.5485,10.5409,10.6004,10.6378,10.559,10.4762,10.4008,10.3414,10.2921,10.1995,10.2825,10.4557,10.5889,10.6736,10.7698,10.8989,11.0093,11.0754,10.9799,10.8663,10.8835,10.8557,10.8617,10.8696,10.8728,10.8263,10.7528,10.7134,10.69,10.7596,10.8873,11.0357,11.1483,11.1932,11.2264,11.1821,11.0909,10.967,10.8655,10.7596,10.6934,10.6967]},{"header":{"parameterUnit":"m.s-1","parameterCategory":1,"la1":31.0,"la2":29.5877,"lo1":-88.7671,"lo2":-86.6584,"dx":0.0162,"dy":0.0185,"nx":115,"ny":88,"refTime":"2023-01-12T18:00:00:Z","depth":0,"parameterNumber":3,"parameterNumberName":"V-component_of_WINDS"},"data":[0.0,0.0,0.0,0.0,0.0,0.0,0.0,0.0,0.0,0.0,0.0,0.0,0.0,0.0,0.0,0.0,0.0,0.0,0.0,0.0,0.0,0.0,0.0,0.0,0.0,0.0,0.0,0.0,0.0,0.0,0.0,0.0,0.0,0.0,0.0,0.0,0.0,0.0,0.0,0.0,0.0,0.0,0.0,0.0,0.0,0.0,0.0,0.0,0.0,0.0,0.0,0.0,0.0,0.0,0.0,0.0,0.0,0.0,0.0,0.0,0.0,0.0,0.0,0.0,0.0,0.0,0.0,0.0,0.0,0.0,0.0,0.0,0.0,0.0,0.0,0.0,0.0,0.0,0.0,0.0,0.0,0.0,0.0,0.0,0.0,0.0,0.0,0.0,0.0,0.0,0.0,0.0,0.0,0.0,0.0,0.0,0.0,0.0,0.0,0.0,0.0,0.0,0.0,0.0,0.0,0.0,0.0,0.0,0.0,0.0,0.0,0.0,0.0,0.0,0.0,0.0,0.0,0.0,0.0,0.0,0.0,0.0,0.0,0.0,0.0,0.0,0.0,0.0,0.0,0.0,0.0,0.0,0.0,0.0,0.0,0.0,0.0,0.0,0.0,0.0,0.0,0.0,0.0,0.0,0.0,0.0,0.0,0.0,0.0,0.0,0.0,0.0,0.0,0.0,0.0,0.0,0.0,0.0,0.0,0.0,0.0,0.0,0.0,0.0,0.0,0.0,0.0,0.0,0.0,0.0,0.0,0.0,0.0,0.0,0.0,0.0,0.0,0.0,0.0,0.0,0.0,0.0,0.0,0.0,0.0,0.0,0.0,0.0,0.0,0.0,0.0,0.0,0.0,0.0,0.0,0.0,0.0,0.0,0.0,0.0,0.0,0.0,0.0,0.0,0.0,0.0,0.0,0.0,0.0,0.0,0.0,0.0,0.0,0.0,0.0,0.0,0.0,0.0,0.0,0.0,0.0,0.0,0.0,0.0,0.0,0.0,0.0,0.0,0.0,0.0,0.0,0.0,0.0,0.0,0.0,0.0,0.0,0.0,0.0,0.0,0.0,0.0,0.0,0.0,0.0,0.0,0.0,0.0,0.0,0.0,0.0,0.0,0.0,0.0,0.0,0.0,0.0,0.0,0.0,0.0,0.0,0.0,0.0,0.0,0.0,0.0,0.0,0.0,0.0,0.0,0.0,0.0,0.0,0.0,0.0,0.0,0.0,0.0,0.0,0.0,0.0,0.0,0.0,0.0,0.0,0.0,0.0,0.0,0.0,0.0,0.0,0.0,0.0,0.0,0.0,0.0,0.0,0.0,0.0,0.0,0.0,0.0,0.0,0.0,0.0,0.0,0.0,0.0,0.0,0.0,0.0,0.0,0.0,0.0,0.0,0.0,0.0,0.0,0.0,0.0,0.0,0.0,0.0,0.0,0.0,0.0,0.0,0.0,0.0,0.0,0.0,0.0,0.0,0.0,0.0,0.0,0.0,0.0,0.0,0.0,0.0,0.0,0.0,0.0,0.0,0.0,0.0,0.0,0.0,0.0,0.0,0.0,0.0,0.0,0.0,0.0,0.0,0.0,0.0,0.0,0.0,0.0,0.0,0.0,0.0,0.0,0.0,0.0,0.0,0.0,0.0,0.0,0.0,0.0,0.0,0.0,0.0,0.0,0.0,0.0,0.0,0.0,0.0,0.0,0.0,0.0,0.0,0.0,0.0,0.0,0.0,0.0,0.0,0.0,0.0,0.0,0.0,0.0,0.0,0.0,0.0,0.0,0.0,0.0,0.0,0.0,0.0,0.0,0.0,0.0,0.0,0.0,0.0,0.0,0.0,0.0,0.0,0.0,0.0,0.0,0.0,0.0,0.0,0.0,0.0,0.0,0.0,0.0,0.0,0.0,0.0,0.0,0.0,0.0,0.0,0.0,0.0,0.0,0.0,0.0,0.0,0.0,0.0,0.0,0.0,0.0,0.0,0.0,0.0,0.0,0.0,0.0,0.0,0.0,0.0,0.0,0.0,0.0,0.0,0.0,0.0,0.0,0.0,0.0,0.0,0.0,0.0,0.0,0.0,0.0,0.0,0.0,0.0,0.0,0.0,0.0,0.0,0.0,0.0,0.0,0.0,0.0,0.0,0.0,0.0,0.0,0.0,0.0,0.0,0.0,0.0,0.0,0.0,0.0,0.0,0.0,0.0,0.0,0.0,0.0,0.0,0.0,0.0,0.0,0.0,0.0,0.0,0.0,0.0,0.0,0.0,0.0,0.0,0.0,0.0,0.0,0.0,0.0,0.0,0.0,0.0,0.0,0.0,0.0,0.0,0.0,0.0,0.0,0.0,0.0,0.0,0.0,0.0,0.0,0.0,0.0,0.0,0.0,0.0,0.0,0.0,0.0,0.0,0.0,0.0,0.0,0.0,0.0,0.0,0.0,0.0,0.0,0.0,0.0,0.0,0.0,0.0,0.0,0.0,0.0,0.0,0.0,0.0,0.0,0.0,0.0,0.0,0.0,0.0,0.0,0.0,0.0,0.0,0.0,0.0,0.0,0.0,0.0,0.0,0.0,0.0,0.0,0.0,0.0,0.0,0.0,0.0,0.0,0.0,0.0,0.0,0.0,0.0,0.0,0.0,0.0,0.0,0.0,0.0,0.0,0.0,0.0,0.0,0.0,0.0,0.0,0.0,0.0,0.0,0.0,0.0,0.0,0.0,0.0,0.0,0.0,0.0,0.0,0.0,0.0,0.0,0.0,0.0,0.0,0.0,0.0,0.0,0.0,0.0,0.0,0.0,0.0,0.0,0.0,0.0,0.0,0.0,0.0,0.0,0.0,0.0,0.0,0.0,0.0,0.0,0.0,0.0,0.0,0.0,0.0,0.0,0.0,0.0,0.0,0.0,0.0,0.0,0.0,0.0,0.0,0.0,0.0,0.0,0.0,0.0,0.0,0.0,0.0,0.0,0.0,0.0,0.0,0.0,0.0,0.0,0.0,0.0,0.0,0.0,0.0,0.0,0.0,0.0,0.0,0.0,0.0,0.0,0.0,0.0,0.0,0.0,0.0,0.0,0.0,0.0,0.0,0.0,0.0,0.0,0.0,0.0,0.0,0.0,0.0,0.0,0.0,0.0,0.0,0.0,0.0,0.0,0.0,0.0,0.0,0.0,0.0,0.0,0.0,0.0,0.0,0.0,0.0,0.0,0.0,0.0,0.0,0.0,0.0,0.0,0.0,0.0,0.0,0.0,0.0,0.0,0.0,0.0,0.0,0.0,0.0,0.0,0.0,0.0,0.0,0.0,0.0,0.0,0.0,0.0,0.0,0.0,0.0,0.0,0.0,0.0,0.0,0.0,0.0,0.0,0.0,0.0,0.0,0.0,0.0,0.0,0.0,0.0,0.0,0.0,0.0,0.0,0.0,0.0,0.0,0.0,0.0,0.0,0.0,0.0,0.0,0.0,0.0,0.0,0.0,0.0,0.0,0.0,0.0,0.0,0.0,0.0,0.0,0.0,0.0,0.0,0.0,0.0,0.0,0.0,0.0,0.0,0.0,0.0,0.0,0.0,0.0,0.0,0.0,0.0,0.0,0.0,0.0,0.0,0.0,0.0,0.0,0.0,0.0,0.0,0.0,0.0,0.0,0.0,0.0,0.0,0.0,0.0,0.0,0.0,0.0,0.0,0.0,0.0,0.0,0.0,0.0,0.0,0.0,0.0,0.0,0.0,0.0,0.0,0.0,0.0,0.0,0.0,0.0,0.0,0.0,0.0,0.0,0.0,0.0,0.0,0.0,0.0,0.0,0.0,0.0,0.0,0.0,0.0,0.0,0.0,0.0,0.0,0.0,0.0,0.0,0.0,0.0,0.0,0.0,0.0,0.0,0.0,0.0,0.0,0.0,0.0,0.0,0.0,0.0,0.0,0.0,0.0,0.0,0.0,0.0,0.0,0.0,0.0,0.0,0.0,0.0,0.0,0.0,0.0,0.0,0.0,0.0,0.0,0.0,0.0,0.0,0.0,0.0,0.0,0.0,0.0,0.0,0.0,0.0,0.0,0.0,0.0,0.0,0.0,0.0,0.0,0.0,0.0,0.0,0.0,0.0,0.0,0.0,0.0,0.0,0.0,0.0,0.0,0.0,0.0,0.0,0.0,0.0,0.0,0.0,0.0,0.0,0.0,0.0,0.0,0.0,0.0,0.0,0.0,0.0,0.0,0.0,0.0,0.0,0.0,0.0,0.0,0.0,0.0,0.0,0.0,0.0,0.0,0.0,0.0,0.0,-2.7123,0.0,0.0,0.0,0.0,0.0,0.0,0.0,0.0,0.0,0.0,0.0,0.0,0.0,0.0,0.0,0.0,0.0,0.0,0.0,0.0,0.0,0.0,0.0,0.0,0.0,0.0,0.0,0.0,0.0,0.0,0.0,0.0,0.0,0.0,0.0,0.0,0.0,0.0,0.0,0.0,0.0,0.0,0.0,0.0,0.0,0.0,0.0,0.0,0.0,0.0,0.0,0.0,0.0,0.0,0.0,0.0,0.0,0.0,0.0,0.0,0.0,0.0,0.0,0.0,0.0,0.0,0.0,0.0,0.0,0.0,0.0,0.0,0.0,0.0,0.0,0.0,0.0,0.0,0.0,0.0,0.0,0.0,0.0,0.0,0.0,0.0,0.0,0.0,0.0,0.0,0.0,0.0,0.0,0.0,0.0,0.0,0.0,0.0,0.0,0.0,0.0,0.0,0.0,0.0,0.0,0.0,0.0,0.0,0.0,0.0,-2.8315,-2.8113,-2.8113,-2.782,-2.7215,0.0,0.0,0.0,0.0,0.0,0.0,0.0,0.0,0.0,0.0,0.0,0.0,0.0,0.0,0.0,0.0,0.0,0.0,0.0,0.0,0.0,0.0,0.0,0.0,0.0,0.0,0.0,0.0,0.0,0.0,0.0,0.0,0.0,0.0,0.0,0.0,0.0,0.0,0.0,0.0,0.0,0.0,0.0,0.0,0.0,0.0,0.0,0.0,0.0,0.0,0.0,0.0,0.0,0.0,0.0,0.0,0.0,0.0,0.0,0.0,0.0,0.0,0.0,0.0,0.0,0.0,0.0,0.0,0.0,0.0,0.0,0.0,0.0,0.0,0.0,0.0,0.0,0.0,0.0,0.0,0.0,0.0,0.0,0.0,0.0,0.0,0.0,0.0,0.0,0.0,0.0,0.0,0.0,0.0,0.0,0.0,0.0,0.0,0.0,0.0,0.0,0.0,0.0,0.0,0.0,0.0,0.0,0.0,0.0,0.0,0.0,0.0,-2.8535,-2.815,-2.7343,0.0,0.0,0.0,0.0,0.0,0.0,0.0,0.0,0.0,0.0,0.0,0.0,0.0,0.0,0.0,0.0,0.0,0.0,0.0,0.0,0.0,0.0,0.0,0.0,0.0,0.0,0.0,0.0,0.0,0.0,0.0,0.0,0.0,0.0,0.0,0.0,0.0,0.0,0.0,0.0,0.0,0.0,0.0,0.0,0.0,0.0,0.0,0.0,0.0,0.0,0.0,0.0,0.0,0.0,0.0,0.0,0.0,0.0,0.0,0.0,0.0,0.0,0.0,0.0,0.0,0.0,0.0,0.0,0.0,0.0,0.0,0.0,0.0,0.0,0.0,0.0,0.0,0.0,0.0,0.0,0.0,0.0,0.0,0.0,0.0,0.0,0.0,0.0,0.0,0.0,0.0,0.0,0.0,0.0,0.0,0.0,0.0,0.0,0.0,0.0,0.0,0.0,0.0,0.0,0.0,0.0,0.0,0.0,0.0,0.0,-2.8957,-2.892,-2.892,0.0,-2.7765,0.0,0.0,0.0,0.0,0.0,0.0,0.0,0.0,0.0,0.0,0.0,0.0,0.0,0.0,0.0,0.0,0.0,0.0,0.0,0.0,0.0,0.0,0.0,0.0,0.0,0.0,0.0,0.0,0.0,0.0,0.0,0.0,0.0,0.0,0.0,0.0,0.0,0.0,0.0,0.0,0.0,0.0,0.0,0.0,0.0,0.0,0.0,0.0,0.0,0.0,0.0,0.0,0.0,0.0,0.0,0.0,0.0,0.0,0.0,0.0,0.0,0.0,0.0,0.0,0.0,0.0,0.0,0.0,0.0,0.0,0.0,0.0,0.0,0.0,0.0,0.0,0.0,0.0,0.0,0.0,0.0,0.0,0.0,0.0,0.0,0.0,0.0,0.0,0.0,0.0,0.0,0.0,0.0,0.0,0.0,0.0,0.0,0.0,0.0,0.0,0.0,0.0,0.0,0.0,0.0,0.0,0.0,0.0,0.0,0.0,-2.8975,-2.8975,-2.8755,-2.8468,0.0,0.0,0.0,0.0,0.0,0.0,0.0,0.0,0.0,0.0,0.0,0.0,0.0,0.0,0.0,0.0,0.0,0.0,0.0,0.0,0.0,0.0,0.0,0.0,0.0,0.0,0.0,0.0,0.0,0.0,0.0,0.0,0.0,0.0,0.0,0.0,0.0,0.0,0.0,0.0,0.0,0.0,0.0,0.0,0.0,0.0,0.0,0.0,0.0,0.0,0.0,0.0,0.0,0.0,0.0,0.0,0.0,0.0,0.0,0.0,0.0,0.0,0.0,0.0,0.0,0.0,0.0,0.0,0.0,0.0,0.0,0.0,0.0,0.0,0.0,0.0,0.0,0.0,0.0,0.0,0.0,0.0,0.0,0.0,0.0,0.0,0.0,0.0,0.0,0.0,0.0,0.0,0.0,0.0,0.0,0.0,0.0,0.0,0.0,0.0,0.0,0.0,0.0,0.0,0.0,0.0,0.0,0.0,0.0,0.0,-2.926,-2.914,-2.914,-2.8865,-2.8542,-2.8125,0.0,0.0,0.0,0.0,0.0,0.0,0.0,0.0,0.0,0.0,0.0,0.0,0.0,0.0,0.0,0.0,0.0,0.0,0.0,0.0,0.0,0.0,0.0,0.0,0.0,0.0,0.0,0.0,0.0,0.0,0.0,0.0,0.0,0.0,0.0,0.0,0.0,0.0,0.0,0.0,0.0,0.0,0.0,0.0,0.0,0.0,0.0,0.0,0.0,0.0,0.0,0.0,0.0,0.0,0.0,0.0,0.0,0.0,0.0,0.0,0.0,0.0,0.0,0.0,0.0,0.0,0.0,0.0,0.0,0.0,0.0,0.0,0.0,0.0,0.0,0.0,0.0,0.0,0.0,0.0,0.0,0.0,0.0,0.0,0.0,0.0,0.0,0.0,0.0,0.0,0.0,0.0,0.0,0.0,0.0,0.0,0.0,0.0,0.0,0.0,0.0,0.0,0.0,0.0,0.0,0.0,0.0,0.0,0.0,-2.9665,-2.9544,-2.9544,-2.9525,-2.8975,0.0,0.0,0.0,0.0,0.0,0.0,0.0,0.0,0.0,0.0,0.0,0.0,0.0,0.0,0.0,0.0,0.0,0.0,0.0,0.0,0.0,0.0,0.0,0.0,0.0,0.0,0.0,0.0,0.0,0.0,0.0,0.0,0.0,0.0,0.0,0.0,0.0,0.0,0.0,0.0,0.0,0.0,0.0,0.0,0.0,0.0,0.0,0.0,0.0,0.0,0.0,0.0,0.0,0.0,0.0,0.0,0.0,0.0,0.0,0.0,0.0,0.0,0.0,0.0,0.0,0.0,0.0,0.0,0.0,0.0,0.0,0.0,0.0,0.0,0.0,0.0,0.0,0.0,0.0,0.0,0.0,0.0,0.0,0.0,0.0,0.0,0.0,0.0,0.0,0.0,0.0,0.0,0.0,0.0,0.0,0.0,0.0,0.0,0.0,0.0,0.0,0.0,0.0,0.0,0.0,0.0,0.0,0.0,0.0,-3.0083,-2.9959,-2.9965,-2.9965,-2.9709,-2.925,0.0,0.0,0.0,0.0,0.0,0.0,0.0,0.0,0.0,0.0,0.0,0.0,0.0,0.0,0.0,0.0,0.0,0.0,0.0,0.0,0.0,0.0,0.0,0.0,0.0,0.0,0.0,0.0,0.0,0.0,0.0,0.0,0.0,0.0,0.0,0.0,0.0,0.0,0.0,0.0,0.0,0.0,0.0,0.0,0.0,0.0,0.0,0.0,0.0,0.0,0.0,0.0,0.0,0.0,0.0,0.0,0.0,0.0,0.0,0.0,0.0,0.0,0.0,0.0,0.0,0.0,0.0,0.0,0.0,0.0,0.0,0.0,0.0,0.0,0.0,0.0,0.0,0.0,0.0,0.0,0.0,0.0,0.0,0.0,0.0,0.0,0.0,0.0,0.0,0.0,0.0,0.0,0.0,0.0,0.0,0.0,0.0,0.0,0.0,0.0,0.0,0.0,0.0,0.0,0.0,0.0,0.0,0.0,0.0,-3.0556,0.0,-3.0571,-3.0571,-3.0185,-2.9654,0.0,0.0,0.0,0.0,0.0,0.0,0.0,0.0,0.0,0.0,0.0,0.0,0.0,0.0,0.0,0.0,0.0,0.0,0.0,0.0,0.0,0.0,0.0,0.0,0.0,0.0,0.0,0.0,0.0,0.0,0.0,0.0,0.0,0.0,0.0,0.0,0.0,0.0,0.0,0.0,0.0,0.0,0.0,0.0,0.0,0.0,0.0,0.0,0.0,0.0,0.0,0.0,0.0,0.0,0.0,0.0,0.0,0.0,0.0,0.0,0.0,0.0,0.0,0.0,0.0,0.0,0.0,0.0,0.0,0.0,0.0,0.0,0.0,0.0,0.0,0.0,0.0,0.0,0.0,0.0,0.0,0.0,0.0,0.0,0.0,0.0,0.0,0.0,0.0,0.0,0.0,0.0,0.0,0.0,0.0,0.0,0.0,0.0,0.0,0.0,0.0,0.0,0.0,0.0,0.0,0.0,0.0,0.0,-3.1358,-3.1377,-3.1396,-3.1506,-3.1377,-3.0992,-3.0241,0.0,0.0,0.0,0.0,0.0,0.0,0.0,0.0,0.0,0.0,0.0,0.0,0.0,0.0,0.0,0.0,0.0,0.0,0.0,0.0,0.0,0.0,0.0,0.0,0.0,0.0,0.0,0.0,0.0,0.0,0.0,0.0,0.0,0.0,0.0,0.0,0.0,0.0,0.0,0.0,0.0,0.0,0.0,0.0,0.0,0.0,0.0,0.0,0.0,0.0,0.0,0.0,0.0,0.0,0.0,0.0,0.0,0.0,0.0,0.0,0.0,0.0,0.0,0.0,0.0,0.0,0.0,0.0,0.0,0.0,0.0,0.0,0.0,0.0,0.0,0.0,0.0,0.0,0.0,0.0,0.0,0.0,0.0,0.0,0.0,0.0,0.0,0.0,0.0,0.0,0.0,0.0,0.0,0.0,0.0,0.0,0.0,0.0,0.0,0.0,0.0,0.0,0.0,0.0,0.0,0.0,0.0,0.0,0.0,-3.3012,-3.3012,-3.288,-3.2598,-3.193,-3.1135,0.0,0.0,0.0,0.0,0.0,0.0,0.0,0.0,0.0,0.0,0.0,0.0,0.0,0.0,0.0,0.0,0.0,0.0,0.0,0.0,0.0,0.0,0.0,0.0,0.0,0.0,0.0,0.0,0.0,0.0,0.0,0.0,0.0,0.0,0.0,0.0,0.0,0.0,0.0,0.0,0.0,0.0,0.0,0.0,0.0,0.0,0.0,0.0,0.0,0.0,0.0,0.0,0.0,0.0,0.0,0.0,0.0,0.0,0.0,0.0,0.0,0.0,0.0,0.0,0.0,0.0,0.0,0.0,0.0,0.0,0.0,0.0,0.0,0.0,0.0,0.0,0.0,0.0,0.0,0.0,0.0,0.0,0.0,0.0,0.0,0.0,0.0,0.0,0.0,0.0,0.0,0.0,0.0,0.0,0.0,0.0,0.0,0.0,0.0,0.0,0.0,0.0,0.0,0.0,0.0,0.0,0.0,0.0,0.0,-3.5448,-3.4736,-3.4429,-3.4308,-3.3367,-3.2469,-3.1505,0.0,0.0,0.0,0.0,0.0,0.0,0.0,0.0,0.0,0.0,0.0,0.0,0.0,0.0,0.0,0.0,0.0,0.0,0.0,0.0,0.0,0.0,0.0,0.0,0.0,0.0,0.0,0.0,0.0,0.0,0.0,0.0,0.0,0.0,0.0,0.0,0.0,0.0,0.0,0.0,0.0,0.0,0.0,0.0,0.0,0.0,0.0,0.0,0.0,0.0,0.0,0.0,0.0,0.0,0.0,0.0,0.0,0.0,0.0,0.0,0.0,0.0,0.0,0.0,0.0,0.0,0.0,0.0,0.0,0.0,0.0,0.0,0.0,0.0,0.0,0.0,0.0,0.0,0.0,0.0,0.0,0.0,0.0,0.0,0.0,0.0,0.0,0.0,0.0,0.0,0.0,0.0,0.0,0.0,0.0,0.0,0.0,0.0,0.0,0.0,0.0,0.0,0.0,0.0,0.0,0.0,0.0,0.0,-3.8633,-3.6828,-3.6123,-3.6371,-3.5153,-3.4022,0.0,0.0,0.0,0.0,0.0,0.0,0.0,0.0,0.0,0.0,0.0,0.0,0.0,0.0,0.0,0.0,0.0,0.0,0.0,0.0,0.0,0.0,0.0,0.0,0.0,0.0,0.0,0.0,0.0,0.0,0.0,0.0,0.0,0.0,0.0,0.0,0.0,0.0,0.0,0.0,0.0,0.0,0.0,0.0,0.0,0.0,0.0,0.0,0.0,0.0,0.0,0.0,0.0,0.0,0.0,0.0,0.0,0.0,0.0,0.0,0.0,0.0,0.0,0.0,0.0,0.0,0.0,0.0,0.0,0.0,0.0,0.0,0.0,0.0,0.0,0.0,0.0,0.0,0.0,0.0,0.0,0.0,0.0,0.0,0.0,0.0,0.0,0.0,0.0,0.0,0.0,0.0,0.0,0.0,0.0,0.0,0.0,0.0,0.0,0.0,0.0,0.0,0.0,0.0,0.0,0.0,0.0,0.0,0.0,-3.9512,-3.9985,-3.9449,-3.8163,-3.7153,-3.5838,0.0,0.0,0.0,0.0,0.0,0.0,0.0,0.0,0.0,0.0,0.0,0.0,0.0,0.0,0.0,0.0,0.0,0.0,0.0,0.0,0.0,0.0,0.0,0.0,0.0,0.0,0.0,0.0,0.0,0.0,0.0,0.0,0.0,0.0,0.0,0.0,0.0,0.0,0.0,0.0,0.0,0.0,0.0,0.0,0.0,0.0,0.0,0.0,0.0,0.0,0.0,0.0,0.0,0.0,0.0,0.0,0.0,0.0,0.0,0.0,0.0,0.0,0.0,0.0,0.0,0.0,0.0,0.0,0.0,0.0,0.0,0.0,0.0,0.0,0.0,0.0,0.0,0.0,0.0,0.0,0.0,0.0,0.0,0.0,0.0,0.0,0.0,0.0,0.0,0.0,0.0,0.0,0.0,0.0,0.0,0.0,0.0,0.0,0.0,0.0,0.0,0.0,0.0,0.0,0.0,0.0,0.0,0.0,-3.9726,-4.0937,-4.2031,-4.197,-4.0802,-3.9121,-3.7276,0.0,0.0,0.0,0.0,0.0,0.0,0.0,0.0,0.0,0.0,0.0,0.0,0.0,0.0,0.0,0.0,0.0,0.0,0.0,0.0,0.0,0.0,0.0,0.0,0.0,0.0,0.0,0.0,0.0,0.0,0.0,0.0,0.0,0.0,0.0,0.0,0.0,0.0,0.0,0.0,0.0,0.0,0.0,0.0,0.0,0.0,0.0,0.0,0.0,0.0,0.0,0.0,0.0,0.0,0.0,0.0,0.0,0.0,0.0,0.0,0.0,0.0,0.0,0.0,0.0,0.0,0.0,0.0,0.0,0.0,0.0,0.0,0.0,0.0,0.0,0.0,0.0,0.0,0.0,0.0,0.0,0.0,0.0,0.0,0.0,0.0,0.0,0.0,0.0,0.0,0.0,0.0,0.0,0.0,0.0,0.0,0.0,0.0,0.0,0.0,0.0,0.0,0.0,0.0,0.0,0.0,0.0,0.0,-4.082,-4.2461,-4.3379,-4.3848,-4.3769,-4.1132,-3.8763,0.0,0.0,0.0,0.0,0.0,0.0,0.0,0.0,0.0,0.0,0.0,0.0,0.0,0.0,0.0,0.0,0.0,0.0,0.0,0.0,0.0,0.0,0.0,0.0,0.0,0.0,0.0,0.0,0.0,0.0,0.0,0.0,0.0,0.0,0.0,0.0,0.0,0.0,0.0,0.0,0.0,0.0,0.0,0.0,0.0,0.0,0.0,0.0,0.0,0.0,0.0,0.0,0.0,0.0,0.0,0.0,0.0,0.0,0.0,0.0,0.0,0.0,0.0,0.0,0.0,0.0,0.0,0.0,0.0,0.0,0.0,0.0,0.0,0.0,0.0,0.0,0.0,0.0,0.0,0.0,0.0,0.0,0.0,0.0,0.0,0.0,0.0,0.0,0.0,0.0,0.0,0.0,0.0,0.0,0.0,0.0,0.0,0.0,0.0,0.0,0.0,0.0,0.0,0.0,0.0,0.0,0.0,0.0,-4.1562,-4.291,-4.4121,-4.4746,-4.4746,-4.2728,-4.0646,0.0,0.0,0.0,0.0,0.0,0.0,0.0,0.0,0.0,0.0,0.0,0.0,0.0,0.0,0.0,0.0,0.0,0.0,0.0,0.0,0.0,0.0,0.0,0.0,0.0,0.0,0.0,0.0,0.0,0.0,0.0,0.0,0.0,0.0,0.0,0.0,0.0,0.0,0.0,0.0,0.0,0.0,0.0,0.0,0.0,0.0,0.0,0.0,-3.4037,0.0,0.0,0.0,0.0,0.0,0.0,0.0,0.0,0.0,0.0,0.0,0.0,0.0,0.0,0.0,0.0,0.0,0.0,0.0,0.0,0.0,0.0,0.0,0.0,0.0,0.0,0.0,0.0,0.0,0.0,0.0,0.0,0.0,0.0,0.0,0.0,0.0,0.0,0.0,0.0,0.0,0.0,0.0,0.0,0.0,0.0,0.0,0.0,0.0,0.0,0.0,0.0,0.0,0.0,0.0,0.0,0.0,0.0,0.0,-4.2402,-4.3672,-4.4766,-4.543,-4.5566,-4.4336,-4.2333,0.0,0.0,0.0,0.0,0.0,0.0,0.0,0.0,0.0,0.0,0.0,0.0,0.0,0.0,0.0,0.0,0.0,0.0,0.0,0.0,0.0,0.0,0.0,0.0,0.0,0.0,0.0,0.0,0.0,0.0,0.0,0.0,0.0,0.0,0.0,0.0,0.0,0.0,0.0,0.0,0.0,0.0,0.0,0.0,0.0,0.0,0.0,0.0,0.0,0.0,0.0,0.0,0.0,0.0,0.0,0.0,0.0,0.0,0.0,0.0,0.0,0.0,0.0,0.0,0.0,0.0,0.0,0.0,0.0,0.0,0.0,0.0,0.0,0.0,0.0,0.0,0.0,0.0,0.0,0.0,0.0,0.0,0.0,0.0,0.0,0.0,0.0,0.0,0.0,0.0,0.0,0.0,0.0,0.0,0.0,0.0,0.0,0.0,0.0,0.0,0.0,0.0,0.0,0.0,0.0,0.0,0.0,-4.1699,-4.3203,-4.4551,-4.5371,-4.5976,-4.6367,-4.5508,-4.3593,0.0,0.0,0.0,0.0,0.0,0.0,0.0,0.0,0.0,0.0,0.0,0.0,0.0,0.0,0.0,0.0,0.0,0.0,0.0,0.0,0.0,0.0,0.0,0.0,0.0,0.0,0.0,0.0,0.0,0.0,0.0,0.0,0.0,0.0,0.0,0.0,0.0,0.0,0.0,-3.4381,-3.5284,0.0,0.0,0.0,0.0,0.0,0.0,0.0,0.0,-3.6342,0.0,0.0,0.0,0.0,0.0,0.0,0.0,0.0,0.0,0.0,0.0,0.0,0.0,0.0,0.0,0.0,0.0,0.0,0.0,0.0,0.0,0.0,0.0,0.0,0.0,0.0,0.0,0.0,0.0,0.0,0.0,0.0,0.0,0.0,0.0,0.0,0.0,0.0,0.0,0.0,0.0,0.0,0.0,0.0,0.0,0.0,0.0,0.0,0.0,0.0,0.0,0.0,0.0,0.0,0.0,0.0,-4.0937,-4.2285,-4.3789,-4.541,-4.5937,-4.6406,-4.6777,-4.5644,-4.4136,-4.2131,0.0,0.0,0.0,0.0,0.0,0.0,0.0,0.0,0.0,0.0,0.0,0.0,0.0,0.0,0.0,0.0,0.0,0.0,0.0,0.0,0.0,0.0,0.0,0.0,0.0,0.0,0.0,0.0,0.0,0.0,0.0,0.0,0.0,0.0,0.0,0.0,0.0,0.0,0.0,-3.66,-3.733,0.0,0.0,0.0,0.0,0.0,0.0,0.0,0.0,-3.754,0.0,0.0,0.0,0.0,0.0,0.0,0.0,0.0,0.0,0.0,0.0,0.0,0.0,0.0,0.0,0.0,0.0,0.0,0.0,0.0,0.0,0.0,0.0,0.0,0.0,0.0,0.0,0.0,0.0,0.0,0.0,0.0,0.0,0.0,0.0,0.0,0.0,0.0,0.0,0.0,0.0,0.0,0.0,0.0,0.0,0.0,0.0,0.0,0.0,0.0,0.0,0.0,0.0,0.0,0.0,-4.1758,-4.3105,-4.4375,-4.5644,-4.6074,-4.6504,-4.6894,-4.5918,-4.4601,0.0,0.0,0.0,0.0,0.0,0.0,0.0,0.0,0.0,0.0,0.0,0.0,0.0,0.0,0.0,0.0,0.0,0.0,0.0,0.0,0.0,0.0,0.0,0.0,0.0,0.0,0.0,0.0,0.0,0.0,0.0,0.0,0.0,0.0,0.0,0.0,0.0,0.0,0.0,0.0,-3.7944,-3.8651,-3.949,0.0,0.0,0.0,0.0,0.0,0.0,-3.9413,-3.8689,0.0,0.0,0.0,0.0,0.0,0.0,0.0,0.0,0.0,0.0,0.0,0.0,0.0,0.0,0.0,0.0,0.0,0.0,0.0,0.0,0.0,0.0,0.0,0.0,0.0,0.0,0.0,0.0,0.0,0.0,0.0,0.0,0.0,0.0,0.0,0.0,0.0,0.0,0.0,0.0,0.0,0.0,0.0,0.0,0.0,0.0,0.0,0.0,0.0,0.0,0.0,0.0,0.0,0.0,0.0,-4.2519,-4.3848,-4.4941,-4.5781,-4.6133,-4.6504,-4.6894,-4.6035,-4.4814,0.0,0.0,0.0,0.0,0.0,0.0,0.0,0.0,0.0,0.0,0.0,0.0,0.0,0.0,0.0,0.0,0.0,0.0,0.0,0.0,0.0,0.0,0.0,0.0,0.0,0.0,0.0,0.0,0.0,0.0,0.0,0.0,0.0,0.0,0.0,0.0,0.0,0.0,0.0,0.0,0.0,-3.9893,-4.082,-4.0936,0.0,0.0,0.0,0.0,-4.1515,-4.0679,0.0,0.0,0.0,0.0,0.0,0.0,0.0,0.0,0.0,0.0,0.0,0.0,0.0,0.0,0.0,0.0,0.0,0.0,0.0,0.0,0.0,0.0,0.0,0.0,0.0,0.0,0.0,0.0,0.0,0.0,0.0,0.0,0.0,0.0,0.0,0.0,0.0,0.0,0.0,0.0,0.0,0.0,0.0,0.0,0.0,0.0,0.0,0.0,0.0,0.0,0.0,0.0,0.0,0.0,0.0,0.0,-4.2969,-4.4297,-4.5351,-4.6172,-4.6269,-4.6504,-4.6894,-4.5742,-4.4524,0.0,0.0,0.0,0.0,0.0,0.0,0.0,0.0,0.0,0.0,0.0,0.0,0.0,0.0,0.0,0.0,0.0,0.0,0.0,0.0,0.0,0.0,0.0,0.0,0.0,0.0,0.0,0.0,0.0,0.0,0.0,0.0,0.0,0.0,0.0,0.0,0.0,0.0,0.0,0.0,0.0,-4.0744,-4.195,-4.2125,-4.2261,0.0,0.0,0.0,-4.291,-4.2527,0.0,0.0,0.0,0.0,0.0,0.0,0.0,0.0,0.0,0.0,0.0,0.0,0.0,0.0,0.0,0.0,0.0,0.0,0.0,0.0,0.0,0.0,0.0,0.0,0.0,0.0,0.0,0.0,0.0,0.0,0.0,0.0,0.0,0.0,0.0,0.0,0.0,0.0,0.0,0.0,0.0,0.0,0.0,0.0,0.0,0.0,0.0,0.0,0.0,0.0,0.0,0.0,0.0,0.0,0.0,-4.1403,-4.3398,-4.4726,-4.5703,-4.6269,-4.6308,-4.6387,-4.6562,-4.5566,-4.4349,0.0,0.0,0.0,0.0,0.0,0.0,0.0,0.0,0.0,0.0,0.0,0.0,0.0,0.0,0.0,0.0,0.0,0.0,0.0,0.0,0.0,0.0,0.0,0.0,0.0,0.0,0.0,0.0,0.0,0.0,0.0,0.0,0.0,0.0,0.0,0.0,0.0,0.0,0.0,0.0,0.0,0.0,-4.2656,-4.3418,0.0,0.0,0.0,-4.418,-4.418,0.0,0.0,0.0,0.0,0.0,0.0,0.0,0.0,0.0,0.0,0.0,0.0,0.0,0.0,0.0,0.0,0.0,0.0,0.0,0.0,0.0,0.0,0.0,0.0,0.0,0.0,0.0,0.0,0.0,0.0,0.0,0.0,0.0,0.0,0.0,0.0,0.0,0.0,0.0,0.0,0.0,0.0,0.0,0.0,0.0,0.0,0.0,0.0,0.0,0.0,0.0,0.0,0.0,0.0,0.0,0.0,0.0,-4.3691,-4.5098,-4.6035,-4.6445,-4.6465,-4.6504,-4.6601,-4.5801,0.0,0.0,0.0,0.0,0.0,0.0,0.0,0.0,0.0,0.0,0.0,0.0,0.0,0.0,0.0,0.0,0.0,0.0,0.0,0.0,0.0,0.0,0.0,0.0,0.0,0.0,0.0,0.0,0.0,0.0,0.0,0.0,0.0,0.0,0.0,0.0,0.0,0.0,0.0,0.0,0.0,0.0,-4.2305,-4.3281,-4.4336,-4.5058,0.0,0.0,-4.5195,-4.5176,-4.4562,-4.3722,0.0,0.0,0.0,0.0,0.0,0.0,0.0,0.0,0.0,0.0,0.0,0.0,0.0,0.0,0.0,0.0,0.0,0.0,0.0,0.0,0.0,0.0,0.0,0.0,0.0,0.0,0.0,0.0,0.0,0.0,0.0,0.0,0.0,0.0,0.0,0.0,0.0,0.0,0.0,0.0,0.0,0.0,0.0,0.0,0.0,0.0,0.0,0.0,0.0,0.0,0.0,0.0,0.0,0.0,0.0,-4.373,-4.5391,-4.6465,-4.6875,-4.6894,-4.709,-4.7461,-4.666,-4.5627,0.0,0.0,0.0,0.0,0.0,0.0,0.0,0.0,0.0,0.0,0.0,0.0,0.0,0.0,0.0,0.0,0.0,0.0,0.0,0.0,0.0,0.0,0.0,0.0,0.0,0.0,0.0,0.0,0.0,0.0,0.0,0.0,0.0,0.0,0.0,0.0,0.0,0.0,0.0,0.0,0.0,-4.2851,-4.4141,-4.4726,-4.5176,0.0,0.0,-4.5625,-4.5644,-4.5605,-4.495,-4.3253,0.0,0.0,0.0,0.0,0.0,0.0,0.0,0.0,0.0,0.0,0.0,0.0,0.0,0.0,0.0,0.0,0.0,0.0,0.0,0.0,0.0,0.0,0.0,0.0,0.0,0.0,0.0,0.0,0.0,0.0,0.0,0.0,0.0,0.0,0.0,0.0,0.0,0.0,0.0,0.0,0.0,0.0,0.0,0.0,0.0,0.0,0.0,0.0,0.0,0.0,0.0,0.0,0.0,-4.2058,-4.3711,-4.5664,-4.6777,-4.6933,-4.7187,-4.7402,-4.7578,-4.6992,-4.6094,0.0,0.0,0.0,0.0,0.0,0.0,0.0,0.0,0.0,0.0,0.0,0.0,0.0,0.0,0.0,0.0,0.0,0.0,0.0,0.0,0.0,0.0,0.0,0.0,0.0,0.0,0.0,0.0,-3.5257,-3.5879,-3.5781,0.0,0.0,0.0,0.0,0.0,0.0,0.0,0.0,0.0,0.0,-4.3203,-4.4258,-4.543,0.0,0.0,-4.6289,-4.6348,-4.6094,-4.6074,-4.5686,-4.4396,-4.3289,0.0,0.0,0.0,0.0,0.0,0.0,0.0,0.0,0.0,0.0,0.0,0.0,0.0,0.0,0.0,0.0,0.0,0.0,0.0,0.0,0.0,0.0,0.0,0.0,0.0,0.0,0.0,0.0,0.0,0.0,0.0,0.0,0.0,0.0,0.0,0.0,0.0,0.0,0.0,0.0,0.0,0.0,0.0,0.0,0.0,0.0,0.0,0.0,0.0,0.0,0.0,0.0,-4.2173,-4.3711,-4.584,-4.6992,-4.7129,-4.7558,-4.7832,-4.7949,-4.7539,-4.6795,0.0,0.0,0.0,0.0,0.0,0.0,0.0,0.0,0.0,0.0,0.0,0.0,0.0,0.0,0.0,0.0,0.0,0.0,0.0,0.0,0.0,0.0,0.0,0.0,0.0,0.0,0.0,0.0,-3.6269,-3.668,-3.6269,0.0,0.0,0.0,0.0,0.0,0.0,0.0,0.0,0.0,0.0,-4.375,-4.4492,-4.582,-4.6641,-4.6348,-4.6562,-4.6641,-4.6348,-4.6308,-4.6017,-4.5358,0.0,0.0,0.0,0.0,0.0,0.0,0.0,0.0,0.0,0.0,0.0,0.0,0.0,0.0,0.0,0.0,0.0,0.0,0.0,0.0,0.0,0.0,0.0,0.0,0.0,0.0,0.0,0.0,0.0,0.0,0.0,0.0,0.0,0.0,0.0,0.0,0.0,0.0,0.0,0.0,0.0,0.0,0.0,0.0,0.0,0.0,0.0,0.0,0.0,0.0,0.0,0.0,0.0,0.0,-4.373,-4.584,-4.7129,-4.7539,-4.7969,-4.8379,-4.8789,-4.8418,-4.7969,-4.7519,0.0,0.0,0.0,0.0,0.0,0.0,0.0,0.0,0.0,0.0,0.0,0.0,0.0,0.0,0.0,0.0,0.0,0.0,0.0,0.0,0.0,0.0,0.0,0.0,0.0,0.0,-3.6601,-3.7031,-3.7109,0.0,0.0,0.0,0.0,0.0,0.0,0.0,0.0,0.0,0.0,-4.3262,-4.4512,-4.4941,-4.5762,-4.6348,-4.6328,-4.6348,-4.6348,-4.6348,-4.6328,-4.6114,0.0,0.0,0.0,0.0,0.0,0.0,0.0,0.0,0.0,0.0,0.0,0.0,0.0,0.0,0.0,0.0,0.0,0.0,0.0,0.0,0.0,0.0,0.0,0.0,0.0,0.0,0.0,0.0,0.0,0.0,0.0,0.0,0.0,0.0,0.0,0.0,0.0,0.0,0.0,0.0,-3.8309,-3.9381,0.0,0.0,0.0,0.0,0.0,0.0,0.0,0.0,0.0,0.0,0.0,0.0,-4.2346,-4.4199,-4.5976,-4.7129,-4.7578,-4.8262,-4.8711,-4.8848,-4.9004,-4.8429,-4.7237,0.0,0.0,0.0,0.0,0.0,0.0,0.0,0.0,0.0,0.0,0.0,0.0,0.0,0.0,0.0,0.0,0.0,0.0,0.0,0.0,0.0,0.0,0.0,0.0,0.0,-3.69,0.0,0.0,0.0,0.0,0.0,0.0,0.0,0.0,0.0,0.0,0.0,-4.0781,-4.2051,-4.3476,-4.4551,-4.4961,-4.625,-4.7051,0.0,0.0,0.0,0.0,0.0,0.0,0.0,0.0,0.0,0.0,0.0,0.0,0.0,0.0,-4.0288,-3.8707,-3.8326,-3.8395,-3.865,0.0,0.0,0.0,0.0,0.0,0.0,0.0,0.0,0.0,0.0,0.0,0.0,0.0,0.0,0.0,0.0,-2.9089,0.0,0.0,0.0,0.0,0.0,0.0,0.0,0.0,-3.7238,-3.9443,-4.0801,-4.1724,-4.1848,0.0,-4.1139,-4.0216,0.0,0.0,0.0,0.0,0.0,0.0,0.0,0.0,-4.2721,-4.4433,-4.6074,-4.7207,-4.7793,-4.8652,-4.9082,-4.9101,-4.9375,-4.8877,-4.7703,-4.6149,-4.4454,0.0,0.0,0.0,0.0,0.0,0.0,0.0,0.0,0.0,0.0,0.0,0.0,0.0,0.0,0.0,0.0,0.0,0.0,0.0,0.0,0.0,0.0,0.0,-3.8321,0.0,0.0,0.0,0.0,0.0,0.0,0.0,0.0,0.0,-3.9453,-4.0469,-4.1601,-4.2715,-4.3887,-4.4824,-4.5391,0.0,0.0,0.0,0.0,0.0,0.0,0.0,-4.7851,-4.8008,-4.7612,-4.7076,-4.7076,-4.5846,-4.5059,-4.4926,0.0,0.0,-4.0898,-4.0251,-4.0335,-4.0465,-4.0055,-3.9757,-4.0037,-4.0141,-4.0283,0.0,0.0,0.0,0.0,0.0,0.0,0.0,0.0,-3.5621,-3.3831,0.0,0.0,0.0,0.0,0.0,0.0,0.0,0.0,0.0,0.0,-4.255,-4.3832,-4.2277,-4.3283,-4.3574,-4.3125,-4.2363,-4.2008,-4.1856,-4.117,0.0,0.0,0.0,0.0,0.0,0.0,-4.3465,-4.4492,-4.6094,-4.7324,-4.8144,-4.9043,-4.9512,-4.9512,-4.9512,-4.9336,-4.8906,-4.7703,-4.6478,-4.501,-4.2724,0.0,0.0,0.0,0.0,0.0,0.0,0.0,0.0,0.0,0.0,0.0,0.0,0.0,0.0,0.0,0.0,0.0,0.0,0.0,0.0,-3.9518,0.0,0.0,0.0,0.0,0.0,0.0,0.0,0.0,0.0,0.0,-4.0117,-4.1445,-4.2773,-4.3613,0.0,0.0,0.0,0.0,-4.7129,-4.7578,-4.7656,-4.7695,-4.7695,-4.8027,-4.8418,-4.8828,0.0,0.0,-4.8351,-4.7125,-4.6523,-4.6903,-4.6983,-4.6126,-4.3234,-4.2455,-4.2017,-4.1656,-4.1561,-4.1428,-4.1447,-4.1789,-4.1998,-3.6264,0.0,0.0,0.0,0.0,-3.4398,-3.6074,-3.8209,-3.8043,-3.7589,-3.6898,-3.7329,0.0,0.0,0.0,0.0,0.0,0.0,-3.7347,-4.0069,-4.2218,-4.3651,-4.4601,-4.5199,-4.5332,-4.4922,-4.4668,-4.4629,-4.4577,-4.4291,-4.326,-4.1417,0.0,0.0,0.0,0.0,-4.3736,-4.5312,-4.6387,-4.7207,-4.7754,-4.8594,-4.9199,-4.9512,-4.9531,-4.9473,-4.9355,-4.8624,-4.7548,-4.5915,-4.4645,0.0,0.0,0.0,0.0,0.0,0.0,0.0,0.0,0.0,0.0,0.0,0.0,0.0,0.0,0.0,0.0,0.0,0.0,0.0,-3.9479,-4.0898,-4.1328,0.0,0.0,0.0,0.0,0.0,0.0,0.0,0.0,0.0,-4.2187,-4.2851,-4.3555,0.0,0.0,-4.5683,-4.623,-4.7187,-4.7988,-4.8418,0.0,0.0,0.0,-4.9531,-4.9648,-4.9785,-4.9785,-4.9805,-4.9616,-4.9214,-4.9098,-4.9214,-4.8885,-4.841,-4.7257,-4.6171,-4.5454,-4.528,-4.4834,-4.4427,-4.4407,-4.4291,-4.4214,-4.1461,-3.8993,-3.6615,-3.6156,-3.7067,-3.7403,-3.9086,-4.1456,-4.1361,-4.0796,-4.0105,-4.0729,-3.8906,-3.5204,-3.4861,0.0,0.0,0.0,-3.9832,-4.2743,-4.3595,-4.4626,-4.5683,-4.5937,-4.584,-4.543,-4.5254,-4.5254,-4.541,-4.541,-4.481,-4.3472,0.0,0.0,-4.4252,-4.402,-4.4538,-4.5664,-4.6504,-4.7226,-4.7812,-4.8672,-4.9336,-4.9766,-4.9785,-4.9863,-5.0019,-4.9766,-4.9013,-4.7896,-4.6536,-4.4913,0.0,0.0,0.0,0.0,0.0,0.0,0.0,0.0,0.0,0.0,0.0,-3.827,0.0,0.0,0.0,0.0,-4.0048,-4.0491,-4.1348,-4.2031,0.0,0.0,0.0,0.0,0.0,0.0,0.0,-4.0703,-4.2383,-4.3535,-4.3359,-4.4004,-4.459,-4.4883,-4.5488,-4.6191,-4.6953,0.0,-4.8672,-4.9297,-4.9844,-5.0176,-5.0176,-5.0449,-5.0742,-5.0918,-5.0644,-5.0508,-5.0644,-5.041,-5.0254,-5.0332,-5.0078,-4.9707,-4.9433,-4.873,-4.7812,-4.6894,-4.6562,-4.6348,-4.6016,-4.6113,-4.6367,-4.5976,-4.5141,-3.9511,-3.8438,-4.0452,-4.1009,-4.2353,-4.4512,-4.4863,-4.3576,-4.1494,-4.3611,-4.1565,-3.6744,-3.6266,0.0,0.0,-4.095,-4.2763,-4.5683,-4.6094,-4.6094,-4.5723,-4.5801,-4.5625,-4.5234,-4.4844,-4.4844,-4.5254,-4.5254,-4.543,-4.582,-4.582,-4.5586,-4.5156,-4.5098,-4.5312,-4.5781,-4.6582,-4.7402,-4.8242,-4.9082,-4.9707,-5.0058,-5.0137,-5.0351,-5.0683,-5.0723,-5.0547,-5.0058,-4.8187,-4.6729,-4.5588,0.0,0.0,0.0,0.0,0.0,0.0,0.0,0.0,0.0,0.0,0.0,0.0,0.0,0.0,0.0,-4.3098,0.0,-4.3535,-4.2969,0.0,0.0,0.0,-4.1289,-4.1328,-4.207,-4.2441,-4.2051,0.0,0.0,0.0,0.0,-4.5742,-4.5762,-4.6133,-4.6855,-4.8086,-4.8652,-4.9277,-5.0137,-5.0312,-5.0371,-5.0566,-5.1094,-5.1641,-5.1953,-5.1484,-5.1152,-5.1426,-5.0976,-5.0625,-5.0937,-5.0644,-5.0391,-5.0351,-5.0293,-4.957,-4.7187,-4.7266,-4.75,-4.6836,-4.7402,-4.8105,-4.5273,-4.5098,-4.3678,-4.3299,-4.3923,-4.402,-4.4596,-4.5332,-4.5117,-4.4795,-4.4645,-4.518,-4.4663,-4.3291,-4.3595,-4.3823,-4.4337,-4.4453,-4.4856,-4.5703,-4.6113,-4.625,-4.6191,-4.6816,-4.707,-4.6973,-4.6875,-4.6875,-4.6973,-4.6973,-4.7031,-4.7129,-4.7129,-4.6738,-4.6016,-4.5683,-4.5898,-4.6621,-4.7148,-4.7832,-4.8672,-4.9238,-4.9414,-4.918,-4.9824,-5.0078,-4.9844,-5.0156,-4.9961,-4.9219,-4.8769,-4.7509,-4.5664,-4.3995,0.0,0.0,0.0,0.0,0.0,0.0,0.0,0.0,0.0,-4.1599,-4.2373,0.0,-4.4752,0.0,-4.4863,-4.4297,-4.2441,-4.3262,0.0,0.0,-4.2441,-4.2266,-4.2598,-4.3398,-4.3887,-4.3789,-4.4726,-4.5332,-4.5215,-4.5762,-4.6269,-4.6582,-4.7012,-4.7637,-4.8574,-4.9375,-5.0176,-5.0957,-5.1387,-5.1738,-5.2012,-5.2266,-5.2422,-5.2539,-5.2383,-5.2305,-5.2383,-5.2266,-5.2148,-5.2246,-5.2187,-5.1992,-5.166,-5.1621,-5.1055,-4.9629,-4.918,-4.8906,-4.8379,-4.8516,-4.8808,-4.6621,-4.6445,-4.6445,-4.6328,-4.6113,-4.5351,-4.5156,-4.5351,-4.5137,-4.5156,-4.5391,-4.5586,-4.5566,-4.541,-4.584,-4.5898,-4.5703,-4.5879,-4.6055,-4.625,-4.668,-4.6875,-4.6894,-4.7363,-4.7578,-4.7578,-4.7578,-4.7578,-4.7578,-4.7578,-4.7578,-4.7578,-4.7578,-4.7344,-4.6875,-4.6641,-4.6758,-4.7207,-4.7656,-4.8281,-4.9121,-4.9394,-4.9492,-4.9453,-4.9922,-5.0058,-4.9824,-5.0058,-4.9941,-4.9473,-4.9082,-4.8157,-4.685,-4.5278,-4.4071,0.0,0.0,0.0,0.0,0.0,0.0,0.0,0.0,0.0,0.0,0.0,-4.5976,0.0,-4.5703,0.0,-4.3398,-4.4101,-4.4473,-4.4004,-4.373,-4.3672,-4.3926,-4.4551,-4.4883,-4.4707,-4.543,-4.5957,-4.5957,-4.6328,-4.6816,-4.7402,-4.7871,-4.8379,-4.9082,-4.9902,-5.0762,-5.1582,-5.209,-5.2519,-5.293,-5.2832,-5.2773,-5.2949,-5.2832,-5.2715,-5.2715,-5.2715,-5.2715,-5.2715,-5.2715,-5.2637,-5.2422,-5.2363,-5.209,-5.1523,-5.1113,-5.0586,-4.9668,-4.9746,-5.0098,-4.8457,-4.8125,-4.8125,-4.791,-4.7461,-4.5976,-4.5351,-4.5351,-4.5351,-4.5351,-4.5391,-4.5762,-4.5703,-4.5391,-4.5742,-4.5918,-4.5937,-4.6289,-4.666,-4.7031,-4.7461,-4.7656,-4.7676,-4.7715,-4.7734,-4.7734,-4.7734,-4.7734,-4.7734,-4.7734,-4.7734,-4.7734,-4.7754,-4.7754,-4.7754,-4.7812,-4.7793,-4.7754,-4.8164,-4.8769,-4.959,-4.9668,-4.9844,-5.0156,-5.0234,-5.0234,-5.0176,-5.0137,-5.0098,-5.0058,-4.9297,-4.8652,-4.8203,-4.6574,-4.5376,0.0,-4.3766,0.0,0.0,0.0,0.0,0.0,0.0,0.0,0.0,-4.6289,-4.6582,-4.5742,-4.6055,-4.5957,-4.5098,-4.5078,-4.5098,-4.5019,-4.5039,-4.5058,-4.5176,-4.5527,-4.5664,-4.5391,-4.6016,-4.6465,-4.6504,-4.6836,-4.7402,-4.8047,-4.8594,-4.9101,-4.9648,-5.0391,-5.1211,-5.209,-5.2617,-5.3066,-5.334,-5.3144,-5.3047,-5.334,-5.3183,-5.2871,-5.293,-5.293,-5.291,-5.291,-5.2949,-5.2891,-5.2812,-5.2793,-5.2773,-5.2617,-5.2539,-5.2109,-5.0996,-5.1055,-5.1562,-4.7773,-4.7695,-4.7695,-4.7656,-4.7539,-4.7226,-4.709,-4.709,-4.709,-4.7109,-4.7109,-4.7187,-4.7168,-4.7109,-4.7187,-4.7226,-4.7226,-4.7305,-4.7383,-4.748,-4.7891,-4.8086,-4.8105,-4.8457,-4.8613,-4.8613,-4.8613,-4.8613,-4.8633,-4.8633,-4.8613,-4.8613,-4.8613,-4.8613,0.0,0.0,0.0,0.0,-4.9062,-4.9531,-5.0039,-5.0391,-5.043,-5.0195,-5.0508,0.0,-5.0195,-4.9844,-4.9648,-4.9629,-4.9141,0.0,0.0,0.0,0.0,0.0,0.0,0.0,0.0,0.0,0.0,0.0,-4.59,-4.6211,-4.6036,-4.6641,-4.6582,-4.5781,-4.6055,-4.5957,-4.5117,-4.5351,-4.541,-4.5078,-4.5039,-4.5293,-4.5957,-4.6152,-4.6387,-4.7031,-4.7246,-4.7324,-4.7344,-4.7695,-4.8008,-4.8262,-4.8906,-4.9687,-5.0449,-5.0996,-5.1758,-5.2871,-5.3457,-5.3769,-5.3887,-5.3789,-5.373,-5.3887,-5.3848,-5.375,-5.373,-5.375,-5.3769,-5.373,-5.3769,-5.3633,-5.3301,-5.3242,-5.3144,-5.2793,-5.2734,-5.2617,-5.2305,-5.2344,-5.2461,-4.8203,0.0,-4.8203,-4.8223,0.0,-4.8203,-4.8203,-4.8183,-4.7773,-4.7578,-4.7598,-4.7793,-4.7773,-4.7598,-4.7793,-4.7891,-4.7891,-4.7891,-4.8008,-4.8242,-4.8652,-4.8867,-4.8867,-4.9316,-4.9512,-4.9512,-4.9512,-4.9512,-4.9512,-4.9512,-4.9512,-4.9512,-4.9512,-4.9512,-4.9512,-4.9746,-4.9746,-4.9512,-4.9746,-5.0058,-5.0469,-5.0683,-5.0801,-5.0801,0.0,0.0,0.0,0.0,0.0,0.0,0.0,0.0,0.0,0.0,0.0,-4.6927,-4.6323,-4.5991,-4.6165,-4.6381,-4.6733,-4.716,-4.7573,-4.7519,-4.668,-4.6992,-4.6894,-4.6094,-4.6562,-4.668,-4.6055,-4.6348,-4.6543,-4.6308,-4.6289,-4.6484,-4.6836,-4.6933,-4.7109,-4.7461,-4.7578,-4.7656,-4.7871,-4.8066,-4.8398,-4.8789,-4.9238,-5.0,-5.1172,-5.1621,-5.2226,-5.3457,-5.3867,-5.4023,-5.4023,-5.4023,-5.4023,-5.4023,-5.4023,-5.4023,-5.4023,-5.4023,-5.4023,-5.4023,-5.4023,-5.3945,-5.3769,-5.3691,-5.3633,-5.3418,-5.3359,-5.3359,-5.334,-5.3027,-5.2715,-4.8926,-4.8867,-4.8945,-4.8984,-4.8965,-4.8887,-4.8906,-4.8926,0.0,0.0,0.0,-4.8262,-4.8242,-4.7969,-4.8379,-4.8555,-4.8555,-4.8555,-4.875,-4.9101,-4.9473,-4.9648,-4.9668,-5.0,-5.0176,-5.0176,-5.0176,-5.0176,-5.0176,-5.0176,-5.0176,-5.0176,-5.0176,-5.0215,-5.0273,-5.0293,-5.0332,-5.0391,-5.0312,-5.0488,-5.0898,-5.0918,-5.1074,-5.1426,-5.1094,-5.0918,-5.0918,-5.0508,-5.0293,-5.0293,-5.0215,-5.0019,-4.9668,-4.9297,-4.8906,-4.8457,-4.7741,-4.728,-4.755,-4.7569,-4.809,-4.8828,-4.8848,-4.834,-4.7129,-4.7441,-4.7363,-4.6582,-4.7168,-4.7441,-4.709,-4.7363,-4.7578,-4.7578,-4.7578,-4.7578,-4.7676,-4.7695,-4.7715,-4.7793,-4.793,-4.8047,-4.8418,-4.8555,-4.8789,-4.9453,-4.9726,-5.0332,-5.1797,-5.2363,-5.2851,-5.3789,-5.4004,-5.4023,-5.4023,-5.4023,-5.4023,-5.4023,-5.4023,-5.4023,-5.4023,-5.4023,-5.4023,-5.4023,-5.4023,-5.4023,-5.4023,-5.4004,-5.4023,-5.4023,-5.4023,-5.4023,-5.3965,-5.3457,-5.3008,-4.9219,-4.8887,-4.9277,-4.9433,-4.9394,-4.9023,-4.9082,-4.9375,-4.8906,-4.8672,-4.8711,-4.9141,-4.9316,-4.9277,-4.9707,-4.9902,-4.9902,-4.9902,-4.9941,0.0,-5.0058,-5.0078,-5.0098,-5.0156,-5.0176,-5.0176,-5.0176,-5.0176,-5.0176,-5.0195,-5.0176,-5.0176,-5.0176,-5.0371,-5.0683,-5.0723,-5.0898,-5.123,-5.0898,-5.0918,-5.1328,-5.1328,-5.1367,-5.1426,-5.1367,-5.1348,-5.1348,-5.0937,-5.0723,-5.0703,-5.0371,-5.0156,-5.0098,-5.0019,-4.9805,-4.9188,-4.7159,-4.5823,-4.5512,-4.5476,-4.6467,-4.8643,-4.8848,-4.8457,-4.7598,-4.7871,-4.791,-4.7461,-4.7519,-4.7558,-4.75,-4.7558,-4.7637,-4.7617,-4.7598,-4.7734,-4.8086,-4.8144,-4.8301,-4.8672,-4.9023,-4.9258,-4.9375,-4.9648,-4.9883,-5.0117,-5.0527,-5.1133,-5.2344,-5.3281,-5.3769,-5.3984,-5.4023,-5.4023,-5.4023,-5.4023,-5.4023,-5.4023,-5.4023,-5.4023,-5.4023,-5.4023,-5.4023,-5.4023,-5.4023,-5.4023,-5.4023,-5.4023,-5.4023,-5.4023,-5.4023,-5.4023,-5.4023,-5.3867,-5.3789,-4.9766,-4.9609,-4.9785,-4.9883,-4.9863,-4.9668,-4.9687,-4.9863,-4.9668,-4.957,-4.959,-4.9785,-4.9883,-4.9902,-5.0098,-5.0176,-5.0176,-5.0176,-5.0176,-5.0195,-5.041,-5.0527,-5.0547,-5.0742,-5.0859,-5.0859,-5.0859,-5.0859,-5.0859,-5.0859,-5.0859,-5.0859,-5.0859,-5.0957,-5.1133,-5.1152,-5.125,-5.1426,-5.125,-5.123,-5.1426,-5.1445,-5.1445,-5.1445,-5.1445,-5.1445,-5.1426,-5.125,-5.1152,-5.1152,-5.0957,-5.0859,-5.0859,-5.0644,-5.043,-5.0234,-4.9014,-4.7529,-4.5958,-4.6355,-4.6816,-4.7585,-4.9127,-4.9551,-4.8711,-4.8359,-4.8125,-4.793,-4.793,-4.791,-4.793,-4.8125,-4.8281,-4.8281,-4.8262,-4.8457,-4.8828,-4.8926,-4.918,-4.9805,-5.0078,-5.0293,-5.0527,-5.0547,-5.0742,-5.1133,-5.1738,-5.2422,-5.2988,-5.3594,-5.4023,-5.4023,-5.4023,-5.4023,-5.4023,-5.4023,-5.4023,-5.4023,-5.4023,-5.4023,-5.4023,-5.4023,-5.4023,-5.4023,-5.4023,-5.4023,-5.4023,-5.4023,-5.4023,-5.4023,-5.4023,-5.4023,-5.4023,-5.4023,-5.4023,-5.0273,-5.0176,-5.0273,-5.0273,-5.0195,-5.0391,-5.041,-5.0332,-5.041,-5.0469,-5.0449,-5.0371,-5.0312,-5.0332,-5.041,-5.0469,-5.0469,-5.0469,-5.0449,-5.0488,-5.0801,-5.0937,-5.0976,-5.1289,-5.1445,-5.1445,-5.1445,-5.1445,-5.1445,-5.1445,-5.1445,-5.1426,-5.1445,-5.1445,-5.1445,-5.1445,-5.1445,-5.1445,-5.1445,-5.1445,-5.1445,-5.1445,-5.1445,-5.1445,-5.1445,-5.1445,-5.1445,-5.1445,-5.1445,-5.1445,-5.1445,-5.1445,-5.1426,-5.123,-5.1094,-5.1055,-5.0089,-4.8512,-4.6074,-4.6481,-4.6822,-4.6646,-4.9276,-5.0703,-5.0137,-4.9394,-4.8848,-4.8691,-4.8691,-4.8672,-4.873,-4.8945,-4.916,-4.916,-4.9141,-4.9277,-4.9609,-4.9746,-5.0039,-5.0703,-5.0976,-5.123,-5.1445,-5.1387,-5.1523,-5.2129,-5.2891,-5.334,-5.3418,-5.375,-5.4004,-5.4023,-5.4023,-5.4023,-5.4023,-5.4023,-5.4023,-5.4023,-5.4023,-5.4023,-5.4023,-5.4023,-5.4023,-5.4023,-5.4023,-5.4023,-5.4023,-5.4023,-5.4023,-5.4023,-5.4023,-5.4023,-5.4023,-5.4023,-5.4023,-5.0527,-5.0254,-5.0586,-5.0527,-5.0312,-5.0976,-5.1074,-5.082,-5.1152,-5.1328,-5.123,-5.0918,-5.0742,-5.0801,-5.1133,-5.1269,-5.1289,-5.1308,-5.1289,-5.1289,-5.1348,-5.1387,-5.1348,-5.1406,-5.1445,-5.1445,-5.1445,-5.1445,-5.1445,-5.1445,-5.1445,-5.1445,-5.1445,-5.1445,-5.1445,-5.1445,-5.1445,-5.1445,-5.1445,-5.1445,-5.1445,-5.1445,-5.1445,-5.1445,-5.1445,-5.1445,-5.1445,-5.1445,-5.1445,-5.1445,-5.1445,-5.1445,-5.1465,-5.1758,-5.1953,-5.1933,-4.9311,-4.6395,-4.3219,-4.3057,-4.434,-4.661,-4.9365,-5.1309,-5.1719,-5.1367,-5.0781,-5.0215,-5.0,-4.9961,-4.998,-5.0019,-5.0,-4.9941,-5.0,-5.0078,-5.0176,-5.0469,-5.0723,-5.0781,-5.1562,-5.1992,-5.2129,-5.2324,-5.2519,-5.2617,-5.3105,-5.3437,-5.3476,-5.375,-5.4023,-5.4023,-5.4023,-5.4023,-5.4023,-5.4023,-5.4023,-5.4023,-5.4023,-5.4023,-5.4023,-5.4023,-5.4023,-5.4023,-5.4023,-5.4023,-5.4023,-5.4023,-5.4023,-5.4023,-5.4023,-5.4023,-5.4023,-5.4023,-5.4023,-5.1074,-5.0937,-5.1094,-5.1074,-5.0996,-5.1289,-5.1348,-5.1191,-5.1348,-5.1445,-5.1426,-5.125,-5.1172,-5.1191,-5.1348,-5.1445,-5.1445,-5.1445,-5.1445,-5.1445,-5.1445,-5.1445,-5.1445,-5.1445,-5.1445,-5.1445,-5.1445,-5.1445,-5.1445,-5.1445,-5.1445,-5.1445,-5.1445,-5.1445,-5.1445,-5.1445,-5.1445,-5.1445,-5.1445,-5.1445,-5.1445,-5.1445,-5.1445,-5.1445,-5.1445,-5.1445,-5.1445,-5.1445,-5.1445,-5.1445,-5.168,-5.1816,-5.1816,-5.2226,-5.2461,-5.2243,-4.8159,-4.5158,-4.383,-4.2533,-4.2724,-4.4972,-4.7978,-5.0327,-5.1873,-5.1914,-5.1758,-5.166,-5.123,-5.084,-5.0605,-5.0547,-5.0449,-5.0273,-5.0391,-5.0644,-5.0898,-5.1289,-5.1719,-5.2226,-5.2617,-5.2949,-5.3183,-5.3379,-5.3359,-5.3223,-5.3476,-5.3711,-5.3769,-5.3926,-5.4004,-5.4023,-5.4023,-5.4023,-5.4023,-5.4023,-5.4023,-5.4023,-5.4023,-5.4023,-5.4023,-5.4023,-5.4023,-5.4043,-5.4082,-5.4082,-5.4023,-5.4023,-5.4023,-5.4082,-5.4043,-5.4023,-5.4023,-5.4023,-5.4023,-5.1445,-5.1445,-5.1445,-5.1445,-5.1445,-5.1445,-5.1445,-5.1445,-5.1445,-5.1445,-5.1445,-5.1445,-5.1445,-5.1445,-5.1543,-5.1621,-5.1601,-5.1601,-5.1543,-5.1445,-5.1445,-5.1484,-5.1601,-5.1601,-5.1601,-5.1601,-5.1621,-5.1543,-5.1445,-5.1445,-5.1445,-5.1445,-5.1445,-5.1445,-5.1445,-5.1445,-5.1445,-5.1445,-5.1445,-5.1445,-5.1445,-5.1445,-5.1445,-5.1445,-5.1445,-5.1445,-5.1445,-5.1445,-5.1504,-5.1601,-5.1914,-5.2129,-5.2266,-5.2656,-5.2891,-5.2471,-4.7659,-4.4606,-4.4578,-4.2351,-4.1895,-4.4381,-4.713,-4.981,-5.2058,-5.2617,-5.2754,-5.2949,-5.25,-5.1973,-5.1406,-5.1328,-5.1191,-5.0937,-5.1172,-5.1465,-5.1758,-5.2168,-5.2656,-5.3242,-5.3379,-5.3652,-5.3945,-5.3984,-5.3848,-5.3652,-5.3808,-5.4023,-5.4023,-5.4023,-5.4023,-5.4023,-5.4023,-5.4023,-5.4023,-5.4023,-5.4023,-5.4023,-5.4023,-5.4023,-5.4062,-5.4101,-5.4219,-5.4336,-5.4316,-5.4394,-5.4531,-5.4473,-5.4473,-5.4512,-5.4492,-5.4433,-5.4492,-5.4277,-5.4062,-5.1445,-5.1445,-5.1445,-5.1484,-5.1445,-5.1465,-5.1445,-5.1445,-5.1445,-5.1445,-5.1445,-5.1445,-5.1445,-5.1484,-5.1855,-5.2031,-5.2012,-5.1992,-5.1777,-5.1465,-5.1445,-5.166,-5.2031,-5.2051,-5.2051,-5.2051,-5.2051,-5.1855,-5.1484,-5.1445,-5.1445,-5.1445,-5.1445,-5.1445,-5.1465,-5.1484,-5.1445,-5.1484,-5.1484,-5.1445,-5.1445,-5.1445,-5.1445,-5.1445,-5.1445,-5.1445,-5.1445,-5.1445,-5.1601,-5.2012,-5.207,-5.2266,-5.2656,-5.3086,-5.334,-5.2917,-4.8272,-4.4964,-4.4364,-4.2274,-4.2003,-4.4726,-4.7478,-5.0693,-5.2916,-5.3547,-5.3769,-5.3926,-5.3769,-5.3398,-5.2715,-5.25,-5.248,-5.2422,-5.2539,-5.2598,-5.2637,-5.2969,-5.3262,-5.3437,-5.373,-5.3926,-5.4023,-5.4023,-5.4023,-5.3965,-5.4004,-5.4023,-5.4023,-5.4023,-5.4023,-5.4023,-5.4023,-5.4043,-5.4043,-5.4023,-5.4023,-5.4062,-5.4082,-5.4082,-5.418,-5.4316,-5.4512,-5.4726,-5.4883,-5.5039,-5.5176,-5.5312,-5.541,-5.543,-5.5351,-5.5293,-5.5117,-5.4512,-5.4316,-5.1601,-5.1875,-5.2129,-5.209,-5.1855,-5.1855,-5.1699,-5.1445,-5.1445,-5.1445,-5.1445,-5.1445,-5.1582,-5.1855,-5.2012,-5.1933,-5.168,-5.166,-5.1582,-5.1465,-5.1719,-5.1933,-5.209,-5.2344,-5.248,-5.248,-5.248,-5.2266,-5.1894,-5.1836,-5.1699,-5.1465,-5.1445,-5.1562,-5.1797,-5.1836,-5.1855,-5.1855,-5.1836,-5.1719,-5.1484,-5.1445,-5.1445,-5.1445,-5.1445,-5.1445,-5.1445,-5.1445,-5.1523,-5.166,-5.2168,-5.2539,-5.2754,-5.3398,-5.3789,-5.3363,-5.0151,-4.7112,-4.5118,-4.2663,-4.1466,-4.2526,-4.5382,-4.8228,-5.0804,-5.2942,-5.4023,-5.4023,-5.4023,-5.3828,-5.3613,-5.3301,-5.3008,-5.2793,-5.2969,-5.3125,-5.3203,-5.3516,-5.3789,-5.3808,-5.3945,-5.4023,-5.4023,-5.4023,-5.4023,-5.4023,-5.4023,-5.4023,-5.4023,-5.4023,-5.4023,-5.4023,-5.4043,-5.4121,-5.4433,-5.418,-5.4043,-5.4121,-5.4199,-5.4394,-5.4551,-5.4824,-5.5058,-5.5098,-5.5332,-5.5469,-5.5547,-5.5898,-5.6055,-5.6289,-5.6211,-5.6055,-5.5762,-5.5351,-5.5078,-5.1816,-5.2109,-5.2383,-5.2344,-5.207,-5.1933,-5.1699,-5.1445,-5.1445,-5.1445,-5.1465,-5.1582,-5.1816,-5.209,-5.2226,-5.2051,-5.1699,-5.1777,-5.1777,-5.168,-5.209,-5.2363,-5.2519,-5.2793,-5.291,-5.2891,-5.2773,-5.2539,-5.2305,-5.2285,-5.2129,-5.1875,-5.1836,-5.1973,-5.2246,-5.2285,-5.2285,-5.2285,-5.2285,-5.2129,-5.1875,-5.1836,-5.1836,-5.1855,-5.1836,-5.1777,-5.166,-5.1777,-5.1836,-5.1933,-5.2539,-5.2988,-5.3183,-5.3711,-5.4023,-5.3595,-5.037,-4.7598,-4.5464,-4.2065,-4.014,-4.1213,-4.3986,-4.6737,-4.9502,-5.2287,-5.38,-5.4023,-5.4023,-5.4023,-5.3984,-5.375,-5.3457,-5.3223,-5.3398,-5.3574,-5.3594,-5.3848,-5.3984,-5.4004,-5.4004,-5.4023,-5.4023,-5.4023,-5.4023,-5.4023,-5.4023,-5.4023,-5.4023,-5.4023,-5.4023,-5.4023,-5.4023,-5.4219,-5.4492,-5.4433,-5.4512,-5.4609,-5.4648,-5.4805,-5.498,-5.5273,-5.5488,-5.5527,-5.5625,-5.5762,-5.6035,-5.6406,-5.6758,-5.709,-5.707,-5.6933,-5.664,-5.6328,-5.6035,-5.209,-5.2129,-5.2109,-5.2207,-5.2109,-5.1777,-5.1504,-5.1445,-5.1445,-5.1465,-5.1543,-5.1875,-5.2051,-5.2187,-5.25,-5.2461,-5.2207,-5.2461,-5.2402,-5.209,-5.25,-5.291,-5.3242,-5.332,-5.3359,-5.334,-5.2949,-5.2754,-5.2715,-5.2715,-5.2676,-5.2676,-5.2598,-5.2598,-5.2715,-5.2715,-5.2715,-5.2715,-5.2715,-5.2676,-5.2695,-5.2617,-5.2598,-5.2617,-5.2637,-5.25,-5.2148,-5.2422,-5.2558,-5.2676,-5.3066,-5.3555,-5.3906,-5.4101,-5.4082,-5.3185,-4.8893,-4.6135,-4.5039,-4.0793,-3.9513,-4.0576,-4.3541,-4.6118,-4.8857,-5.1875,-5.3595,-5.4023,-5.4023,-5.4023,-5.4023,-5.3984,-5.3945,-5.4004,-5.3945,-5.3945,-5.3984,-5.4004,-5.4023,-5.4023,-5.4023,-5.4023,-5.4023,-5.4023,-5.4023,-5.4023,-5.4023,-5.4023,-5.4023,-5.4023,-5.4023,-5.4043,-5.4141,-5.4375,-5.4551,-5.4726,-5.498,-5.5195,-5.5234,-5.5312,-5.541,-5.5644,-5.5879,-5.5976,-5.6269,-5.6426,-5.7051,-5.7441,-5.7851,-5.8105,-5.7969,-5.7793,-5.75,-5.7187,-5.6875,-5.2519,-5.2598,-5.3183,-5.3047,-5.2539,-5.2363,-5.2012,-5.1465,-5.1445,-5.1601,-5.1855,-5.2012,-5.2246,-5.248,-5.2656,-5.2637,-5.2558,-5.293,-5.2773,-5.2324,-5.2832,-5.3223,-5.3398,-5.3672,-5.3828,-5.3808,-5.3691,-5.3457,-5.3203,-5.3164,-5.3027,-5.2773,-5.2734,-5.2871,-5.3144,-5.3144,-5.3144,-5.3144,-5.3164,-5.3027,-5.2754,-5.2715,-5.2715,-5.2734,-5.2988,-5.3086,-5.2949,-5.2539,-5.2422,-5.2715,-5.3125,-5.3691,-5.4355,-5.4765,-5.4629,-5.3936,-5.2816,-4.9579,-4.5939,-4.3772,-4.0996,-3.9718,-4.0996,-4.3772,-4.6525,-4.952,-5.1875,-5.3595,-5.4023,-5.4023,-5.4023,-5.4023,-5.4023,-5.4023,-5.4023,-5.4023,-5.4023,-5.4023,-5.4023,-5.4023,-5.4023,-5.4023,-5.4023,-5.4023,-5.4023,-5.4023,-5.4023,-5.4023,-5.4023,-5.4023,-5.4023,-5.4023,-5.4258,-5.457,-5.4863,-5.5234,-5.5605,-5.5742,-5.5762,-5.5742,-5.584,-5.5976,-5.6211,-5.6484,-5.6777,-5.7226,-5.7851,-5.832,-5.8633,-5.8848,-5.8691,-5.8515,-5.834,-5.8047,-5.7695,-5.2812,-5.3008,-5.3555,-5.3476,-5.2949,-5.2793,-5.2422,-5.1953,-5.1894,-5.1459,-5.1076,-5.2083,-5.2058,-5.1687,-5.2483,-5.3105,-5.3027,-5.3398,-5.3223,-5.2734,-5.3262,-5.3594,-5.3633,-5.3867,-5.4023,-5.4023,-5.4023,-5.3887,-5.3633,-5.3613,-5.3476,-5.3242,-5.3203,-5.334,-5.3594,-5.3613,-5.3613,-5.3613,-5.3613,-5.3476,-5.3262,-5.3203,-5.3203,-5.3242,-5.3476,-5.3594,-5.3555,-5.293,-5.2754,-5.3183,-5.3613,-5.4199,-5.4863,-5.5137,-5.5,-5.4286,-5.3176,-5.0809,-4.6168,-4.42,-4.2065,-3.8431,-3.9513,-4.2497,-4.5252,-4.8018,-5.0993,-5.339,-5.4023,-5.4023,-5.4023,-5.4023,-5.4023,-5.4023,-5.4023,-5.4023,-5.4023,-5.4023,-5.4023,-5.4023,-5.4023,-5.4023,-5.4023,-5.4023,-5.4023,-5.4023,-5.4023,-5.4023,-5.4023,-5.4023,-5.4023,-5.4121,-5.4375,-5.4765,-5.5234,-5.5703,-5.6211,-5.6289,-5.6269,-5.6211,-5.623,-5.6328,-5.6504,-5.6855,-5.7168,-5.7617,-5.8203,-5.8594,-5.8926,-5.9082,-5.9199,-5.9004,-5.875,-5.8769,-5.8515,-5.2969,-5.334,-5.3398,-5.3418,-5.3281,-5.293,-5.2715,-5.2676,-5.2656,-5.1219,-4.9902,-5.1416,-5.1625,-5.0288,-5.2022,-5.3266,-5.3516,-5.3769,-5.3769,-5.3535,-5.3769,-5.3965,-5.3965,-5.4004,-5.4023,-5.4023,-5.4023,-5.4004,-5.3945,-5.3965,-5.4023,-5.3926,-5.3887,-5.4004,-5.3965,-5.4023,-5.3965,-5.3965,-5.3984,-5.3965,-5.3945,-5.3965,-5.3965,-5.3945,-5.4023,-5.4062,-5.3984,-5.3789,-5.373,-5.4062,-5.4433,-5.4844,-5.5254,-5.5351,-5.5254,-5.4726,-5.2096,-4.9758,-4.6252,-4.3835,-4.1041,-3.8225,-3.9513,-4.2281,-4.4612,-4.7387,-5.0163,-5.2942,-5.3819,-5.4023,-5.4023,-5.4023,-5.4023,-5.4023,-5.4023,-5.4023,-5.4023,-5.4023,-5.4023,-5.4023,-5.4023,-5.4023,-5.4023,-5.4023,-5.4023,-5.4023,-5.4023,-5.4023,-5.3819,-5.3819,-5.3839,-5.4072,-5.4196,-5.4739,-5.5281,-5.6426,-5.6894,-5.6933,-5.6855,-5.6699,-5.6523,-5.6543,-5.6836,-5.7187,-5.748,-5.7969,-5.8476,-5.8848,-5.9062,-5.914,-5.9199,-5.9199,-5.914,-5.9062,-5.9023,-5.2969,-5.3379,-5.3711,-5.3652,-5.3379,-5.3223,-5.3008,-5.2734,-5.2754,-5.1284,-4.9585,-4.9713,-5.0156,-4.9773,-5.0523,-5.1819,-5.3459,-5.3965,-5.4004,-5.3887,-5.3965,-5.4023,-5.4023,-5.4023,-5.4023,-5.4023,-5.4023,-5.4023,-5.4023,-5.4023,-5.4023,-5.4023,-5.4023,-5.4023,-5.4023,-5.4023,-5.4023,-5.4023,-5.4023,-5.4043,-5.4043,-5.4043,-5.4023,-5.4062,-5.4336,-5.4492,-5.457,-5.5019,-5.4961,-5.4551,-5.4922,-5.5332,-5.5742,-5.6015,-5.5762,-5.4792,-5.4568,-5.2698,-4.8966,-4.6173,-4.3409,-4.0387,-3.8898,-3.9294,-4.2065,-4.5039,-4.7808,-5.0578,-5.2512,-5.4023,-5.4023,-5.4023,-5.4023,-5.4023,-5.4062,-5.4062,-5.4023,-5.4023,-5.4023,-5.4023,-5.4023,-5.4023,-5.4023,-5.4062,-5.4062,-5.4062,-5.4101,-5.4121,-5.3975,-5.2813,-5.2645,-5.3386,-5.4015,-5.459,-5.5436,-5.6835,-5.7519,-5.7578,-5.7441,-5.7187,-5.6894,-5.6621,-5.7051,-5.75,-5.7617,-5.7988,-5.8613,-5.9121,-5.918,-5.9199,-5.9199,-5.9199,-5.9199,-5.914,-5.914,-5.3242,-5.3652,-5.3926,-5.3984,-5.3926,-5.3926,-5.3867,-5.3769,-5.3613,-5.1332,-4.8733,-4.9007,-4.887,-4.8018,-4.9293,-5.1444,-5.3819,-5.4023,-5.4023,-5.4023,-5.4023,-5.4023,-5.4023,-5.4023,-5.4023,-5.4023,-5.4043,-5.4023,-5.4023,-5.4023,-5.4023,-5.4023,-5.4023,-5.4023,-5.4023,-5.4023,-5.4141,-5.4238,-5.416,-5.4101,-5.4277,-5.4121,-5.4023,-5.4121,-5.4453,-5.4726,-5.498,-5.541,-5.5488,-5.5332,-5.5605,-5.5957,-5.6191,-5.6426,-5.6152,-5.5293,-5.5683,-5.4168,-5.0715,-4.7878,-4.4995,-4.1716,-3.8846,-3.8762,-4.1041,-4.3772,-4.6737,-4.952,-5.2306,-5.38,-5.4023,-5.4023,-5.4121,-5.4277,-5.4297,-5.4238,-5.4082,-5.4023,-5.4023,-5.4023,-5.4023,-5.4023,-5.4043,-5.418,-5.4277,-5.4355,-5.4551,-5.459,-5.4403,-5.2704,-5.1872,-5.3062,-5.413,-5.482,-5.5705,-5.689,-5.7812,-5.793,-5.7949,-5.7695,-5.7226,-5.6855,-5.7187,-5.7598,-5.7754,-5.8086,-5.873,-5.9199,-5.9199,-5.9199,-5.9199,-5.9199,-5.9199,-5.9199,-5.9199,-5.3652,-5.4101,-5.4101,-5.4355,-5.4687,-5.4746,-5.4863,-5.5137,-5.4805,-5.1812,-4.8277,-4.886,-4.8683,-4.6102,-4.8875,-5.1218,-5.4023,-5.4121,-5.4141,-5.416,-5.416,-5.416,-5.418,-5.418,-5.418,-5.418,-5.4141,-5.418,-5.4199,-5.4141,-5.4062,-5.4043,-5.4023,-5.4023,-5.4023,-5.4023,-5.4258,-5.4492,-5.4316,-5.4336,-5.4512,-5.4316,-5.4141,-5.4101,-5.457,-5.5058,-5.5371,-5.5566,-5.5644,-5.5976,-5.6348,-5.6426,-5.6504,-5.6582,-5.6328,-5.5996,-5.5706,-5.4705,-5.188,-4.9151,-4.6036,-4.2925,-3.9821,-3.8598,-4.0752,-4.3021,-4.5776,-4.8665,-5.1875,-5.3166,-5.4043,-5.4062,-5.4277,-5.4551,-5.4668,-5.4551,-5.4277,-5.416,-5.416,-5.4141,-5.416,-5.4101,-5.4258,-5.4433,-5.4687,-5.4746,-5.4902,-5.4961,-5.4584,-5.3272,-5.2946,-5.3534,-5.4512,-5.5205,-5.6152,-5.7123,-5.773,-5.8203,-5.8281,-5.8086,-5.7539,-5.7285,-5.7441,-5.7656,-5.7793,-5.8262,-5.8945,-5.9199,-5.9199,-5.9199,-5.9199,-5.9199,-5.9199,-5.9199,-5.9199,-5.3808,-5.4551,-5.4531,-5.4785,-5.5137,-5.5176,-5.5234,-5.5312,-5.5215,-5.3043,-5.0184,-5.004,-4.9597,-4.8683,-4.9573,-5.1218,-5.3936,-5.4394,-5.4531,-5.4551,-5.4531,-5.4531,-5.4551,-5.4551,-5.4551,-5.4609,-5.4883,-5.4844,-5.4629,-5.4512,-5.4375,-5.4101,-5.416,-5.4043,-5.4082,-5.416,-5.4238,-5.459,-5.459,-5.4609,-5.4707,-5.4629,-5.4414,-5.4258,-5.4805,-5.5547,-5.6152,-5.6308,-5.6367,-5.6367,-5.625,-5.6308,-5.6523,-5.6582,-5.6387,-5.6152,-5.625,-5.5669,-5.4244,-5.1672,-4.9032,-4.5649,-4.2538,-4.0452,-3.8417,-4.1178,-4.3826,-4.6202,-4.9084,-5.1913,-5.3673,-5.4355,-5.459,-5.4785,-5.5,-5.5156,-5.5058,-5.5,-5.4961,-5.4922,-5.4726,-5.4668,-5.4941,-5.4765,-5.4922,-5.5117,-5.5254,-5.5312,-5.4761,-5.3995,-5.3604,-5.3886,-5.3773,-5.4543,-5.5401,-5.6726,-5.8158,-5.8574,-5.8613,-5.8457,-5.791,-5.75,-5.7598,-5.7695,-5.7832,-5.8398,-5.9023,-5.9199,-5.9199,-5.9199,-5.9219,-5.9277,-5.9297,-5.9258,-5.9277,-5.4531,-5.4961,-5.498,-5.5215,-5.5566,-5.5605,-5.5723,-5.584,-5.5683,-5.3938,-5.1327,-5.072,-5.0486,-5.0287,-5.0498,-5.1812,-5.4028,-5.4844,-5.498,-5.498,-5.4961,-5.4961,-5.5039,-5.5137,-5.5195,-5.5058,-5.5176,-5.5137,-5.5019,-5.4961,-5.4863,-5.4648,-5.4609,-5.4687,-5.4629,-5.4609,-5.4883,-5.5156,-5.5078,-5.5058,-5.5215,-5.5058,-5.5058,-5.4961,-5.539,-5.5937,-5.6484,-5.6562,-5.6582,-5.6523,-5.6367,-5.6328,-5.6523,-5.6582,-5.6465,-5.6348,-5.6406,-5.6426,-5.5418,-5.3401,-5.0302,-4.707,-4.4205,-4.0935,-3.9644,-4.1282,-4.4269,-4.6439,-4.9511,-5.2835,-5.415,-5.4726,-5.498,-5.5273,-5.5449,-5.5664,-5.5781,-5.5566,-5.5312,-5.5273,-5.5098,-5.5098,-5.5137,-5.5176,-5.5332,-5.5586,-5.5918,-5.5996,-5.6035,-5.5282,-5.3755,-5.3581,-5.3293,-5.3491,-5.4521,-5.6347,-5.8683,-5.9004,-5.8965,-5.873,-5.8301,-5.793,-5.7637,-5.7773,-5.7949,-5.8359,-5.8887,-5.9023,-5.9199,-5.9238,-5.9297,-5.9394,-5.9492,-5.957,-5.957,-5.5332,-5.541,-5.541,-5.5644,-5.5996,-5.6035,-5.6211,-5.6465,-5.6211,-5.4626,-5.2572,-5.1813,-5.2038,-5.177,-5.1733,-5.3326,-5.4703,-5.5273,-5.5254,-5.539,-5.541,-5.541,-5.5488,-5.5723,-5.584,-5.5527,-5.5586,-5.5547,-5.5449,-5.539,-5.5312,-5.5293,-5.5273,-5.5156,-5.5254,-5.5312,-5.541,-5.5703,-5.5547,-5.5508,-5.5742,-5.5547,-5.5566,-5.5723,-5.582,-5.6094,-5.6484,-5.6582,-5.6582,-5.6582,-5.6582,-5.6582,-5.6582,-5.6582,-5.6582,-5.6562,-5.6582,-5.6523,-5.6251,-5.4261,-5.1475,-4.7639,-4.5201,-4.1733,-4.018,-4.162,-4.4396,-4.7772,-5.0842,-5.45,-5.4726,-5.5117,-5.5469,-5.5723,-5.5879,-5.6211,-5.6348,-5.5918,-5.5664,-5.5566,-5.5527,-5.5508,-5.5625,-5.5703,-5.5879,-5.6055,-5.6367,-5.6582,-5.6582,-5.6113,-5.4532,-5.3291,-5.2763,-5.3498,-5.4491,-5.6516,-5.8917,-5.9199,-5.9199,-5.8926,-5.8594,-5.8301,-5.8008,-5.7949,-5.8144,-5.8496,-5.8808,-5.9082,-5.9219,-5.9277,-5.9453,-5.9648,-5.9785,-5.9883,-5.9902,-5.5508,-5.584,-5.582,-5.6074,-5.6445,-5.6465,-5.6504,-5.6562,-5.6484,-5.6037,-5.5283,-5.4974,-5.4763,-5.4551,-5.4646,-5.5068,-5.5723,-5.5605,-5.5566,-5.5781,-5.584,-5.584,-5.5918,-5.6191,-5.6348,-5.6406,-5.6289,-5.6113,-5.5879,-5.582,-5.5703,-5.541,-5.539,-5.539,-5.541,-5.5332,-5.5605,-5.5957,-5.5898,-5.5918,-5.5937,-5.5918,-5.5859,-5.5996,-5.6015,-5.6211,-5.6484,-5.6582,-5.6582,-5.6582,-5.6582,-5.6582,-5.6582,-5.6582,-5.6582,-5.6582,-5.6582,-5.6582,-5.6368,-5.6134,-5.2745,-4.913,-4.686,-4.361,-4.0278,-3.9952,-4.36,-4.7775,-5.1807,-5.5117,-5.4746,-5.539,-5.5605,-5.5723,-5.6055,-5.6465,-5.6523,-5.6406,-5.625,-5.6172,-5.6035,-5.5456,-5.5128,-5.4992,-5.505,-5.5145,-5.5337,-5.6134,-5.6582,-5.6109,-5.5019,-5.3595,-5.222,-5.3394,-5.4627,-5.6986,-5.9199,-5.9199,-5.916,-5.9023,-5.875,-5.8555,-5.8398,-5.8379,-5.8281,-5.8398,-5.873,-5.9121,-5.9375,-5.9531,-5.9726,-5.9961,-6.0156,-6.0332,-6.0332,-5.6094,-5.6269,-5.6269,-5.6387,-5.6562,-5.6582,-5.6582,-5.6582,-5.6582,-5.6484,-5.6328,-5.6269,-5.6172,-5.5996,-5.5957,-5.6094,-5.6133,-5.6094,-5.6094,-5.6269,-5.6269,-5.6269,-5.6037,-5.6504,-5.6562,-5.6582,-5.6562,-5.6484,-5.6289,-5.6269,-5.6133,-5.6035,-5.5957,-5.5976,-5.5976,-5.6015,-5.6055,-5.625,-5.625,-5.625,-5.625,-5.6269,-5.6269,-5.6269,-5.6269,-5.6387,-5.6504,-5.6582,-5.6582,-5.6582,-5.6582,-5.6582,-5.6582,-5.6582,-5.6582,-5.6582,-5.6582,-5.6582,-5.6582,-5.6368,-5.3669,-4.8533,-4.7643,-4.4696,-4.1445,-4.1586,-4.5217,-5.029,-5.3019,-5.5801,-5.543,-5.5898,-5.6094,-5.6094,-5.6348,-5.6523,-5.6582,-5.6582,-5.6582,-5.6582,-5.6406,-5.5417,-5.3718,-5.3755,-5.3971,-5.4243,-5.4337,-5.5237,-5.6348,-5.6148,-5.537,-5.2634,-5.1183,-5.2164,-5.3768,-5.6817,-5.8956,-5.9199,-5.918,-5.9043,-5.8906,-5.873,-5.8769,-5.8828,-5.873,-5.8515,-5.8887,-5.9336,-5.957,-5.9844,-6.0195,-6.0508,-6.0664,-6.0781,-6.0762,-5.6582,-5.6582,-5.6582,-5.6582,-5.6582,-5.6582,-5.6582,-5.6582,-5.6582,-5.6582,-5.6582,-5.6562,-5.6562,-5.6562,-5.6562,-5.6562,-5.6582,-5.6543,-5.6543,-5.6523,-5.6543,-5.6348,-5.5686,-5.5686,-5.5452,-5.5237,-5.5237,-5.6134,-5.6523,-5.6523,-5.6562,-5.6484,-5.6543,-5.6582,-5.6523,-5.6445,-5.6582,-5.6582,-5.6582,-5.6582,-5.6582,-5.6582,-5.6582,-5.6582,-5.6582,-5.6562,-5.6582,-5.6582,-5.6582,-5.6582,-5.6582,-5.6582,-5.6582,-5.6582,-5.6582,-5.6582,-5.6582,-5.6582,-5.6582,-5.6582,-5.4355,-4.9658,-4.8089,-4.4758,-4.2746,-4.4229,-4.9062,-5.398,-5.6076,-5.6308,-5.5937,-5.6289,-5.6445,-5.6406,-5.6426,-5.6582,-5.6582,-5.6582,-5.6582,-5.6582,-5.6582,-5.5901,-5.4553,-5.298,-5.3378,-5.4261,-5.4355,-5.4787,-5.5959,-5.6738,-5.5677,-5.1887,-5.0019,-5.0585,-5.2832,-5.6364,-5.8244,-5.9199,-5.9199,-5.9121,-5.9023,-5.8906,-5.9004,-5.9062,-5.8965,-5.8848,-5.9219,-5.9512,-5.9765,-6.0117,-6.0683,-6.1015,-6.1133,-6.1191,-6.1211,-5.6582,-5.6582,-5.6582,-5.6582,-5.6582,-5.6582,-5.6582,-5.6582,-5.6582,-5.6582,-5.6582,-5.6582,-5.6582,-5.6582,-5.6582,-5.6582,-5.6582,-5.6582,-5.6582,-5.6582,-5.6582,-5.5237,-5.3216,-5.2545,-5.2781,-5.2999,-5.2781,-5.4355,-5.5686,-5.6348,-5.6582,-5.6582,-5.6582,-5.6582,-5.6582,-5.6582,-5.6582,-5.6582,-5.6582,-5.6582,-5.6582,-5.6582,-5.6582,-5.6582,-5.6582,-5.6582,-5.6582,-5.6582,-5.6582,-5.6582,-5.6582,-5.6582,-5.6582,-5.6582,-5.6582,-5.6582,-5.6582,-5.6582,-5.6582,-5.6582,-5.4787,-5.0996,-4.8994,-4.6094,-4.4758,-4.5435,-4.9181,-5.2073,-5.5003,-5.6426,-5.6172,-5.6348,-5.6328,-5.6348,-5.6426,-5.6543,-5.6582,-5.6582,-5.6582,-5.6582,-5.6582,-5.6582,-5.5901,-5.412,-5.2999,-5.3669,-5.4571,-5.4806,-5.5371,-5.6167,-5.582,-5.2268,-5.12,-5.179,-5.2832,-5.6119,-5.8,-5.918,-5.9199,-5.9199,-5.9121,-5.9062,-5.9101,-5.9121,-5.9062,-5.9101,-5.9355,-5.9629,-5.9941,-6.039,-6.0918,-6.1289,-6.1582,-6.1601,-6.1543,-5.6582,-5.6582,-5.6582,-5.6582,-5.6582,-5.6582,-5.6582,-5.6582,-5.6582,-5.6582,-5.6582,-5.6582,-5.6582,-5.6582,-5.6582,-5.6582,-5.6582,-5.6582,-5.6582,-5.6582,-5.6368,-5.5003,-5.2781,-5.189,-5.1654,-5.0099,-5.1216,-5.2563,-5.4337,-5.5686,-5.6582,-5.6582,-5.6582,-5.6582,-5.6582,-5.6582,-5.6582,-5.6582,-5.6582,-5.6582,-5.6582,-5.6582,-5.6582,-5.6582,-5.6582,-5.6582,-5.6368,-5.6582,-5.6582,-5.6582,-5.6582,-5.6582,-5.6582,-5.6582,-5.6582,-5.6582,-5.6582,-5.6582,-5.6582,-5.6582,-5.412,-5.0777,-4.8328,-4.699,-4.6094,-4.675,-4.9878,-5.4337,-5.5686,-5.6465,-5.6348,-5.6484,-5.6445,-5.6426,-5.6445,-5.6504,-5.6582,-5.6582,-5.6582,-5.6582,-5.6582,-5.6582,-5.6348,-5.4571,-5.3216,-5.3452,-5.3904,-5.4374,-5.4618,-5.4994,-5.4174,-5.2682,-5.2762,-5.3732,-5.47,-5.6591,-5.8244,-5.9199,-5.9199,-5.9199,-5.9199,-5.918,-5.9199,-5.9297,-5.9375,-5.9433,-5.9531,-5.9883,-6.0312,-6.0723,-6.1152,-6.1426,-6.168,-6.168,-6.164,-5.6582,-5.6582,-5.6582,-5.6582,-5.6582,-5.6582,-5.6582,-5.6582,-5.6582,-5.6582,-5.6582,-5.6582,-5.6582,-5.6582,-5.6582,-5.6582,-5.6582,-5.6582,-5.6582,-5.6582,-5.6134,-5.4337,-5.1654,-5.0539,-4.9215,-4.6542,-4.8089,-5.0337,-5.2563,-5.412,-5.5471,-5.6582,-5.6582,-5.6582,-5.6582,-5.6582,-5.6582,-5.6582,-5.6582,-5.6582,-5.6582,-5.6582,-5.6134,-5.5686,-5.5471,-5.5471,-5.5452,-5.5452,-5.5237,-5.6582,-5.6582,-5.6582,-5.6582,-5.6582,-5.6582,-5.6582,-5.6582,-5.6582,-5.6582,-5.6134,-5.3669,-5.0319,-4.6766,-4.611,-4.6318,-4.6974,-4.9419,-5.4355,-5.6134,-5.6368,-5.6582,-5.6582,-5.6562,-5.6543,-5.6562,-5.6582,-5.6582,-5.6582,-5.6582,-5.6582,-5.6582,-5.6582,-5.592,-5.4571,-5.3669,-5.3235,-5.347,-5.3941,-5.4476,-5.4869,-5.4339,-5.348,-5.4723,-5.5236,-5.5155,-5.6572,-5.8225,-5.918,-5.918,-5.9199,-5.9199,-5.9199,-5.9199,-5.9355,-5.9551,-5.9746,-5.9824,-6.0273,-6.0683,-6.0976,-6.125,-6.1523,-6.1719,-6.1719,-6.1719,-5.6582,-5.6582,-5.6582,-5.6582,-5.6582,-5.6582,-5.6582,-5.6582,-5.6582,-5.6582,-5.6582,-5.6582,-5.6582,-5.6582,-5.6582,-5.6582,-5.6582,-5.6582,-5.6582,-5.6582,-5.6134,-5.3452,-5.0759,-4.8533,-4.6766,-4.4321,-4.5209,-4.7883,-5.0777,-5.2327,-5.4337,-5.6134,-5.6368,-5.6582,-5.6582,-5.6582,-5.6582,-5.6582,-5.6582,-5.6582,-5.6582,-5.6368,-5.5452,-5.3235,-5.2563,-5.2563,-5.2545,-5.3216,-5.4337,-5.6582,-5.6582,-5.6582,-5.6582,-5.6582,-5.6582,-5.6582,-5.6582,-5.6582,-5.6582,-5.6368,-5.4787,-5.1216,-4.7214,-4.3656,-4.4306,-4.6526,-4.9198,-5.2563,-5.5237,-5.6582,-5.6582,-5.6582,-5.6582,-5.6582,-5.6582,-5.6582,-5.6582,-5.6582,-5.6582,-5.6582,-5.666,-5.6758,-5.6797,-5.572,-5.506,-5.4825,-5.412,-5.4374,-5.5816,-5.6218,-5.5558,-5.5432,-5.6771,-5.6889,-5.5328,-5.6553,-5.843,-5.9121,-5.9101,-5.914,-5.9199,-5.9199,-5.9199,-5.915,-5.9139,-5.9637,-5.9968,-5.9725,-5.984,-6.0902,-6.1348,-6.1601,-6.1719,-6.1719,-6.1719,-5.6582,-5.6582,-5.6582,-5.6582,-5.6582,-5.6582,-5.6582,-5.6582,-5.6582,-5.6582,-5.6582,-5.6582,-5.6582,-5.6582,-5.6582,-5.6582,-5.6582,-5.6582,-5.6582,-5.6582,-5.592,-5.3904,-5.0996,-4.8089,-4.6094,-4.3656,-4.3429,-4.3641,-4.6318,-4.9878,-5.2327,-5.3904,-5.5686,-5.6368,-5.6582,-5.6582,-5.6582,-5.6582,-5.6582,-5.6582,-5.6582,-5.6368,-5.5237,-5.2327,-5.4337,-5.3669,-5.2781,-5.412,-5.5452,-5.6134,-5.6582,-5.6582,-5.6582,-5.6582,-5.6582,-5.6582,-5.6582,-5.6582,-5.6582,-5.6134,-5.4571,-4.9215,-4.4321,-4.1188,-4.2746,-4.5869,-4.8755,-5.189,-5.4787,-5.6582,-5.6582,-5.6582,-5.6582,-5.6582,-5.6582,-5.6582,-5.6582,-5.6582,-5.6738,-5.6797,-5.6973,-5.7148,-5.7148,-5.6952,-5.666,-5.6426,-5.5725,-5.5313,-5.6541,-5.7265,-5.6583,-5.6264,-5.76,-5.8275,-5.6946,-5.7771,-5.9062,-5.9062,-5.9062,-5.9121,-5.9199,-5.9199,-5.9238,-5.8964,-5.8367,-5.8042,-5.8013,-5.8247,-5.8977,-6.0204,-6.1038,-6.166,-6.1719,-6.1719,-6.1719,-5.6582,-5.6582,-5.6582,-5.6582,-5.6582,-5.6582,-5.6582,-5.6582,-5.6582,-5.6582,-5.6582,-5.6582,-5.6582,-5.6582,-5.6582,-5.6582,-5.6582,-5.6582,-5.6582,-5.6582,-5.6368,-5.4787,-5.2091,-4.8977,-4.6094,-4.3656,-4.209,-4.209,-4.4095,-4.8533,-5.0996,-5.2781,-5.5003,-5.6348,-5.6582,-5.6582,-5.6582,-5.6582,-5.6582,-5.6582,-5.6582,-5.6582,-5.5237,-5.2781,-5.3904,-5.3885,-5.2781,-5.3669,-5.5237,-5.6134,-5.6582,-5.6582,-5.6582,-5.6582,-5.6582,-5.6582,-5.6582,-5.6582,-5.6582,-5.5237,-5.2999,-4.8106,-4.3868,-4.1632,-4.2304,-4.5194,-4.855,-5.0319,-5.3904,-5.6582,-5.6582,-5.6582,-5.6582,-5.6582,-5.6582,-5.6582,-5.6582,-5.6601,-5.6855,-5.7051,-5.7207,-5.7305,-5.7402,-5.7344,-5.6973,-5.6777,-5.6621,-5.619,-5.6541,-5.7246,-5.7244,-5.7356,-5.7886,-5.832,-5.8535,-5.8828,-5.9082,-5.9101,-5.9101,-5.914,-5.9199,-5.9238,-5.9375,-5.9158,-5.8368,-5.6489,-5.6348,-5.7091,-5.8291,-5.9476,-6.0491,-6.1719,-6.1719,-6.1719,-6.1719,-5.6582,-5.6582,-5.6582,-5.6582,-5.6582,-5.6582,-5.6582,-5.6582,-5.6582,-5.6582,-5.6582,-5.6582,-5.6582,-5.6582,-5.6582,-5.6582,-5.6582,-5.6582,-5.6582,-5.6582,-5.6582,-5.4787,-5.2327,-4.9658,-4.699,-4.3201,-4.1632,-4.1632,-4.2761,-4.6766,-4.9437,-5.2109,-5.4571,-5.6582,-5.6582,-5.6582,-5.6582,-5.6582,-5.6582,-5.6582,-5.6582,-5.6582,-5.5022,-5.2999,-5.3235,-5.3452,-5.2563,-5.3235,-5.5022,-5.6368,-5.6582,-5.6582,-5.6582,-5.6582,-5.6582,-5.6582,-5.6582,-5.6601,-5.6387,-5.3904,-5.1251,-4.8106,-4.3868,-4.1861,-4.0972,-4.3641,-4.742,-4.8977,-5.2781,-5.5901,-5.6368,-5.6582,-5.6582,-5.6582,-5.6582,-5.6582,-5.6582,-5.6601,-5.6836,-5.7265,-5.7324,-5.7344,-5.75,-5.748,-5.707,-5.6914,-5.7051,-5.709,-5.709,-5.7109,-5.7246,-5.7676,-5.7988,-5.8105,-5.8359,-5.8828,-5.9101,-5.9121,-5.916,-5.9219,-5.9414,-5.9609,-5.9746,-5.9656,-5.8118,-5.624,-5.6149,-5.6312,-5.8019,-5.9495,-6.0726,-6.1719,-6.1719,-6.1232,-6.0745,-5.4787,-5.6582,-5.6582,-5.6582,-5.6582,-5.6582,-5.6582,-5.6582,-5.6582,-5.6582,-5.6582,-5.6582,-5.6582,-5.6582,-5.6582,-5.6582,-5.6582,-5.6582,-5.6582,-5.6582,-5.6368,-5.6134,-5.412,-5.1435,-4.8755,-4.6094,-4.3429,-4.0526,-4.0065,-4.4984,-4.766,-4.9878,-5.3904,-5.6368,-5.6582,-5.6582,-5.6582,-5.6582,-5.6582,-5.6582,-5.6582,-5.6368,-5.5237,-5.2545,-5.3885,-5.412,-5.2781,-5.3885,-5.5452,-5.6368,-5.6582,-5.6582,-5.6582,-5.6582,-5.6582,-5.6582,-5.6601,-5.6738,-5.6894,-5.5402,-5.3019,-4.8873,-4.5209,-4.2319,-3.9848,-4.2304,-4.4984,-4.7643,-5.1435,-5.4337,-5.5901,-5.6368,-5.6582,-5.6582,-5.6582,-5.6582,-5.6582,-5.6601,-5.6797,-5.7402,-5.7676,-5.7676,-5.7773,-5.7773,-5.7422,-5.6914,-5.6953,-5.7051,-5.7051,-5.6914,-5.6973,-5.7539,-5.791,-5.7969,-5.8183,-5.8691,-5.8867,-5.8828,-5.9062,-5.9316,-5.957,-5.9902,-6.0254,-6.024,-5.8088,-5.6167,-5.6384,-5.6801,-5.8129,-5.973,-6.0979,-6.1719,-6.1719,-6.0257,-5.8314,-5.3904,-5.6582,-5.6582,-5.6582,-5.6582,-5.6582,-5.6582,-5.6582,-5.6582,-5.6582,-5.6582,-5.6582,-5.6582,-5.6582,-5.6582,-5.6582,-5.6582,-5.6582,-5.6582,-5.6368,-5.5237,-5.5471,-5.5022,-5.2781,-4.9198,-4.6974,-4.4532,-4.1861,-3.9399,-4.4758,-4.8089,-5.0319,-5.2999,-5.4337,-5.5022,-5.5686,-5.6582,-5.6582,-5.6582,-5.6582,-5.6582,-5.6368,-5.5686,-5.4787,-5.5022,-5.5686,-5.4787,-5.5237,-5.6582,-5.6582,-5.6582,-5.6582,-5.6582,-5.6582,-5.6582,-5.6601,-5.6777,-5.6933,-5.7109,-5.7402,-5.45,-5.0155,-4.6639,-4.2988,-4.0296,-4.1861,-4.3641,-4.6318,-4.9658,-5.2327,-5.4571,-5.5237,-5.6582,-5.6582,-5.6368,-5.6368,-5.6582,-5.6601,-5.6679,-5.75,-5.7949,-5.7969,-5.8027,-5.7949,-5.7812,-5.7305,-5.6836,-5.6953,-5.7051,-5.6894,-5.6875,-5.7402,-5.7851,-5.793,-5.8164,-5.8574,-5.8672,-5.8555,-5.8965,-5.9473,-5.9824,-6.0195,-6.0625,-6.0785,-5.8537,-5.7001,-5.669,-5.7329,-5.8769,-5.9984,-6.1232,-6.1719,-6.1699,-5.9532,-5.7091,-5.3885,-5.6368,-5.6582,-5.6582,-5.6582,-5.6582,-5.6582,-5.6582,-5.6582,-5.6582,-5.6582,-5.6582,-5.6582,-5.6582,-5.6582,-5.6582,-5.6348,-5.6348,-5.592,-5.5237,-5.3216,-5.412,-5.3669,-5.1216,-4.8977,-4.7214,-4.4984,-4.2532,-3.9848,-4.4758,-4.8772,-5.0759,-5.2109,-5.2781,-5.3669,-5.4553,-5.592,-5.6368,-5.6582,-5.6582,-5.6582,-5.6582,-5.5901,-5.5471,-5.5901,-5.592,-5.5471,-5.6134,-5.6582,-5.6582,-5.6582,-5.6582,-5.6582,-5.6582,-5.6582,-5.668,-5.6953,-5.7148,-5.7344,-5.7637,-5.5991,-5.2262,-4.9693,-4.4851,-4.1632,-4.1417,-4.2532,-4.4984,-4.8106,-5.0337,-5.2563,-5.4571,-5.6582,-5.6368,-5.6134,-5.6134,-5.6368,-5.6524,-5.6854,-5.7302,-5.7949,-5.8144,-5.834,-5.832,-5.8086,-5.7637,-5.7207,-5.7168,-5.7187,-5.6933,-5.6992,-5.7363,-5.7715,-5.789,-5.8183,-5.8515,-5.8906,-5.8926,-5.9297,-5.9765,-6.0117,-6.0508,-6.0976,-6.0612,-5.8855,-5.8022,-5.8296,-5.8551,-5.8787,-6.0257,-6.1485,-6.1719,-6.1719,-5.9042,-5.6853,-5.3885,-5.6582,-5.6582,-5.6582,-5.6582,-5.6582,-5.6582,-5.6582,-5.6582,-5.6582,-5.6582,-5.6582,-5.6582,-5.6582,-5.6582,-5.6582,-5.5901,-5.4571,-5.3669,-5.2327,-5.0539,-5.1435,-5.1672,-5.1216,-4.9437,-4.7883,-4.6094,-4.3656,-4.0972,-4.4758,-4.766,-4.8772,-5.0337,-5.1216,-5.189,-5.2999,-5.4571,-5.592,-5.6368,-5.6582,-5.6582,-5.6582,-5.5686,-5.4571,-5.5471,-5.5237,-5.4337,-5.5471,-5.6134,-5.6582,-5.6582,-5.6582,-5.6582,-5.6582,-5.6582,-5.664,-5.6973,-5.7324,-5.7617,-5.7793,-5.6621,-5.4137,-5.1801,-4.8132,-4.3959,-4.1417,-4.1632,-4.3641,-4.6766,-4.9215,-5.189,-5.412,-5.592,-5.6368,-5.592,-5.5686,-5.5686,-5.5782,-5.6128,-5.7438,-5.8086,-5.8437,-5.8633,-5.8515,-5.8242,-5.7871,-5.7637,-5.7341,-5.7422,-5.7187,-5.7246,-5.7637,-5.7851,-5.8105,-5.8144,-5.8418,-5.8945,-5.9375,-5.9746,-6.0156,-6.0605,-6.1015,-6.1387,-6.0844,-5.9946,-5.9984,-6.0491,-6.0491,-6.0022,-6.0511,-6.1719,-6.1719,-6.1232,-5.8806,-5.6119,-5.3904,-5.6368,-5.6582,-5.6582,-5.6582,-5.6582,-5.6582,-5.6582,-5.6582,-5.6582,-5.6582,-5.6582,-5.6582,-5.6582,-5.6582,-5.6582,-5.6368,-5.3669,-5.2327,-5.1435,-4.7866,-4.8533,-4.9419,-5.0319,-4.8994,-4.8106,-4.699,-4.5209,-4.2532,-4.3201,-4.5869,-4.6094,-4.8106,-4.8328,-4.8772,-4.9658,-5.189,-5.412,-5.5686,-5.6368,-5.6582,-5.6582,-5.4787,-5.2999,-5.4337,-5.3452,-5.2327,-5.412,-5.5022,-5.6368,-5.6582,-5.6582,-5.6582,-5.6582,-5.6582,-5.666,-5.6973,-5.7265,-5.7519,-5.7754,-5.6583,-5.5112,-5.353,-5.0053,-4.6237,-4.3201,-4.1861,-4.1861,-4.5435,-4.855,-5.1216,-5.3669,-5.5237,-5.6582,-5.5901,-5.5003,-5.4787,-5.4806,-5.5989,-5.7555,-5.8262,-5.8672,-5.8769,-5.8633,-5.8275,-5.7782,-5.7206,-5.6707,-5.7233,-5.7676,-5.7773,-5.8066,-5.8242,-5.8398,-5.8418,-5.8535,-5.9101,-5.9687,-6.0176,-6.0605,-6.1074,-6.1348,-6.1562,-6.166,-6.1466,-6.1232,-6.0745,-6.1466,-6.1466,-6.1485,-6.1466,-6.1719,-6.0979,-5.8787,-5.6119,-5.412,-5.6582,-5.6582,-5.6582,-5.6582,-5.6582,-5.6582,-5.6582,-5.6582,-5.6582,-5.6582,-5.6582,-5.6582,-5.6582,-5.6582,-5.6582,-5.5686,-5.3669,-5.1435,-5.1435,-4.6318,-4.5419,-4.6542,-4.7214,-4.699,-4.7214,-4.699,-4.5885,-4.3883,-4.3656,-4.3868,-4.2974,-4.3868,-4.4547,-4.4984,-4.7214,-4.9878,-5.2781,-5.5237,-5.6582,-5.6582,-5.6134,-5.5237,-5.2109,-5.1872,-5.1872,-5.1435,-5.189,-5.3216,-5.5022,-5.6134,-5.592,-5.6582,-5.6582,-5.6582,-5.664,-5.6894,-5.7109,-5.7383,-5.7656,-5.7637,-5.6353,-5.4775,-5.1916,-4.8612,-4.4352,-4.2319,-4.0972,-4.3641,-4.6766,-4.9437,-5.2709,-5.5014,-5.5759,-5.5581,-5.5619,-5.6128,-5.6205,-5.6789,-5.8047,-5.8457,-5.8808,-5.8567,-5.8208,-5.6908,-5.698,-5.5786,-5.5076,-5.5432,-5.6118,-5.7302,-5.7513,-5.7445,-5.756,-5.8828,-5.9004,-5.9414,-5.9961,-6.0508,-6.0918,-6.1289,-6.1504,-6.1699,-6.1466,-6.0998,-6.0745,-6.0491,-6.0491,-6.0257,-6.0511,-6.0745,-6.1466,-6.0745,-5.9042,-5.7091,-5.592,-5.6582,-5.6582,-5.6582,-5.6582,-5.6582,-5.6582,-5.6582,-5.6582,-5.6582,-5.6582,-5.6582,-5.6582,-5.6582,-5.6582,-5.6582,-5.5901,-5.3452,-5.0979,-4.8533,-4.4758,-4.3201,-4.4306,-4.4547,-4.4532,-4.4984,-4.5644,-4.5869,-4.3641,-4.2988,-4.1861,-4.0526,-4.1417,-4.2761,-4.2988,-4.5644,-4.8533,-5.1435,-5.4337,-5.6134,-5.6582,-5.592,-5.4571,-5.1435,-5.0099,-4.9215,-4.8328,-4.7866,-5.0099,-5.2563,-5.2999,-5.4337,-5.6368,-5.6582,-5.6582,-5.6621,-5.6738,-5.6914,-5.7226,-5.7539,-5.7637,-5.7695,-5.6448,-5.4448,-5.1269,-4.6269,-4.2775,-4.1417,-4.1876,-4.4789,-4.7743,-5.1279,-5.4389,-5.4938,-5.5744,-5.6532,-5.7302,-5.7734,-5.793,-5.8242,-5.8633,-5.8528,-5.8305,-5.7432,-5.5933,-5.4327,-5.2233,-5.1295,-5.1261,-5.2042,-5.4608,-5.4998,-5.5652,-5.6234,-5.7756,-5.9531,-5.9961,-6.0351,-6.0879,-6.123,-6.1504,-6.1601,-6.1485,-6.0745,-6.0257,-5.9278,-5.8551,-5.8077,-5.8077,-5.8806,-6.0491,-6.1485,-6.1719,-6.0511,-5.8787,-5.6582,-5.6582,-5.6582,-5.6582,-5.6582,-5.6582,-5.6582,-5.6582,-5.6582,-5.6582,-5.6582,-5.6582,-5.6582,-5.6582,-5.6582,-5.6582,-5.6134,-5.3452,-5.0539,-4.7643,-4.4984,-4.2532,-4.209,-4.2532,-4.3201,-4.3868,-4.4532,-4.4532,-4.3429,-4.1417,-4.0065,-3.9181,-4.0742,-4.1417,-4.1861,-4.4306,-4.7214,-5.0116,-5.3235,-5.5237,-5.6348,-5.592,-5.3452,-5.0319,-4.8311,-4.7214,-4.5644,-4.5209,-4.8106,-5.1453,-5.3452,-5.4787,-5.6368,-5.6582,-5.6699,-5.6758,-5.6797,-5.6758,-5.7148,-5.7461,-5.7656,-5.7656,-5.7598,-5.5488,-5.2753,-4.8155,-4.4686,-4.3107,-4.2553,-4.4809,-4.6703,-4.9795,-5.2663,-5.4155,-5.6018,-5.7588,-5.7983,-5.8398,-5.8398,-5.8359,-5.8652,-5.8789,-5.8547,-5.8247,-5.676,-5.4172,-5.1894,-4.9557,-4.9106,-4.7715,-5.037,-5.271,-5.3362,-5.4688,-5.6225,-5.8558,-6.0547,-6.0937,-6.0748,-6.1426,-6.1601,-6.166,-6.1466,-5.9768,-5.8314,-5.6614,-5.588,-5.5401,-5.6614,-5.7585,-5.9768,-6.1719,-6.1719,-6.1719,-6.0257,-5.6582,-5.6582,-5.6582,-5.6582,-5.6582,-5.6582,-5.6582,-5.6582,-5.6582,-5.6582,-5.6582,-5.6582,-5.6582,-5.6582,-5.6582,-5.6582,-5.592,-5.4337,-5.1435,-4.8311,-4.5419,-4.3429,-4.1861,-4.1417,-4.2761,-4.3429,-4.3868,-4.4321,-4.4321,-4.2076,-4.0296,-3.9168,-3.8718,-3.8718,-3.9617,-4.1861,-4.5209,-4.8328,-5.1216,-5.3904,-5.5452,-5.6582,-5.3235,-5.0099,-4.7643,-4.6094,-4.4095,-4.3641,-4.6094,-4.9437,-5.2999,-5.4571,-5.5763,-5.6231,-5.6894,-5.6992,-5.7051,-5.707,-5.7226,-5.748,-5.7461,-5.7402,-5.7324,-5.6115,-5.3655,-5.0967,-4.7446,-4.5161,-4.4384,-4.4,-4.5685,-4.8097,-5.0984,-5.3031,-5.5395,-5.7094,-5.7284,-5.7885,-5.8179,-5.8005,-5.8547,-5.8703,-5.8789,-5.8489,-5.6572,-5.4207,-5.2124,-5.0039,-4.7934,-4.562,-4.5322,-4.8751,-5.1106,-5.2643,-5.4445,-5.6538,-5.8778,-5.9761,-5.9522,-6.063,-6.1466,-6.1719,-6.0491,-5.7822,-5.6376,-5.4422,-5.3198,-5.2714,-5.4164,-5.588,-5.8059,-6.0022,-6.1719,-6.1719,-6.1719,-5.6582,-5.6582,-5.6582,-5.6582,-5.6582,-5.6582,-5.6582,-5.6582,-5.6582,-5.6582,-5.6582,-5.6582,-5.6582,-5.6582,-5.6582,-5.6582,-5.6368,-5.5237,-5.3885,-5.1216,-4.7643,-4.4984,-4.2532,-4.0742,-4.2974,-4.4095,-4.4758,-4.4758,-4.4984,-4.3201,-4.0958,-3.895,-3.8718,-3.8718,-3.9168,-4.1632,-4.4321,-4.7437,-5.0319,-5.3216,-5.5686,-5.6134,-5.4571,-5.1672,-4.8772,-4.6318,-4.3641,-4.0742,-4.209,-4.5209,-4.9878,-5.2327,-5.3997,-5.5269,-5.6422,-5.7305,-5.7344,-5.7422,-5.7539,-5.7851,-5.791,-5.7773,-5.7871,-5.7925,-5.5674,-5.3855,-5.0447,-4.702,-4.5488,-4.2963,-4.4203,-4.7387,-5.0097,-5.0597,-5.2268,-5.2563,-5.3038,-5.4674,-5.5997,-5.7061,-5.8211,-5.8527,-5.8887,-5.7585,-5.5302,-5.2794,-5.0056,-4.795,-4.5145,-4.2813,-4.1409,-4.492,-4.8949,-5.0174,-5.1779,-5.327,-5.5383,-5.66,-5.8477,-6.0219,-6.1232,-6.1719,-6.0257,-5.7585,-5.4422,-5.1985,-5.101,-5.0277,-5.1254,-5.3198,-5.588,-5.8077,-6.0257,-6.1738,-6.1758]}]]